[[{"header":{"parameterUnit":"m.s-1","parameterCategory":1,"la1":30.6,"la2":29.2853,"lo1":-89.7004,"lo2":-87.6739,"dy":0.0162,"dx":0.0183,"nx":112,"ny":82,"refTime":"2024-04-16T12:00:00:Z","depth":0,"parameterNumber":2,"parameterNumberName":"U-component_of_WINDS"},"data":[0.0,0.0,0.0,0.0,0.0,0.0,0.0,0.0,0.0,0.0,0.0,0.0,0.0,0.0,0.0,0.0,0.0,0.0,0.0,0.0,0.0,0.0,0.0,0.0,0.0,0.0,0.0,0.0,0.0,0.0,0.0,0.0,0.0,0.0,0.0,0.0,0.0,0.0,0.0,0.0,0.0,0.0,0.0,0.0,0.0,0.0,0.0,0.0,0.0,0.0,0.0,0.0,0.0,0.0,0.0,0.0,0.0,0.0,0.0,0.0,0.0,0.0,0.0,0.0,0.0,0.0,0.0,0.0,0.0,0.0,0.0,0.0,0.0,0.0,0.0,0.0,0.0,0.0,0.0,0.0,0.0,0.0,0.0,0.0,0.0,0.0,0.0,0.0,0.0,0.0,0.0,5.8684,5.8569,5.8492,5.8492,5.7703,5.7203,5.7203,0.0,0.0,0.0,0.0,0.0,0.0,0.0,0.0,0.0,0.0,0.0,0.0,0.0,0.0,0.0,0.0,0.0,0.0,0.0,0.0,0.0,0.0,0.0,0.0,0.0,0.0,0.0,0.0,0.0,0.0,0.0,0.0,0.0,0.0,0.0,0.0,0.0,0.0,0.0,0.0,0.0,0.0,0.0,0.0,0.0,0.0,0.0,0.0,0.0,0.0,0.0,0.0,0.0,0.0,0.0,0.0,0.0,0.0,0.0,0.0,0.0,0.0,0.0,0.0,0.0,0.0,0.0,0.0,0.0,0.0,0.0,0.0,0.0,0.0,0.0,0.0,0.0,0.0,0.0,0.0,0.0,0.0,0.0,0.0,0.0,0.0,0.0,0.0,0.0,0.0,0.0,0.0,0.0,0.0,0.0,0.0,0.0,0.0,0.0,0.0,0.0,0.0,0.0,0.0,6.0416,6.0416,5.9762,5.9319,5.9319,5.8569,5.8107,5.8107,0.0,0.0,0.0,0.0,0.0,0.0,0.0,0.0,0.0,0.0,0.0,0.0,0.0,0.0,0.0,0.0,0.0,0.0,0.0,0.0,0.0,0.0,0.0,0.0,0.0,0.0,0.0,0.0,0.0,0.0,0.0,0.0,0.0,0.0,0.0,0.0,0.0,0.0,0.0,0.0,0.0,0.0,0.0,0.0,0.0,0.0,0.0,0.0,0.0,0.0,0.0,0.0,0.0,0.0,0.0,0.0,0.0,0.0,0.0,0.0,0.0,0.0,0.0,0.0,0.0,0.0,0.0,0.0,0.0,0.0,0.0,0.0,0.0,0.0,0.0,0.0,0.0,0.0,0.0,0.0,0.0,0.0,0.0,0.0,0.0,0.0,0.0,0.0,0.0,0.0,0.0,0.0,0.0,0.0,0.0,0.0,0.0,0.0,0.0,0.0,0.0,0.0,0.0,6.055,6.08,6.08,6.0435,6.0204,6.0204,5.9435,5.8954,5.8954,5.7338,0.0,0.0,0.0,0.0,0.0,0.0,0.0,0.0,0.0,0.0,0.0,0.0,0.0,0.0,0.0,0.0,0.0,0.0,0.0,0.0,0.0,0.0,0.0,0.0,0.0,0.0,0.0,0.0,0.0,0.0,0.0,0.0,0.0,0.0,0.0,0.0,0.0,0.0,0.0,0.0,0.0,0.0,0.0,0.0,0.0,0.0,0.0,0.0,0.0,0.0,0.0,0.0,0.0,0.0,0.0,0.0,0.0,0.0,0.0,0.0,0.0,0.0,0.0,0.0,0.0,0.0,0.0,0.0,0.0,0.0,0.0,0.0,0.0,0.0,0.0,0.0,0.0,0.0,0.0,0.0,0.0,0.0,0.0,0.0,0.0,0.0,0.0,0.0,0.0,0.0,0.0,0.0,0.0,0.0,0.0,0.0,0.0,0.0,0.0,0.0,0.0,0.0,6.08,6.08,6.08,6.08,6.08,6.08,6.0185,5.9819,5.9819,5.8415,0.0,0.0,0.0,0.0,0.0,0.0,0.0,0.0,0.0,0.0,0.0,0.0,0.0,0.0,0.0,0.0,0.0,0.0,0.0,0.0,0.0,0.0,0.0,0.0,0.0,0.0,0.0,0.0,0.0,0.0,0.0,0.0,0.0,0.0,0.0,0.0,0.0,0.0,0.0,0.0,0.0,0.0,0.0,0.0,0.0,0.0,0.0,0.0,0.0,0.0,0.0,0.0,0.0,0.0,0.0,0.0,0.0,0.0,0.0,0.0,0.0,0.0,0.0,0.0,0.0,0.0,0.0,0.0,0.0,0.0,0.0,0.0,0.0,0.0,0.0,0.0,0.0,0.0,0.0,0.0,0.0,0.0,0.0,0.0,0.0,0.0,0.0,0.0,0.0,0.0,0.0,0.0,0.0,0.0,0.0,0.0,0.0,0.0,0.0,0.0,0.0,0.0,6.08,6.08,6.08,6.08,6.08,6.08,6.0742,6.0704,6.0704,5.9838,0.0,0.0,0.0,0.0,0.0,0.0,0.0,0.0,0.0,0.0,0.0,0.0,0.0,0.0,0.0,0.0,0.0,0.0,0.0,0.0,0.0,0.0,0.0,0.0,0.0,0.0,0.0,0.0,0.0,0.0,0.0,0.0,0.0,0.0,0.0,0.0,0.0,0.0,0.0,0.0,0.0,0.0,0.0,0.0,0.0,0.0,0.0,0.0,0.0,0.0,0.0,0.0,0.0,0.0,0.0,0.0,0.0,0.0,0.0,0.0,0.0,0.0,0.0,0.0,0.0,0.0,0.0,0.0,0.0,0.0,0.0,0.0,0.0,0.0,0.0,0.0,0.0,0.0,0.0,0.0,0.0,0.0,0.0,0.0,0.0,0.0,0.0,0.0,0.0,0.0,0.0,0.0,0.0,0.0,0.0,0.0,0.0,0.0,0.0,0.0,0.0,0.0,6.08,6.08,0.0,6.08,6.08,6.08,6.08,6.08,6.08,0.0,0.0,0.0,0.0,0.0,0.0,0.0,0.0,0.0,0.0,0.0,0.0,0.0,0.0,0.0,0.0,0.0,0.0,0.0,0.0,0.0,0.0,0.0,0.0,0.0,0.0,0.0,0.0,0.0,0.0,0.0,0.0,0.0,0.0,0.0,0.0,0.0,0.0,0.0,0.0,0.0,0.0,0.0,0.0,0.0,0.0,0.0,0.0,0.0,0.0,0.0,0.0,0.0,0.0,0.0,0.0,0.0,0.0,0.0,0.0,0.0,0.0,0.0,0.0,0.0,0.0,0.0,0.0,0.0,0.0,0.0,0.0,0.0,0.0,0.0,0.0,0.0,0.0,0.0,0.0,0.0,0.0,0.0,0.0,0.0,0.0,0.0,0.0,0.0,0.0,0.0,0.0,0.0,0.0,0.0,0.0,0.0,0.0,0.0,0.0,0.0,0.0,6.08,6.08,6.08,0.0,6.08,6.08,6.08,6.08,6.08,6.08,0.0,0.0,0.0,0.0,0.0,0.0,0.0,0.0,0.0,0.0,0.0,0.0,0.0,0.0,0.0,0.0,0.0,0.0,0.0,0.0,0.0,0.0,0.0,0.0,0.0,0.0,0.0,0.0,0.0,0.0,0.0,0.0,0.0,0.0,0.0,0.0,0.0,0.0,0.0,0.0,0.0,0.0,0.0,0.0,0.0,0.0,0.0,0.0,0.0,0.0,0.0,0.0,0.0,0.0,0.0,0.0,0.0,0.0,0.0,0.0,0.0,0.0,0.0,0.0,0.0,0.0,0.0,0.0,0.0,0.0,0.0,0.0,0.0,0.0,0.0,0.0,0.0,0.0,0.0,0.0,0.0,0.0,0.0,0.0,0.0,0.0,0.0,0.0,0.0,0.0,0.0,0.0,0.0,0.0,0.0,0.0,0.0,0.0,0.0,0.0,0.0,0.0,6.08,6.08,6.08,6.08,6.08,6.08,6.08,6.08,6.08,0.0,0.0,0.0,0.0,0.0,0.0,0.0,0.0,0.0,0.0,0.0,0.0,0.0,0.0,0.0,0.0,0.0,0.0,0.0,0.0,0.0,0.0,0.0,0.0,0.0,0.0,0.0,0.0,0.0,0.0,0.0,0.0,0.0,0.0,0.0,0.0,0.0,0.0,0.0,0.0,0.0,0.0,0.0,0.0,0.0,0.0,0.0,0.0,0.0,0.0,0.0,0.0,0.0,0.0,0.0,0.0,0.0,0.0,0.0,0.0,0.0,0.0,0.0,0.0,0.0,0.0,0.0,0.0,0.0,0.0,0.0,0.0,0.0,0.0,0.0,0.0,0.0,0.0,0.0,0.0,0.0,0.0,0.0,0.0,0.0,0.0,0.0,0.0,0.0,0.0,0.0,0.0,0.0,0.0,0.0,0.0,0.0,0.0,0.0,0.0,0.0,0.0,0.0,6.08,6.08,6.08,6.08,6.08,6.08,6.08,6.08,6.08,6.08,0.0,0.0,0.0,0.0,0.0,0.0,0.0,0.0,0.0,0.0,0.0,0.0,0.0,0.0,0.0,0.0,0.0,0.0,0.0,0.0,0.0,0.0,0.0,0.0,0.0,0.0,0.0,0.0,0.0,0.0,0.0,0.0,0.0,0.0,0.0,0.0,0.0,0.0,0.0,0.0,0.0,0.0,0.0,0.0,0.0,0.0,0.0,0.0,0.0,0.0,0.0,0.0,0.0,0.0,0.0,0.0,0.0,0.0,0.0,0.0,0.0,0.0,0.0,0.0,0.0,0.0,0.0,0.0,0.0,0.0,0.0,0.0,0.0,0.0,0.0,0.0,0.0,0.0,0.0,0.0,0.0,0.0,0.0,0.0,0.0,0.0,0.0,0.0,0.0,0.0,0.0,0.0,0.0,0.0,0.0,0.0,0.0,0.0,0.0,0.0,0.0,0.0,6.08,6.08,6.08,6.08,6.08,6.08,6.08,6.08,6.08,6.08,0.0,0.0,0.0,0.0,0.0,0.0,0.0,0.0,0.0,0.0,0.0,0.0,0.0,0.0,0.0,0.0,0.0,0.0,0.0,0.0,0.0,0.0,0.0,0.0,0.0,0.0,0.0,0.0,0.0,0.0,0.0,0.0,0.0,0.0,0.0,0.0,0.0,0.0,0.0,0.0,0.0,0.0,0.0,0.0,0.0,0.0,0.0,0.0,0.0,0.0,0.0,0.0,0.0,0.0,0.0,0.0,0.0,0.0,0.0,0.0,0.0,0.0,0.0,0.0,0.0,0.0,0.0,0.0,0.0,0.0,0.0,0.0,0.0,0.0,0.0,0.0,0.0,0.0,0.0,0.0,0.0,0.0,0.0,0.0,0.0,0.0,0.0,0.0,0.0,0.0,0.0,0.0,0.0,0.0,0.0,0.0,0.0,0.0,0.0,0.0,0.0,0.0,6.08,6.08,6.08,6.08,6.08,6.08,6.08,6.08,6.08,6.08,0.0,0.0,0.0,0.0,0.0,0.0,0.0,0.0,0.0,0.0,0.0,0.0,0.0,0.0,0.0,0.0,0.0,0.0,0.0,0.0,0.0,0.0,0.0,0.0,0.0,0.0,0.0,0.0,0.0,0.0,0.0,0.0,0.0,0.0,0.0,0.0,0.0,0.0,0.0,0.0,0.0,0.0,0.0,0.0,0.0,0.0,0.0,0.0,0.0,0.0,0.0,0.0,0.0,0.0,0.0,0.0,0.0,0.0,0.0,0.0,5.9855,0.0,0.0,0.0,0.0,0.0,0.0,0.0,0.0,0.0,0.0,0.0,0.0,0.0,0.0,0.0,0.0,0.0,0.0,0.0,0.0,0.0,0.0,0.0,0.0,0.0,0.0,0.0,0.0,0.0,0.0,0.0,0.0,0.0,0.0,0.0,0.0,0.0,0.0,0.0,0.0,0.0,6.08,6.08,6.08,6.08,6.08,6.08,6.08,6.08,6.08,6.08,6.0896,0.0,0.0,0.0,0.0,0.0,0.0,0.0,0.0,0.0,0.0,0.0,0.0,0.0,0.0,0.0,0.0,0.0,0.0,0.0,0.0,0.0,0.0,0.0,0.0,0.0,0.0,0.0,0.0,0.0,0.0,0.0,0.0,0.0,0.0,0.0,0.0,0.0,0.0,0.0,0.0,0.0,0.0,0.0,0.0,0.0,0.0,0.0,0.0,0.0,0.0,0.0,0.0,0.0,0.0,0.0,0.0,0.0,0.0,0.0,0.0,5.9611,0.0,0.0,0.0,0.0,0.0,0.0,0.0,0.0,0.0,0.0,0.0,0.0,0.0,0.0,0.0,0.0,0.0,0.0,0.0,0.0,0.0,0.0,0.0,0.0,0.0,0.0,0.0,0.0,0.0,0.0,0.0,0.0,0.0,0.0,0.0,0.0,0.0,0.0,0.0,0.0,6.1993,6.1993,6.1993,6.1993,6.1993,6.1839,6.1454,6.1416,6.1262,6.0916,6.0954,0.0,0.0,0.0,0.0,0.0,0.0,0.0,0.0,0.0,0.0,0.0,0.0,0.0,0.0,0.0,0.0,0.0,0.0,0.0,0.0,0.0,0.0,0.0,0.0,0.0,0.0,0.0,0.0,0.0,0.0,0.0,0.0,0.0,0.0,0.0,0.0,0.0,0.0,0.0,0.0,0.0,0.0,0.0,0.0,0.0,0.0,0.0,0.0,0.0,0.0,0.0,0.0,0.0,5.9937,5.9685,5.9581,5.9196,5.8905,5.8735,5.9545,5.9611,5.9121,0.0,0.0,0.0,0.0,0.0,0.0,0.0,0.0,0.0,0.0,0.0,0.0,0.0,0.0,0.0,0.0,0.0,0.0,0.0,0.0,0.0,0.0,0.0,0.0,0.0,5.7997,5.7997,0.0,0.0,0.0,0.0,0.0,0.0,0.0,0.0,0.0,0.0,0.0,0.0,6.3301,6.3301,6.3301,6.3301,6.3301,6.3031,6.2358,6.23,6.1993,6.1262,6.126,6.1272,0.0,0.0,0.0,0.0,0.0,0.0,0.0,0.0,0.0,0.0,0.0,0.0,0.0,0.0,0.0,0.0,0.0,0.0,0.0,0.0,0.0,0.0,0.0,0.0,0.0,0.0,0.0,0.0,0.0,0.0,0.0,0.0,5.6528,5.6638,0.0,0.0,0.0,0.0,0.0,0.0,0.0,0.0,0.0,0.0,0.0,0.0,0.0,6.0132,6.0189,6.0132,6.0465,6.1141,6.1081,6.0842,6.0448,6.0376,5.976,5.8694,5.8835,0.0,5.8168,5.8097,0.0,0.0,0.0,0.0,0.0,0.0,0.0,0.0,0.0,0.0,0.0,0.0,0.0,0.0,0.0,0.0,0.0,0.0,0.0,0.0,0.0,0.0,5.7997,5.7997,5.7997,5.7997,0.0,5.8024,5.8238,5.8694,5.9777,0.0,0.0,0.0,0.0,0.0,0.0,0.0,6.3301,6.3301,6.3301,6.3301,6.3301,6.3262,6.3147,6.3147,6.2858,6.2166,6.2233,6.2011,6.1328,6.1517,0.0,0.0,0.0,0.0,0.0,0.0,0.0,0.0,0.0,0.0,0.0,0.0,0.0,0.0,0.0,0.0,0.0,0.0,0.0,0.0,0.0,0.0,0.0,0.0,0.0,0.0,0.0,0.0,0.0,5.6748,5.7464,5.7464,5.7795,5.807,0.0,0.0,0.0,0.0,0.0,0.0,0.0,0.0,0.0,6.0378,6.0575,6.0785,6.106,6.0785,6.0866,6.1187,6.0939,6.0677,6.0505,6.0505,6.0191,5.963,5.963,5.9532,5.9281,5.8364,5.7997,5.7997,0.0,0.0,0.0,0.0,5.7997,5.7997,5.7997,5.7997,0.0,5.7997,0.0,0.0,0.0,0.0,0.0,0.0,0.0,0.0,0.0,0.0,5.7997,5.7997,5.8345,5.8676,5.8676,5.9043,5.943,0.0,6.0891,6.1926,6.2383,0.0,0.0,0.0,0.0,6.4762,6.4762,6.4762,6.4762,6.4762,6.4762,6.457,6.407,6.4032,6.3782,6.3185,6.2729,6.2435,6.2257,6.1909,6.1662,0.0,0.0,0.0,0.0,0.0,0.0,0.0,0.0,0.0,0.0,0.0,0.0,0.0,0.0,0.0,0.0,0.0,0.0,0.0,0.0,0.0,0.0,0.0,0.0,0.0,0.0,0.0,0.0,5.7611,5.7997,5.7997,5.7997,5.7997,0.0,0.0,0.0,0.0,0.0,0.0,5.9309,5.9864,6.0407,6.0883,6.1145,6.1464,6.1788,6.1464,6.1311,6.1409,6.1043,6.0819,6.0713,6.0713,6.0584,6.0401,6.0401,6.0401,6.0309,5.9116,5.8492,5.8309,5.8309,5.818,5.7997,5.7997,5.7997,5.7997,5.7997,5.7997,5.7997,5.7997,0.0,5.7997,5.7997,0.0,0.0,0.0,0.0,5.8052,5.8253,5.8309,5.8364,5.8565,5.9079,5.952,5.952,6.0144,6.0729,0.0,6.1845,6.2895,6.3345,0.0,0.0,0.0,0.0,6.5897,6.5897,6.5897,6.5897,6.5897,6.5897,6.5628,6.4993,6.4936,6.4705,6.4166,6.3524,6.3124,6.3008,6.2383,6.1933,6.1699,0.0,0.0,0.0,0.0,0.0,0.0,0.0,0.0,0.0,0.0,0.0,0.0,0.0,0.0,0.0,0.0,0.0,0.0,0.0,0.0,0.0,0.0,0.0,0.0,0.0,0.0,0.0,0.0,0.0,5.7997,5.7997,0.0,0.0,0.0,0.0,5.9098,5.9153,5.9688,6.0883,6.1018,6.1248,6.1712,6.1769,6.1788,6.1788,6.1788,6.1917,6.2247,6.2203,6.1974,6.1539,6.1539,6.1117,6.0401,6.0401,6.0401,6.0401,6.0309,5.9832,5.9153,5.9153,5.8676,5.7997,5.7997,5.7997,5.7997,5.7997,5.7997,5.7997,5.7997,5.7997,5.7997,5.7997,5.7997,0.0,0.0,5.7997,5.818,5.8951,5.9153,5.9336,6.0107,6.0309,6.0346,6.0346,6.097,6.1456,0.0,6.2163,6.3227,6.3683,0.0,6.582,6.582,6.5859,6.5897,6.5897,6.5897,6.5897,6.5897,6.5897,6.5878,6.584,6.582,6.5609,6.5064,6.4981,6.4382,6.3047,6.2969,6.2558,6.1719,6.1699,0.0,0.0,0.0,0.0,0.0,0.0,0.0,0.0,0.0,0.0,0.0,0.0,0.0,0.0,0.0,0.0,0.0,0.0,0.0,0.0,0.0,0.0,0.0,0.0,0.0,0.0,0.0,0.0,5.7997,5.7997,0.0,5.8731,5.8786,5.9116,5.9924,5.9979,6.0184,6.061,6.1154,6.1505,6.1649,6.2149,6.2446,6.2446,6.2446,6.2503,6.2649,6.2649,6.2523,6.2383,6.2383,6.2236,6.1942,6.1942,6.1942,6.1942,6.1942,6.1172,5.9979,5.9979,5.9813,5.9538,5.9538,5.9538,5.9538,5.9538,5.9538,5.9538,5.9538,5.9538,5.9538,5.9538,5.9538,5.9538,5.9538,5.9538,5.9612,5.9905,5.9979,6.0052,6.0346,6.0805,6.1172,6.1172,6.1796,6.2341,6.2232,6.3135,6.41,6.4559,6.5331,6.5897,6.5897,6.5897,6.5897,6.5897,6.5897,6.5897,6.5897,6.5897,6.5897,6.5897,6.5897,6.5897,6.5936,6.5424,6.4714,6.3867,6.3301,6.2598,6.1719,6.1699,6.1699,0.0,0.0,0.0,0.0,0.0,0.0,0.0,0.0,0.0,0.0,0.0,0.0,0.0,0.0,0.0,0.0,0.0,0.0,0.0,0.0,0.0,0.0,0.0,0.0,0.0,0.0,5.8107,5.8382,5.84,5.8731,5.9538,5.9612,5.9942,6.075,6.0805,6.0915,6.1208,6.1722,6.1998,6.1998,6.253,6.2805,6.2805,6.2805,6.2805,6.2805,6.2805,6.2805,6.2805,6.2805,6.2805,6.2805,6.2805,6.2805,6.2805,6.2805,6.2181,6.119,6.0915,6.0639,6.0401,6.0401,6.0401,6.0401,6.0401,6.0401,6.0401,6.0401,6.0401,6.0401,6.0401,6.0401,6.0401,6.0401,6.0401,6.0456,6.0731,6.0805,6.0878,6.1153,6.163,6.1998,6.1998,6.242,6.2805,6.2805,6.368,6.45,6.4818,6.5437,6.5994,6.6263,6.607,6.5994,6.6263,6.607,6.5897,6.5897,6.5897,6.5897,6.5897,6.5897,6.6032,6.6384,6.587,6.5307,6.4765,6.418,6.332,6.2168,6.1855,6.1699,6.1699,0.0,0.0,0.0,0.0,0.0,0.0,0.0,0.0,0.0,0.0,0.0,0.0,0.0,0.0,0.0,0.0,0.0,0.0,0.0,0.0,0.0,0.0,0.0,5.8033,5.8033,5.8345,5.9153,5.9263,5.9557,6.0364,6.0438,6.0768,6.1575,6.163,6.1979,6.2768,6.2805,6.2805,6.2805,6.2805,6.2805,6.2805,6.2805,6.2805,6.2805,6.2805,6.2805,6.2805,6.2805,6.2805,6.2805,6.2805,6.2805,6.2805,6.2805,6.2805,6.2732,6.1942,6.1153,6.0474,6.0474,6.0474,6.0474,6.0474,6.0474,6.0426,6.0474,6.0474,6.0426,6.0474,6.0474,6.0474,6.0474,6.0474,6.0658,6.1429,6.163,6.1832,6.2622,6.2805,6.2805,6.2805,6.2805,6.2805,6.2805,6.368,6.4389,6.4389,6.5219,6.6147,6.6936,6.6397,0.0,6.6955,6.6378,6.5897,6.5936,6.5936,6.5936,6.5936,6.5936,6.607,6.6384,6.6394,6.6165,6.5625,6.5605,6.4785,6.3027,6.2148,6.1699,6.1699,0.0,0.0,0.0,0.0,0.0,0.0,0.0,0.0,0.0,0.0,0.0,0.0,0.0,0.0,0.0,0.0,0.0,0.0,0.0,0.0,0.0,0.0,5.8877,5.8877,5.8877,5.9189,5.9979,6.007,6.0401,6.119,6.1263,6.1594,6.242,6.2475,6.2585,6.2805,6.2805,6.2805,6.2805,6.2805,6.2805,6.2805,6.2805,6.2805,6.2805,6.2805,6.2805,6.2805,6.2805,6.2805,6.2805,6.2805,6.2805,6.2805,6.2805,6.2805,6.2787,6.2567,6.2346,6.2144,6.2144,6.2144,6.2144,6.2144,6.1737,6.1369,6.1958,6.1737,6.1369,6.1977,6.2144,6.2144,6.2144,6.2144,6.2199,6.242,6.2475,6.2548,6.2768,6.2805,6.2805,6.2805,6.2805,6.2805,6.2805,6.368,6.4389,6.4389,6.5219,6.5974,6.6205,6.6032,0.0,6.6205,6.6032,6.6109,6.6705,6.6763,6.6763,6.6763,6.6763,6.6647,6.6423,6.6394,6.6165,6.5625,6.5605,6.4785,6.3027,6.2148,6.1699,0.0,0.0,0.0,0.0,0.0,0.0,0.0,0.0,0.0,0.0,0.0,0.0,0.0,0.0,0.0,0.0,0.0,0.0,0.0,0.0,0.0,0.0,5.9722,5.9832,6.0162,5.9924,6.0015,6.0805,6.0896,6.1227,6.2016,6.2108,6.231,6.2768,6.2805,6.2805,6.2805,6.3154,6.3337,6.3337,6.3686,6.387,6.387,6.387,6.387,6.387,6.387,6.387,6.387,6.387,6.387,0.0,6.3503,6.3337,6.3319,6.297,6.2567,0.0,0.0,0.0,0.0,0.0,6.2324,6.2271,6.1915,6.1492,6.1171,6.1659,6.1733,6.1715,6.2148,6.2515,6.2805,6.2805,6.2805,6.2805,6.2805,6.2805,6.2805,6.2805,6.2805,6.2805,6.2805,6.2805,6.2805,6.2805,6.3941,0.0,6.4879,6.5746,6.6532,6.6898,6.6955,6.7071,6.7436,6.7167,6.6994,6.709,6.709,6.6955,6.6628,6.659,0.0,0.0,0.0,6.6321,6.6152,6.5449,0.0,0.0,0.0,6.1699,6.1699,0.0,0.0,0.0,6.1544,6.1151,0.0,0.0,0.0,0.0,0.0,0.0,0.0,0.0,0.0,0.0,0.0,0.0,0.0,0.0,0.0,0.0,6.0548,6.0823,6.1612,6.1117,6.0951,6.1649,6.1741,6.2016,6.275,6.2805,6.286,6.2952,6.297,6.3007,6.3099,0.0,0.0,0.0,0.0,6.5319,6.5319,6.5319,6.5319,6.5319,6.5319,6.5319,6.5319,6.5319,6.5319,6.5264,6.4549,6.4237,6.4163,6.3291,6.2419,6.1656,6.2308,6.2515,6.2446,6.1715,6.1474,6.1361,6.0658,0.0,0.0,6.0476,6.0956,6.1474,6.1659,6.22,6.2805,6.2805,6.2805,6.2805,6.2805,6.2805,6.2805,6.2805,6.2805,6.2805,6.2805,6.2897,6.2952,6.3033,6.4507,6.5747,6.5842,6.6636,6.7513,6.8282,6.8398,6.8686,6.9456,6.8879,6.8148,6.7475,0.0,0.0,6.6244,6.609,6.6128,6.6384,6.6445,6.658,6.6894,6.5234,6.4297,6.4297,6.2598,6.1699,6.1699,6.1674,6.1607,6.1472,6.1462,6.1324,0.0,0.0,0.0,0.0,0.0,0.0,0.0,0.0,0.0,0.0,0.0,0.0,0.0,0.0,0.0,6.1245,6.1374,6.1649,6.2456,6.2438,6.2401,6.2567,6.2585,6.264,6.2787,6.2805,6.3099,6.3796,6.3851,6.4127,6.4787,6.4989,0.0,6.5081,6.5228,6.5319,6.5319,6.5319,6.5319,6.5319,0.0,0.0,6.5319,6.5319,6.5319,6.5301,6.5154,6.5081,6.4992,6.4093,6.2813,6.145,6.101,6.0879,6.0838,6.0718,6.064,6.0598,6.0476,5.996,5.9556,6.092,6.1055,6.0879,6.2148,6.2686,0.0,6.2805,6.2805,6.2805,6.2805,6.2805,6.2805,6.2805,6.2805,6.2805,6.2805,6.3356,6.3965,6.4429,6.5628,6.673,6.7144,6.7735,6.8225,6.8379,6.8398,6.8475,6.8629,6.8513,6.8609,6.9148,6.8571,6.809,6.7936,6.7263,6.6724,6.6423,6.6652,6.6832,6.6894,6.5234,6.4297,6.4297,6.2598,6.1699,6.1699,6.1583,6.1477,6.1342,6.1349,6.1228,0.0,0.0,0.0,0.0,0.0,0.0,0.0,0.0,0.0,0.0,0.0,6.0529,6.0933,0.0,6.1263,6.2071,6.2199,6.2346,6.275,6.2805,6.2805,6.2805,6.2805,6.2989,6.3411,6.3447,6.3796,6.464,6.4695,6.4879,6.5283,6.5687,6.5907,6.5907,6.6292,6.6494,6.6494,6.6494,6.6494,6.6494,6.6494,6.6494,6.6494,6.6494,6.6494,6.6476,6.5588,6.5222,6.5056,6.3377,6.2164,6.1334,6.0564,6.0338,6.0353,5.9896,5.9768,5.9704,5.9279,5.8892,5.8633,5.9509,6.0005,6.0537,6.1379,6.2148,6.2805,6.2805,6.2805,6.2805,6.2805,6.2805,6.2805,6.2805,6.3135,6.3447,6.3447,6.4108,6.4779,6.5053,6.6381,6.7562,6.7787,6.8851,6.9513,6.9109,6.9398,6.9648,6.9648,6.9648,6.9667,6.9706,6.9321,6.8706,6.7821,6.7128,6.6692,6.6519,6.6751,6.6894,6.6894,6.5234,6.4297,6.4297,6.2598,6.1699,6.1699,6.1578,6.1441,6.1307,6.1208,6.105,0.0,0.0,0.0,0.0,0.0,0.0,0.0,0.0,6.0639,6.0639,6.0768,6.1062,6.1704,6.1832,6.2053,6.2695,6.2805,6.2879,6.3044,6.3062,6.3117,6.3282,6.3154,6.3392,6.4237,6.4328,6.4659,6.5485,6.554,6.5613,6.576,6.6384,6.6733,6.6733,6.7357,6.7687,6.7687,6.7687,6.7687,6.7687,6.7687,6.7687,6.7687,6.7687,6.7687,6.7632,6.6051,6.5161,6.4662,6.2645,6.1672,6.1284,6.0602,6.0352,6.0271,5.9405,5.9099,5.8944,5.8188,5.7881,5.7954,5.8065,5.9145,6.0414,6.0598,6.1677,6.2805,6.2805,6.2805,6.286,6.3025,6.3062,6.3099,6.3264,6.3815,6.4328,6.4328,6.4971,6.5573,6.5658,6.7128,6.8392,6.8451,6.984,7.0687,7.0033,7.0475,7.0898,7.0898,7.0898,7.0648,6.9994,6.9783,6.9013,6.7301,6.6695,6.6449,6.6577,6.68,6.6894,6.6894,6.539,6.4473,6.4297,6.2754,6.1852,6.1661,6.1539,6.1398,6.1247,6.1031,6.0896,5.783,5.8405,5.8987,5.9149,5.9812,6.0401,0.0,0.0,6.1465,6.1465,6.2034,6.2567,6.2658,6.2677,6.2713,6.2805,6.2805,6.308,6.3851,6.3943,6.4218,6.4952,6.4383,6.4273,6.5099,6.5173,6.5503,6.6311,6.6366,6.6678,6.7375,6.7504,6.7559,6.7559,6.7632,6.7687,6.7687,6.7687,6.7687,6.7687,6.7687,6.7687,6.7687,6.7687,6.7687,6.7633,6.6685,6.5319,6.385,6.3566,6.2621,6.1299,6.1163,6.0757,6.0024,5.9321,5.901,5.8909,5.8191,5.7881,5.801,5.8737,5.9639,6.0537,6.1247,6.2076,6.2805,6.2805,6.2805,6.2989,6.3741,6.3943,6.4127,6.4861,6.5099,6.5173,6.5173,6.5797,6.6537,6.7001,6.8216,6.9321,6.9785,7.0436,7.086,7.0783,7.0841,7.0898,7.0898,7.0898,7.086,7.0783,7.0129,6.9071,6.7494,6.6786,6.6469,6.6583,6.68,6.6894,6.6894,6.5976,6.5098,6.4316,6.3359,6.2402,6.1522,6.1384,6.1223,6.1012,6.0877,6.08,5.7797,5.8938,5.998,0.0,6.1213,6.1814,6.1814,6.2071,6.231,6.231,6.2585,6.2805,6.2805,6.2805,6.2805,0.0,6.3227,6.3686,6.4035,6.4494,6.5099,6.5907,6.5705,6.5632,6.598,6.5999,6.6329,6.7136,6.7192,6.7338,6.7669,6.7687,6.7687,6.7687,6.7687,6.7687,6.7687,6.7687,6.7687,6.7687,6.7687,6.7687,6.7687,6.7174,6.6368,6.5361,6.4986,6.4113,6.2914,6.2914,6.2549,6.1941,6.1941,6.1721,6.1281,6.008,5.9641,5.9607,5.9285,5.9184,5.9174,5.9047,5.9939,6.1131,6.1497,6.2493,6.3649,6.4127,6.4255,6.4347,6.4695,6.4806,6.4879,6.5228,6.5668,6.5999,6.5999,6.6623,6.7261,6.7465,6.8462,6.9393,6.9588,7.033,7.0898,7.0898,7.0898,7.0898,7.0898,7.0898,7.0898,7.0898,7.0187,6.9302,6.834,6.7557,6.7015,6.6799,6.6852,6.6894,6.6894,6.6055,6.5195,6.4316,6.336,6.2441,6.1497,6.1253,6.1079,6.0993,6.0858,6.0647,5.7712,5.9001,0.0,6.0774,6.1533,6.2219,6.2394,6.2446,6.2515,6.2755,6.2805,6.2805,6.2805,6.3007,6.3172,6.3172,6.387,6.4512,6.4732,6.5264,6.5925,6.6733,6.6824,6.6824,6.6824,6.6824,6.7063,6.765,6.7687,6.7687,6.7687,6.7687,6.7687,6.7687,6.7687,6.7687,6.7687,6.7687,6.7687,6.7687,6.7687,6.7561,6.7304,6.6445,6.5184,6.3719,6.3719,6.3182,6.2381,6.2381,6.2381,6.2381,6.2381,6.2381,6.2245,6.1146,6.0605,6.0402,6.0182,6.0097,6.0013,5.9488,6.0462,6.1866,6.1866,6.308,6.4549,6.5154,6.5319,6.5356,6.5576,6.5632,6.5705,6.5907,6.6402,6.6824,6.6824,6.7283,6.7687,6.7687,6.8586,6.9313,6.9313,7.0181,7.0898,7.0898,7.0898,7.0898,7.0898,7.0898,7.0898,7.0898,7.0206,6.9513,6.8956,6.8141,6.7467,6.6933,6.6894,6.6894,6.6894,6.6289,6.5449,6.4316,6.355,6.2579,6.1439,6.1151,6.0973,6.0935,6.0704,6.0411,5.7887,5.8512,5.9143,5.9143,5.9797,6.0658,6.1474,6.1659,6.1842,6.2636,6.2805,6.2805,6.2805,6.3484,6.4053,6.4053,6.4751,6.554,6.6329,6.6439,6.6751,6.7559,6.765,6.765,0.0,6.765,6.765,6.7687,6.7687,6.7687,6.7687,6.7687,6.7687,6.7687,6.7687,6.7687,6.7687,6.7687,6.7687,6.7687,6.7687,6.7248,6.6404,6.549,6.4546,6.3719,6.3719,6.3182,6.2381,6.2381,6.2381,6.2381,6.2381,6.2381,6.2381,6.233,6.1873,6.1146,6.0368,6.0097,6.0097,6.008,6.1223,6.2645,6.2645,6.3892,6.5283,6.5301,6.5319,6.5485,6.6256,6.6457,6.6659,6.743,6.7632,6.765,6.765,6.7669,6.7687,6.7687,6.8586,6.9313,6.9313,7.0181,7.0898,7.0898,7.0898,7.0898,7.0898,7.0898,7.0898,7.0898,7.0283,6.9629,6.896,6.827,6.7616,6.6932,6.6894,6.6894,6.6894,6.6875,6.6055,6.4336,6.4148,6.3141,6.1324,6.1112,6.0916,6.08,6.0338,6.0132,5.8564,5.8857,5.9245,5.9832,6.0149,6.0476,6.076,6.1247,6.1659,6.1969,6.2902,6.3668,6.3668,6.4347,6.4897,6.4897,6.5576,6.62,6.6457,6.6953,6.7393,6.765,6.7687,0.0,0.0,0.0,0.0,6.7687,6.7687,6.7687,6.7687,6.7687,6.7687,6.7687,6.7687,6.7433,6.6852,6.6852,6.6505,6.593,6.593,6.5426,6.4581,6.4306,6.3629,6.2855,6.2855,6.2659,6.2381,6.2381,6.2381,6.2381,6.2381,6.2381,6.2381,6.2381,6.2229,6.1992,6.1721,6.162,6.1535,6.1061,6.2053,6.3459,6.3459,6.4703,6.6219,6.6733,6.688,6.6953,6.7228,6.7283,6.7357,6.7632,6.7687,6.7687,6.7687,6.7687,6.7687,6.7687,6.8586,6.9313,6.9313,7.0181,7.0898,7.0898,7.0898,7.0898,7.0898,7.0898,7.0898,7.0898,7.0802,7.0271,6.9014,6.8814,6.8239,6.697,6.6894,6.6894,6.6894,6.6894,6.6034,6.4206,6.3996,6.2991,6.1112,6.0935,6.0839,6.08,6.0311,5.9916,5.8494,5.8686,5.8823,5.9346,5.9543,5.9591,5.9896,6.0318,6.0873,6.1472,6.2452,6.3275,6.351,6.4457,6.5259,6.5259,6.6206,6.6916,6.6916,6.7357,6.7687,6.7687,6.7687,6.7687,0.0,0.0,0.0,6.7687,6.7687,6.7687,6.7687,6.7687,6.7561,6.723,6.723,6.6834,6.5904,6.5904,6.5635,6.4999,6.4665,6.4218,6.3719,6.3388,6.2914,6.2381,6.2381,6.2381,6.2381,6.2381,6.2381,6.2381,6.2381,6.2381,6.2381,6.2381,6.2381,6.2381,6.2381,6.2381,6.2313,6.1839,6.2848,6.4273,6.4273,6.5532,6.7026,6.754,6.7687,6.7687,6.7687,6.7687,6.7687,6.7687,6.7687,6.7687,6.7687,6.7687,6.7687,6.7687,6.8586,6.9313,6.9313,7.0181,7.0898,7.0898,7.0898,7.0898,7.0898,7.0898,7.0898,7.0898,7.0879,7.0324,6.9017,6.8862,6.83,6.6972,6.6894,6.6894,6.6894,6.6823,6.5939,6.4151,6.3864,6.2819,6.0993,6.0858,6.08,6.0781,6.0132,5.9677,5.7881,5.7881,5.7881,5.7881,5.7881,5.8065,5.8857,5.9078,5.9572,6.1136,6.1538,6.1821,0.0,0.0,6.5177,6.5177,6.6571,6.7687,6.7687,6.7687,6.7687,0.0,0.0,0.0,0.0,0.0,0.0,6.7687,0.0,6.7687,6.7633,6.7615,6.723,6.6325,6.6325,6.5904,6.4933,6.4866,6.4866,6.4866,6.4042,6.3647,6.3574,6.2796,6.2381,6.2381,6.2381,6.2381,6.2381,6.2381,6.2381,6.2381,6.2381,6.2381,6.2381,6.2381,6.2381,6.2381,6.2381,6.2381,6.2381,6.2459,6.3647,6.4999,6.5065,6.6271,6.7687,6.7687,6.7687,6.7687,6.7687,6.7687,6.7687,6.7687,6.7687,6.7687,6.7687,6.7687,6.7687,6.7741,6.8632,6.9353,6.9393,7.0233,7.0898,7.0898,7.0898,7.0898,7.0898,7.0898,7.0898,7.0898,7.0494,6.9861,6.8978,6.8474,6.7832,6.6953,6.6894,6.6894,6.6894,6.6714,6.5813,6.4128,6.3753,6.2728,6.0973,6.0858,6.08,6.0757,5.9823,5.9408,5.7881,5.7881,5.7881,5.7881,5.7881,5.7954,5.8137,5.9132,6.0114,6.0508,6.2033,6.3253,0.0,0.0,0.0,6.6079,6.6972,0.0,6.7687,6.7687,0.0,6.7687,0.0,6.7687,6.7687,6.7687,0.0,0.0,6.7687,6.7433,6.6776,6.6718,6.6307,6.5426,6.5344,6.4951,6.4042,6.3371,6.3049,6.3049,6.2855,6.2719,6.2719,6.252,6.2381,6.2381,6.2381,6.2381,6.2381,6.2381,6.2381,6.2381,6.2381,6.2381,6.2381,6.2381,6.2381,6.2381,6.2381,6.2381,6.252,6.3199,6.4096,6.5131,6.5842,6.6834,6.7687,6.7687,6.7687,6.7687,6.7687,6.7687,6.7687,6.7687,6.7687,6.7687,6.7687,6.7687,6.781,6.8229,6.9171,7.0007,7.0413,7.07,7.0898,7.0898,7.0898,7.0898,7.0898,7.0898,7.0898,7.0898,7.0494,6.9861,6.8978,6.8474,6.7832,6.6953,6.6894,6.6894,6.6894,6.6714,6.573,6.3902,6.3671,6.269,6.0839,6.0819,6.0622,6.0264,5.9677,5.9212,5.7881,5.7881,5.7881,5.7881,5.8135,5.8389,5.8389,5.9336,6.0313,6.0673,6.1809,6.2804,6.3134,6.4601,6.5779,0.0,0.0,0.0,6.7687,6.7687,6.7687,0.0,6.7687,0.0,6.7687,6.7687,6.7687,0.0,6.7687,6.7304,6.6464,6.6404,6.5779,6.4495,6.4427,6.4025,6.3124,6.2659,6.2381,6.2381,6.2381,6.2381,6.2381,6.2381,6.2381,6.2381,0.0,6.2381,6.2381,6.2381,6.2381,6.2381,6.2381,6.2381,6.2381,6.2381,6.2381,6.2381,6.2381,6.2381,6.252,6.3388,6.4288,6.5214,6.6125,6.7043,6.7687,6.7687,6.7687,6.7687,6.7687,6.7687,6.7687,6.7687,6.7687,6.7687,6.7687,6.7687,6.793,6.8705,6.9531,7.0247,7.0824,7.0898,7.0898,7.0898,7.0898,7.0898,7.0898,7.0898,7.0802,7.0494,6.9967,6.931,6.8529,6.7961,6.7422,6.6933,6.6894,6.6859,6.6769,6.66,6.564,6.3748,6.3556,6.2594,6.08,6.08,6.0553,6.0103,5.9611,5.9158,5.7881,5.7881,5.7898,5.8017,5.8541,5.9049,5.9133,5.9725,6.0469,6.1163,6.1383,6.1637,6.2279,6.3702,6.4866,6.4999,0.0,6.7415,6.7488,6.7415,6.7341,6.7341,6.7433,6.7488,6.7341,6.7469,6.7488,6.7341,6.7341,6.7024,6.6247,6.6125,6.5267,6.3591,6.3518,6.3182,6.2381,6.2381,6.2381,6.2381,6.2381,6.2381,6.2381,6.2381,6.2381,6.2381,6.2381,0.0,6.2381,6.2381,6.2381,6.2381,6.2381,6.2381,6.2381,6.2381,6.2381,6.2381,6.2381,6.2381,6.2598,6.3574,6.434,6.5214,6.6247,6.7099,6.7687,6.7687,6.7687,6.7687,6.7687,6.7687,6.7687,6.7687,6.7687,6.7687,6.7687,6.781,6.8179,6.9106,6.9775,7.0362,7.0824,7.0898,7.0898,7.0898,7.0898,7.0898,7.0898,7.0898,7.0648,6.9967,6.929,6.8616,6.7952,6.7286,6.6894,6.6894,6.6894,6.6803,6.6607,6.6358,6.5405,6.3638,6.3301,6.2377,6.08,6.0734,6.0482,5.9996,5.9545,5.9047,5.7881,5.7881,5.8034,5.866,5.893,5.9167,5.9776,6.052,6.1129,6.1264,6.1772,6.2245,6.2364,6.3257,6.4166,6.4866,6.5261,6.5743,6.6523,6.5948,6.5472,0.0,6.6168,6.6307,6.5536,6.6168,0.0,0.0,0.0,6.5408,6.5279,6.4564,6.3719,6.2659,6.2659,6.252,6.2381,6.2381,6.2381,6.2381,6.2381,6.2381,6.2381,6.2381,6.2381,6.2381,6.2381,0.0,6.2381,6.2381,6.2381,6.2381,6.2381,6.2381,6.2381,6.2381,6.2381,6.2381,6.2381,6.2381,6.2659,6.4288,6.4866,6.5326,6.6949,6.7561,6.7687,6.7687,6.7687,6.7687,6.7687,6.7687,6.7687,6.7687,6.7687,6.7687,6.7687,6.8387,6.9064,6.9272,7.0095,7.0777,7.0898,7.0898,7.0898,7.0898,7.0898,7.0898,7.0898,7.0898,7.0648,6.9967,6.9302,6.8626,6.7968,6.7286,6.6894,6.6894,6.6894,6.6803,6.6607,6.5793,6.4771,6.3638,6.2767,6.18,6.08,6.0411,5.9996,5.9492,5.9047,5.8549,5.7881,5.8169,5.8558,5.893,5.9607,6.03,6.0639,6.1315,6.1873,6.1873,6.2144,6.2381,6.2381,6.3124,6.3846,6.4236,6.4665,6.5148,6.5617,6.5279,6.4999,6.4999,6.5426,6.549,0.0,6.5426,0.0,0.0,0.0,6.4288,6.4288,6.3518,6.2855,6.2381,6.2381,6.2381,6.2381,6.2381,6.2381,6.2381,6.2381,6.2381,6.2381,6.2381,6.2381,6.2381,6.2381,0.0,6.2381,6.2381,6.2381,6.2381,6.2381,6.2381,6.2381,6.2381,6.2381,6.2459,6.2914,6.3049,6.3388,6.5166,6.5408,6.5326,6.7137,6.7687,6.7687,6.7687,6.7687,6.7687,6.7687,6.7687,6.7687,6.7687,6.7687,6.7776,6.8065,6.875,6.9374,6.9664,7.035,7.0898,7.0898,7.0898,7.0898,7.0898,7.0898,7.0783,7.0409,7.0371,7.0121,6.944,6.8776,6.8122,6.7431,6.7088,6.6894,6.6894,6.6806,6.666,6.6515,6.5515,6.446,6.3479,6.2551,6.1666,6.08,6.0338,5.9855,5.9389,5.8913,5.8233,5.7881,5.844,5.9049,5.9218,6.0283,6.1349,6.1501,6.1975,6.2381,6.2381,6.2381,6.2381,6.2381,6.299,6.3444,6.3647,6.4096,6.4478,6.4682,6.4546,6.4409,6.4409,6.4614,0.0,6.4478,6.4614,0.0,0.0,0.0,0.0,6.3444,6.2796,6.2381,6.2381,6.2381,6.2381,6.2381,6.2381,6.2381,6.2381,6.2381,6.2381,6.2381,6.2381,6.2381,6.2381,6.2381,0.0,0.0,6.2381,6.2381,6.2381,6.2381,6.2381,6.2381,6.2381,6.252,6.2796,6.3444,6.3846,6.4236,6.586,6.5904,6.5617,6.7212,6.7687,6.7687,6.7687,6.7687,6.7687,6.7687,6.7687,6.7687,6.7687,6.7776,6.7963,6.8416,6.9021,6.9588,7.0007,7.0524,7.0898,7.0898,7.0898,7.0898,7.0898,7.0744,7.0475,6.9967,6.9618,6.9213,6.8729,6.8221,6.7639,6.6969,6.6894,6.6894,6.6894,6.671,6.6541,6.6415,6.5194,6.4152,6.332,6.232,6.143,6.0647,6.0161,5.9709,5.9231,5.8775,5.7968,5.7881,5.844,5.9167,5.9827,6.0655,6.1484,6.2144,6.233,6.2381,6.2381,6.2381,6.2381,6.2381,6.2459,6.2796,6.3591,6.3124,6.2914,6.3719,6.3107,6.2659,6.2659,0.0,0.0,6.2719,6.3371,0.0,0.0,0.0,0.0,6.252,6.2459,6.2381,6.2381,6.2381,6.2381,6.2381,6.2381,6.2381,6.2381,6.2381,6.2381,6.2381,6.2381,6.2381,6.2381,6.2381,0.0,0.0,6.2381,6.2381,6.2381,6.2381,6.2381,6.2381,6.2381,6.2914,6.3574,6.3647,6.4236,6.5083,6.6046,6.6325,6.6445,6.7415,6.7687,6.7687,6.7687,6.7687,6.7687,6.7687,6.7687,6.7687,6.7687,6.8047,6.8416,6.8511,6.9294,7.0042,7.0095,7.0524,7.0898,7.0898,7.0898,7.0898,7.0898,7.0283,6.984,6.989,6.8684,6.785,6.7968,6.7952,6.7639,6.6969,6.6894,6.6894,6.6894,6.671,6.6544,6.6401,6.4658,6.3575,6.332,6.1723,6.0674,6.0161,5.9709,5.9212,5.8775,5.8282,5.7642,5.7881,5.8761,5.9742,6.003,6.1028,6.2026,6.2313,6.2381,6.2381,6.2381,6.2381,6.2381,6.2381,6.2381,6.252,6.2855,6.2659,6.252,6.2855,6.2581,6.2381,6.2381,6.2719,0.0,0.0,0.0,0.0,0.0,0.0,0.0,6.2381,6.2381,6.2381,6.2381,6.2381,6.2381,6.2381,6.2381,6.2381,6.2381,6.2381,6.2381,6.2381,6.2381,6.2381,6.2381,6.2381,0.0,0.0,6.2381,6.2381,6.2381,6.2381,6.2719,6.3182,6.3182,6.3702,6.4546,6.5118,6.5572,6.5966,6.6892,6.7174,6.723,6.7615,6.7687,6.7687,6.7687,6.7687,6.7687,6.7687,6.7687,6.7687,6.7687,6.8097,6.8586,6.891,6.9569,7.0214,7.0524,7.0748,7.0744,7.0264,7.0187,6.9994,6.9475,6.9206,6.889,6.8564,6.8092,6.7653,6.7338,6.7304,6.7185,6.6913,6.6894,6.6844,6.6733,6.6564,6.6399,6.623,6.4416,6.3378,6.3301,6.1647,6.0578,6.0103,5.9644,5.9158,5.8694,5.8213,5.7333,5.7881,5.8981,6.0097,6.0097,6.1264,6.2381,6.2381,6.2381,6.2381,6.2381,6.2381,6.2381,6.2381,6.2381,6.2381,6.2381,6.2381,6.2381,6.2381,6.2381,6.2381,6.2381,0.0,6.2381,0.0,0.0,0.0,0.0,0.0,0.0,6.2381,6.2381,6.2381,6.2381,6.2381,6.2381,6.2381,6.2381,6.2381,6.2381,6.2381,6.2381,6.2381,6.2381,6.2381,6.2381,6.2381,0.0,0.0,6.2381,6.252,6.2779,6.2779,6.3314,6.4096,6.4096,6.4632,6.549,6.6186,6.6582,6.6874,6.7213,6.7338,6.7283,6.7063,6.7155,6.7338,6.7338,6.7155,6.699,6.699,6.699,6.7024,6.716,6.7614,6.8135,6.8696,6.9214,6.9716,7.0094,7.0167,6.9975,6.9417,6.9321,6.9129,6.8552,6.8359,6.8102,6.773,6.7595,6.7339,6.6941,6.69,6.6894,6.6894,6.6844,6.6737,6.6607,6.6419,6.6245,6.6115,6.4301,6.3301,6.3301,6.1511,6.0365,5.9885,5.9424,5.8933,5.8503,5.8123,5.718,5.7881,5.8981,6.0097,6.0097,6.1264,6.2381,6.2381,6.2381,6.2381,6.2381,6.2381,6.2381,6.2381,6.2381,6.2381,6.2381,6.2381,6.2381,6.2381,6.2381,6.2381,0.0,0.0,6.2381,6.2381,6.2381,0.0,0.0,0.0,0.0,6.2381,6.2381,6.2381,6.2381,6.2381,6.2381,6.2381,6.2381,6.2381,6.2381,6.2381,6.2381,6.2381,6.2381,6.2381,0.0,0.0,0.0,0.0,6.2381,6.2931,6.3719,6.3719,6.4236,6.4999,6.4999,6.5554,6.6404,6.6404,6.6967,6.7559,6.6769,6.6512,6.6366,6.5576,6.5888,6.6512,6.6512,6.5944,6.5338,6.5338,6.5338,6.5437,6.5905,6.6435,6.6938,6.7483,6.8042,6.8436,6.8436,6.8436,6.8417,6.8417,6.8417,6.8475,6.8564,6.7936,6.7525,6.7856,6.7141,6.669,6.6887,6.6894,6.6894,6.6894,6.6722,6.6602,6.6596,6.6288,6.6115,6.609,6.4301,6.3301,6.3301,6.1199,5.9885,5.9408,5.8951,5.8461,5.7997,5.7997,5.718,5.7881,5.8981,6.0097,6.0097,6.1264,6.2381,6.2381,6.2381,6.2381,6.2381,6.2381,6.2381,6.2381,6.2381,6.2381,6.2381,6.2381,6.2381,6.2381,6.2381,6.2381,6.2381,6.2381,6.2381,0.0,0.0,0.0,0.0,0.0,0.0,6.2381,6.2381,6.2381,6.2381,6.2381,6.2381,6.2381,6.2381,6.2381,6.2381,6.2381,6.2381,6.2381,6.2381,6.2381,0.0,0.0,0.0,0.0,6.3049,6.3444,6.3774,6.4357,6.5166,6.5984,6.5984,6.6505,6.7304,6.7304,6.714,6.6843,6.6586,6.6127,6.5632,6.5393,6.5485,6.5687,6.5687,6.5503,6.5319,6.5319,6.5514,6.5811,6.5942,6.6704,6.7376,6.755,6.8023,6.8398,6.8398,6.8398,6.8225,6.7609,6.7628,6.7532,6.6974,6.6859,6.6878,6.7013,6.6897,6.6837,6.6894,6.6894,6.6894,6.6894,6.6726,6.6558,6.6481,6.625,6.6051,6.5955,6.4243,6.3162,6.2844,6.102,5.9709,5.8913,5.8756,5.8461,5.7978,5.6909,5.6169,5.7881,5.8981,6.0097,6.0097,6.1264,6.2381,6.2381,6.2381,6.2381,6.2381,6.2381,6.2381,6.2381,6.2381,6.2381,6.2381,6.2381,6.2381,6.2381,6.2381,0.0,6.2381,0.0,0.0,0.0,0.0,0.0,0.0,0.0,0.0,6.2381,6.2381,6.2381,6.2381,6.2381,6.2381,6.2381,6.2381,6.2381,6.2381,6.2381,6.2381,6.2381,6.2381,6.2381,0.0,0.0,0.0,0.0,6.3829,6.4375,6.4785,6.5297,6.6107,6.691,6.691,6.723,6.765,6.7338,6.6916,6.6402,6.5778,6.5026,6.4365,6.4365,6.4604,6.4787,6.4457,6.448,6.466,6.466,6.5022,6.5432,6.5602,6.616,6.6714,6.6908,6.7236,6.7455,6.7455,6.7455,6.7282,6.6744,6.6782,6.6742,6.6279,6.6433,6.663,6.6697,6.6824,6.6894,6.6894,6.6823,6.679,6.679,6.6636,6.6447,6.6288,6.6109,6.584,6.5436,6.4051,6.2938,6.2154,6.062,5.9458,5.8694,5.8526,5.8282,5.7932,5.6403,5.5706,0.0,5.893,6.003,6.008,6.1214,6.233,6.2381,6.2381,0.0,6.2381,6.2381,6.2381,6.2381,6.2381,6.2381,6.2381,6.2381,6.2381,0.0,6.2381,0.0,0.0,6.2381,0.0,0.0,0.0,0.0,0.0,0.0,0.0,6.2381,6.2381,6.2381,6.2381,6.2381,6.2381,6.2381,6.2381,6.2381,6.2381,6.2381,6.2381,6.2381,6.2381,6.2459,0.0,0.0,0.0,0.0,6.475,6.5617,6.6404,6.6464,6.6985,6.7687,6.7687,6.765,6.7504,6.6751,6.6421,6.6072,6.4512,6.3466,6.2805,6.2805,6.3374,6.3833,6.3044,6.3168,6.3524,6.3568,6.3997,6.4537,6.4984,6.513,6.5291,6.5781,6.5897,6.5897,6.5897,6.5897,6.5897,6.5897,6.6032,6.619,6.6383,6.6535,6.6687,6.6889,6.6894,6.6894,6.6894,6.6722,6.6596,6.6596,6.6455,6.6312,6.6121,6.5955,6.5493,6.4603,6.3693,6.2636,6.1321,5.9961,5.9084,5.8673,5.8213,5.7997,5.7886,5.6403,5.5649,5.7881,0.0,5.9404,5.9962,6.0842,6.1704,0.0,6.2381,6.2381,6.2381,6.2381,6.2381,6.2381,6.2381,6.2381,0.0,0.0,6.2381,6.2381,6.2381,0.0,6.2381,6.2381,0.0,0.0,0.0,0.0,0.0,0.0,6.2381,6.2381,6.2381,6.2381,6.2381,6.2381,6.2381,6.2381,6.2381,6.2381,6.2381,6.2381,6.2381,6.2381,6.2381,6.2796,0.0,0.0,0.0,6.475,6.5698,6.6186,6.6464,6.7099,6.7488,6.7687,6.7687,6.7302,6.6751,6.6568,6.5687,6.4475,6.3447,6.2989,6.2805,6.2805,6.2952,6.3062,6.2879,6.2886,6.3091,6.3479,6.3997,6.4537,6.4984,6.5417,6.5736,6.5853,6.5897,6.5897,6.5897,6.5897,6.5917,6.6032,6.623,6.6376,6.6518,6.6705,6.6844,6.6894,6.6894,6.6894,6.6894,6.6722,6.6558,6.6461,6.6275,6.6144,6.6115,6.5955,6.5352,6.4116,6.3227,6.1996,6.036,5.9018,5.8282,5.8168,5.807,5.7726,5.7116,5.6186,5.5379,5.7881,5.844,5.9201,5.9928,6.0706,6.1501,6.2229,6.2381,6.2381,6.2381,6.2381,6.2381,6.2381,6.2381,6.2381,0.0,6.2381,0.0,0.0,0.0,6.2381,6.2381,6.2381,6.2381,0.0,0.0,0.0,0.0,0.0,6.2381,6.2381,6.2381,6.2381,6.2381,6.2381,6.2381,6.2381,6.2381,6.2381,6.2381,6.2381,6.2381,6.2381,6.2381,6.2855,0.0,0.0,0.0,6.5698,6.6641,6.6985,6.7043,6.7506,6.7687,6.765,6.7283,6.6861,6.6384,6.565,6.4567,6.3429,6.297,6.2805,6.2855,6.3091,6.3168,6.3168,6.3168,6.3505,6.3919,6.4198,6.468,6.5137,6.5417,6.569,6.5897,6.5897,6.5897,6.5897,6.5897,6.5897,6.5936,6.607,6.6273,6.6455,6.6588,6.6769,6.6894,6.6894,6.6894,6.6862,6.6769,6.6617,6.6453,6.6294,6.6109,6.6013,6.6013,6.5936,6.5106,6.3375,6.286,6.1572,5.9443,5.8478,5.7997,5.7997,5.7997,5.7613,5.6861,5.6059,5.532,5.7881,5.844,5.9201,5.9928,6.0605,6.1349,6.2195,6.2381,6.2381,6.2381,6.2381,6.2381,6.2381,6.2381,0.0,0.0,0.0,0.0,6.2381,6.2381,6.2381,6.2381,6.2381,0.0,0.0,0.0,0.0,0.0,0.0,6.2381,6.2381,6.2381,6.2381,6.2381,6.2381,6.2381,6.2381,6.2381,6.2381,6.2381,6.2381,6.2381,6.2381,6.252,6.3049,6.3971,0.0,0.0,6.6659,6.7433,6.7687,6.7687,6.7687,6.7687,6.7595,6.6788,6.6421,6.609,6.4457,6.3429,6.2805,6.2904,6.2935,6.3014,6.3568,6.3766,6.3832,6.3832,6.4388,6.5016,6.508,6.5446,6.5808,6.5897,6.5897,6.5897,6.5897,6.5897,6.5897,6.5897,6.5917,6.5974,6.6109,6.6303,6.6481,6.6629,6.678,6.6894,6.6894,6.6894,6.6831,6.6626,6.6477,6.6316,6.6121,6.5974,6.5897,6.5897,6.5897,6.4895,6.2578,6.211,6.0858,5.8669,5.8213,5.7997,5.7997,5.7997,5.7565,5.6668,5.6004,5.5262,5.7881,5.844,5.9201,5.9928,6.0182,6.0655,6.2076,6.2381,6.2381,6.2381,6.2381,6.2381,6.2381,6.2381,6.2381,0.0,0.0,6.2381,0.0,0.0,6.2381,6.2381,0.0,0.0,0.0,0.0,0.0,0.0,0.0,6.2381,6.2381,6.2381,6.2381,6.2381,6.2381,6.2381,6.2381,6.2381,6.2381,6.2381,6.2381,6.2381,6.2459,6.3182,6.3971,6.4866,0.0,6.67,6.7488,6.7615,6.7687,6.7687,6.7687,6.7687,6.7595,6.6788,6.6072,6.5264,6.3594,6.2915,6.2886,6.3335,6.3498,6.3568,6.4118,6.4554,6.4866,6.4866,6.4696,6.459,6.4984,6.5161,6.534,6.5781,6.5897,6.5897,6.5897,6.5897,6.5897,6.5897,6.5974,6.6128,6.6327,6.6459,6.6632,6.6823,6.6871,6.6894,6.6894,6.6894,6.6831,6.6626,6.6478,6.6328,6.6134,6.5974,6.5897,6.5897,6.5897,6.4747,6.2113,5.9875,5.8541,5.8115,5.8024,5.7997,5.7997,5.7997,5.7247,5.5893,5.5762,5.4999,5.7881,5.844,5.9201,5.9928,6.0436,6.1044,6.2144,6.2381,6.2381,6.2381,6.2381,6.2381,6.2381,6.2381,6.2381,6.2381,0.0,6.2381,6.2381,6.2381,6.2381,0.0,0.0,0.0,0.0,0.0,0.0,0.0,0.0,0.0,6.2381,6.2381,6.2381,6.2381,6.2381,6.2381,6.2381,6.2381,6.2381,6.2381,6.2381,6.2381,6.2459,6.3314,6.4166,6.5065,0.0,6.691,6.7687,6.7687,6.7687,6.7687,6.7687,6.7687,6.754,6.6311,6.5044,6.3851,6.308,6.2965,6.3289,6.3543,6.3808,6.4118,6.4626,6.4919,6.5161,6.5446,6.5388,6.5249,6.5466,6.5522,6.5597,6.5853,6.5897,6.5897,6.5897,6.5897,6.5897,6.5897,6.6013,6.6155,6.6361,6.6502,6.6671,6.6865,6.6894,6.6894,6.6894,6.6814,6.666,6.6513,6.6344,6.6167,6.6013,6.5936,6.5781,6.5494,6.4371,6.3076,6.158,5.9245,5.7997,5.7997,5.7997,5.7997,5.7997,5.7997,5.7198,5.5706,5.5706,5.4878,5.7881,5.8558,5.9404,5.9962,6.0706,6.1501,6.2229,6.2381,6.2381,6.2381,6.2381,6.2381,6.2381,6.2381,0.0,6.2381,6.2381,6.2381,6.2381,0.0,0.0,0.0,0.0,0.0,0.0,0.0,0.0,0.0,0.0,0.0,6.2381,6.2381,6.2381,6.2381,6.2381,6.2381,6.2381,6.2381,6.2381,6.2381,6.2381,6.2381,6.2459,6.3501,6.4357,6.5065,6.6229,6.7099,6.7687,6.7687,6.7687,6.7687,6.7687,6.7467,6.699,6.576,6.4255,6.2805,6.2935,6.3262,6.3656,6.3873,6.4217,6.4661,6.5149,6.5291,6.5369,6.5781,6.5897,6.5897,6.5897,6.5897,6.5897,6.5897,6.5897,6.5897,6.5897,6.5897,6.5897,6.5936,6.607,6.6241,6.6409,6.657,6.6718,6.6889,6.6894,6.6894,6.6894,6.6733,6.6557,6.6422,6.6218,6.6051,6.5897,6.5897,6.554,6.4698,6.2921,6.1695,6.1214,5.915,5.7997,5.7997,5.7997,5.7997,5.7997,5.7839,5.7029,5.5706,5.5535,5.4713,5.7881,5.893,6.003,6.008,6.0706,6.1501,6.2229,6.2381,6.2381,6.2381,6.2381,6.2381,0.0,6.2381,6.2381,6.2381,6.2381,6.2381,6.2381,0.0,0.0,0.0,0.0,0.0,0.0,0.0,0.0,0.0,0.0,0.0,6.2381,6.2381,6.2381,6.2381,6.2381,6.2381,6.2381,6.2381,6.2381,6.2381,6.2381,6.2381,6.2459,6.4148,6.4933,6.5131,6.6874,6.7615,6.7687,6.7687,6.7687,6.7687,6.7687,6.6788,6.5466,6.5356,6.4255,6.2886,6.3381,6.3568,6.3766,6.4677,6.5016,6.5149,6.569,6.5853,6.5853,6.5897,6.5897,6.5897,6.5897,6.5897,6.5897,6.5897,6.5897,6.5897,6.5897,6.5897,6.5936,6.6051,6.625,6.6404,6.655,6.6754,6.6872,6.6894,6.6894,6.6894,6.6894,6.6733,6.6563,6.6396,6.6236,6.6051,6.5897,6.5897,6.5121,6.3364,6.2405,6.1695,6.1214,5.915,5.7997,5.7997,5.7997,5.7997,5.7997,5.7284,5.6545,5.5649,5.4982,5.4281,5.8457,5.9336,6.0216,6.0723,6.1417,6.2059,6.233,6.2381,6.2381,6.2381,6.2381,0.0,0.0,0.0,6.2381,6.2381,6.2381,6.2381,6.2381,6.2381,0.0,0.0,0.0,0.0,0.0,0.0,0.0,0.0,0.0,0.0,6.2381,6.2381,6.2381,6.2381,6.2381,6.2381,6.2381,6.2381,6.2381,6.2381,6.2381,6.2642,6.3257,6.4478,6.5344,6.5966,6.7156,6.7687,6.7687,6.7687,6.7687,6.7687,6.7687,6.6714,6.5319,6.5319,6.4255,6.2904,6.3408,6.3808,6.4217,6.4866,6.534,6.5644,6.5853,6.5897,6.5897,6.5897,6.5897,6.5897,6.5897,6.5897,6.5897,6.5897,6.5897,6.5897,6.5897,6.5955,6.6032,6.609,6.6346,6.6538,6.6596,6.6777,6.6894,6.6894,6.6894,6.6908,6.6888,6.6653,6.6458,6.639,6.6147,6.5955,6.5897,6.5897,6.5331,6.3991,6.2633,6.1317,6.0026,5.8704,5.7997,5.7997,5.7997,5.7997,5.7997,5.7234,5.6492,5.5649,5.4922,5.4218,5.8879,5.9725,6.0605,6.1163,6.1839,6.2381,6.2381,6.2381,6.2381,6.2381,6.2381,6.2381,6.2381,0.0,0.0,0.0,6.2381,6.2381,6.2381,6.2381,0.0,0.0,0.0,0.0,0.0,0.0,0.0,0.0,0.0,0.0,0.0,6.2381,6.2381,6.2381,6.2381,6.2381,6.2381,6.2381,6.2381,6.2381,6.2659,6.3124,6.3719,6.4614,6.549,6.6464,6.7304,6.7687,6.7687,6.7687,6.7687,6.7687,6.7687,6.6861,6.565,6.5393,6.4485,6.3471,6.3774,6.4178,6.4715,6.518,6.5616,6.5897,6.5897,6.5897,6.5897,6.5897,6.5897,6.5897,6.5897,6.5897,6.5897,6.5897,6.5897,6.5897,6.5936,6.6032,6.6128,6.625,6.6442,6.6622,6.6688,6.6803,6.6894,6.6894,6.6902,6.6868,6.6807,6.6572,6.6361,6.6242,6.6032,6.5897,6.5897,6.5897,6.5351,6.4067,6.2671,6.1201,5.964,5.8565,5.7997,5.7997,5.7997,5.7997,5.7997,5.6997,5.6259,5.5649,5.4713,5.3994,5.9032,6.0148,6.1298,6.1315,6.1856,6.2381,6.2381,6.2381,6.2381,6.2381,6.2381,6.2381,6.2381,6.2381,0.0,6.2381,6.2381,6.2381,6.2381,6.2381,6.2381,0.0,0.0,0.0,0.0,0.0,0.0,0.0,0.0,0.0,0.0,6.2381,6.2381,6.2381,6.2381,6.2381,6.2381,6.2381,6.2381,6.2381,6.3331,6.3719,6.3719,6.4614,6.5554,6.6464,6.7304,6.7687,6.7687,6.7687,6.7687,6.7687,6.7687,6.721,6.6402,6.5595,6.5078,6.4781,6.4518,6.4696,6.518,6.5736,6.5897,6.5897,6.5897,6.5897,6.5897,6.5897,6.5897,6.5897,6.5897,6.5897,6.5897,6.5897,6.5897,6.5936,6.607,6.6115,6.6211,6.6538,6.6596,6.667,6.6862,6.6894,6.6894,6.6894,6.6903,6.6827,6.6615,6.6475,6.6267,6.5933,6.5897,6.5897,6.5897,6.5897,6.5102,6.3217,6.235,6.1464,6.043,5.8859,5.7997,5.7997,5.7997,5.7997,5.7997,5.6456,5.5706,5.5649,5.4171,5.3501,6.0334,6.096,6.1417,6.1941,6.2229,6.2381,6.2381,6.2381,6.2381,6.2381,6.2381,6.2381,6.2381,0.0,0.0,0.0,0.0,0.0,6.2381,6.2381,6.2381,6.2381,0.0,0.0,0.0,0.0,0.0,0.0,0.0,0.0,0.0,6.2381,6.2381,6.2381,6.2381,6.2381,6.2381,6.299,6.3314,6.3314,6.4236,6.4614,6.4614,6.5572,6.6445,6.7304,6.7615,6.7687,6.7687,6.7687,6.7687,6.7687,6.7687,6.721,6.6437,6.5952,6.5366,6.4825,6.4874,6.4984,6.518,6.5736,6.5897,6.5897,6.5897,6.5897,6.5897,6.5897,6.5897,6.5897,6.5897,6.5897,6.5897,6.5897,6.5897,6.5936,6.607,6.6204,6.6378,6.6555,6.6707,6.6837,6.6893,6.6894,6.6894,6.6894,6.6903,6.6788,6.65,6.6298,6.6113,6.5923,6.5897,6.5897,6.5897,6.5897,6.537,6.4086,6.2689,6.1201,5.9622,5.8547,5.7997,5.7997,5.7997,5.7997,5.7997,5.6456,5.5706,5.5649,5.4171,5.3501,6.1061,6.1518,6.1839,6.2279,6.2381,6.2381,6.2381,6.2381,6.2381,6.2381,6.2381,6.2381,6.2381,6.2381,0.0,0.0,0.0,0.0,0.0,6.2381,6.2381,6.2381,0.0,0.0,0.0,0.0,0.0,0.0,0.0,0.0,0.0,6.2381,6.2381,6.2381,6.2719,6.2931,6.2931,6.3774,6.4236,6.4236,6.5166,6.5554,6.5554,6.6125,6.6852,6.7687,6.7687,6.7687,6.7687,6.7687,6.7687,6.7741,6.793,6.7719,6.7284,6.6952,6.6439,6.5896,6.5684,6.5547,6.5466,6.5808,6.5897,6.5897,6.5897,6.5897,6.5897,6.5897,6.5897,6.5897,6.5897,6.5897,6.5897,6.5897,6.5936,6.6013,6.6167,6.6355,6.6528,6.6687,6.6817,6.6894,6.6894,6.6894,6.6894,6.6894,6.6786,6.6645,6.6429,6.6167,6.5974,6.5897,6.5897,6.5897,6.5897,6.5897,6.5485,6.4463,6.3142,6.1576,5.9751,5.8602,5.7997,5.7997,5.7997,5.7839,5.7565,5.6295,5.5535,5.5203,5.4059,5.3501,6.1383,6.189,6.2381,6.2381,6.2381,6.2381,6.2381,6.2381,6.2381,6.2381,0.0,6.2381,6.2381,6.2381,6.2381,6.2381,0.0,0.0,0.0,0.0,6.2381,6.2381,0.0,0.0,0.0,0.0,0.0,0.0,0.0,0.0,0.0,6.2459,6.2442,6.2381,6.3314,6.3774,6.3719,6.4614,6.5131,6.5131,6.6046,6.6523,6.6523,6.6523,6.6967,6.7687,6.7687,6.7687,6.7687,6.7687,6.7687,6.7776,6.8308,6.8492,6.8474,6.8248,6.7937,6.7469,6.6714,6.6222,6.5897,6.5897,6.5897,6.5897,6.5897,6.5897,6.5897,6.5897,6.5897,6.5897,6.5897,6.5897,6.5897,6.5917,6.6013,6.6147,6.6384,6.6519,6.665,6.6859,6.6894,6.6894,6.6894,6.6894,6.6894,6.6894,6.6615,6.64,6.6401,6.6109,6.5897,6.5897,6.5897,6.5897,6.5897,6.5897,6.5485,6.4463,6.3596,6.2345,6.0577,5.8951,5.807,5.7997,5.7997,5.7613,5.6912,5.6077,5.532,5.4589,5.3832,5.3501,6.2009,6.2262,6.2381,6.2381,6.2381,6.2381,6.2381,6.2381,6.2381,6.2381,6.2381,6.2381,6.2381,6.2381,6.2381,6.2381,6.2381,6.2381,0.0,0.0,0.0,6.2381,0.0,0.0,0.0,0.0,0.0,0.0,0.0,0.0,6.2381,6.3049,6.3124,6.2381,6.39,6.4427,6.3719,6.5314,6.6107,0.0,6.6967,6.7433,6.7433,6.7433,6.7488,6.7687,6.7687,6.7687,6.7687,6.7687,6.7687,6.7776,6.8308,6.8492,6.852,6.8622,6.8202,6.7553,6.7103,6.6499,6.5897,6.5897,6.5897,6.5897,6.5897,6.5897,6.5897,6.5897,6.5897,6.5897,6.5897,6.5897,6.5917,6.6032,6.607,6.6167,6.65,6.6577,6.665,6.6859,6.6894,6.6894,6.6894,6.6894,6.6894,6.6894,6.6615,6.64,6.6401,6.6109,6.5897,6.5897,6.5897,6.5897,6.5897,6.5897,6.5485,6.4463,6.3596,6.2548,6.1385,5.9813,5.8657,5.8015,5.7997,5.7613,5.6912,5.6077,5.532,5.4589,5.3832,5.3501,6.2279,6.2381,6.2381,6.2381,6.2381,6.2381,6.2381,6.2381,6.2381,6.2381,6.2381,6.2381,6.2381,6.2381,6.2381,6.2381,6.2381,6.2381,6.2381,6.2381,0.0,6.2381,6.2381,0.0,0.0,0.0,0.0,0.0,0.0,6.2855,6.2381,6.3647,6.39,6.3049,6.4767,6.5444,6.4986,6.6307,6.7043,6.7043,6.7488,6.7687,6.7687,6.7687,6.7687,6.7687,6.7687,6.7687,6.7687,6.7687,6.7844,6.8129,6.866,6.9021,6.9317,6.9666,6.9295,6.8521,6.7914,6.7167,6.6397,6.6032,6.5897,6.5897,6.5897,6.5897,6.5897,6.5897,6.5897,6.5897,6.5897,6.5936,6.6032,6.6186,6.6232,6.6321,6.6555,6.669,6.678,6.6871,6.6894,6.6894,6.6894,6.6894,6.6862,6.6769,6.6555,6.6361,6.6266,6.6051,6.5897,6.5897,6.5897,6.5897,6.5897,6.5644,6.5199,6.4463,6.3725,6.2798,6.1643,6.0786,5.9795,5.8602,5.7861,5.7098,5.6313,5.5552,5.4818,5.4042,5.3668,5.3501,6.2381,6.2381,6.2381,6.2381,6.2381,6.2381,6.2381,6.2381,6.2381,6.2381,6.2381,6.2381,6.2381,6.2381,6.2381,6.2381,6.2381,6.2381,6.2381,6.2381,6.2381,6.2381,6.2381,0.0,0.0,0.0,0.0,0.0,0.0,6.3444,6.2838,6.4357,6.4817,6.3971,6.5653,6.6523,6.6404,6.723,6.7687,6.7687,6.7687,6.7687,6.7687,6.7687,6.7687,6.7687,6.7687,6.7687,6.7687,6.781,6.8097,6.8586,6.919,6.9701,7.0162,7.07,7.0398,6.959,6.8706,6.784,6.6974,6.6147,6.5897,6.5897,6.5897,6.5897,6.5897,6.5897,6.5897,6.5897,6.5917,6.6013,6.6147,6.6384,6.6418,6.6477,6.6612,6.678,6.6894,6.6894,6.6894,6.6894,6.6894,6.6894,6.6823,6.6634,6.6477,6.6316,6.6126,6.5974,6.5897,6.5897,6.5897,6.5897,6.5897,6.5417,6.4919,6.4426,6.3892,6.3066,6.1881,6.1667,6.097,5.9648,5.7974,5.6617,5.5706,5.4982,5.4218,5.3501,5.3501,5.3501,6.2381,6.2381,6.2381,6.2381,6.2381,6.2381,6.2381,6.2381,6.2381,6.2381,6.2381,6.2381,6.2381,6.2381,6.2381,6.2381,6.2381,6.2381,6.2381,6.2381,6.2381,6.2381,6.2381,6.2381,0.0,0.0,0.0,0.0,6.3647,6.3971,6.4614,6.5635,6.5779,6.4884,6.6605,6.7174,6.6404,6.723,6.7687,6.7687,6.7687,6.7687,6.7687,6.7687,6.7687,6.7687,6.7687,6.7687,6.7722,6.8229,6.8416,6.8586,6.9607,7.0042,7.0162,7.07,7.0398,6.959,6.8706,6.784,6.6974,6.6147,6.5897,6.5897,6.5897,6.5897,6.5897,6.5897,6.5897,6.5917,6.6032,6.609,6.6167,6.65,6.6574,6.6632,6.6811,6.6871,6.6894,6.6894,6.6894,6.6894,6.6894,6.6894,6.6823,6.6634,6.6497,6.6348,6.6134,6.5974,6.5897,6.5897,6.5897,6.5897,6.5897,6.5417,6.4919,6.4426,6.3892,6.3325,6.2658,6.1961,6.1502,6.1282,5.9063,5.7209,5.5706,5.4982,5.4218,5.3501,5.3501,5.3501,6.299,6.3124,6.3257,6.3757,6.3829,6.3829,6.3829,6.3829,6.3702,6.3257,6.3124,6.299,6.2459,6.2381,6.2381,6.2381,6.2381,6.2381,6.2381,6.2381,6.2381,6.2381,6.2381,6.2381,6.2381,0.0,0.0,0.0,6.39,6.4357,6.4288,6.6107,6.67,6.5824,6.7024,6.7506,6.7099,6.7488,6.7687,6.7687,6.7687,6.7687,6.7687,6.7687,6.7687,6.7741,6.8014,6.8129,6.8179,6.875,6.9148,6.9453,6.9938,7.0279,7.0573,7.0824,7.0687,7.0244,6.9417,6.8571,6.7686,6.684,6.6263,6.5897,6.5897,6.5897,6.5897,6.5897,6.5897,6.5917,6.607,6.6176,6.6322,6.6536,6.6692,6.6784,6.6871,6.6894,6.6894,6.6894,6.6894,6.6894,6.6894,6.6814,6.6679,6.6512,6.6347,6.6167,6.6013,6.5936,6.5897,6.5897,6.5897,6.5897,6.5897,6.5168,6.4626,6.4426,6.3593,6.3062,6.2805,6.2475,6.2053,6.1594,5.8843,5.7112,5.6343,5.4752,5.3832,5.3501,5.3501,5.3501,6.3182,6.3388,6.3574,6.4478,6.4682,6.4682,6.4682,6.4682,6.4409,6.3574,6.3388,6.3182,6.252,6.2381,6.2381,6.2381,6.2381,6.2381,6.2381,6.2381,6.2381,6.2381,6.2381,6.2459,6.2719,6.252,0.0,0.0,6.4427,6.4951,6.47,6.6623,6.7415,6.6718,6.7359,6.7687,6.7687,6.7687,6.7687,6.7687,6.7687,6.7687,6.7687,6.7687,6.7687,6.7741,6.8259,6.8586,6.8732,6.9253,6.9738,7.0129,7.0247,7.0543,7.0898,7.0898,7.0898,7.0783,6.9975,6.9129,6.8263,6.7378,6.6551,6.5897,6.5897,6.5897,6.5897,6.5897,6.5917,6.5974,6.6128,6.63,6.6484,6.6631,6.6786,6.6897,6.6901,6.6894,6.6894,6.6894,6.6894,6.6894,6.6894,6.6722,6.653,6.6428,6.622,6.6051,6.5917,6.5897,6.5897,6.5897,6.5897,6.5897,6.5897,6.499,6.4389,6.4389,6.3408,6.2805,6.2805,6.2805,6.253,6.1924,5.9023,5.7322,5.6914,5.5006,5.3854,5.3501,5.3501,5.3501,6.2459,6.2459,6.2659,6.3591,6.3774,6.3774,6.3774,6.3774,6.3518,6.2659,6.2459,6.2459,6.2381,6.2381,6.2381,6.2381,6.2381,6.2381,6.2381,6.2381,6.2381,6.2381,6.2381,6.2719,6.3591,6.2855,6.3462,6.6002,6.5426,6.5726,6.7415,6.7615,6.7687,6.7615,6.7687,6.7687,6.7687,6.7687,6.7687,6.7687,6.7687,6.7687,6.7687,6.7687,6.7687,6.7741,6.8259,6.8777,6.9313,6.9847,7.0076,7.0162,7.0652,7.0871,7.0898,7.0898,7.0898,7.0783,6.9975,6.9129,6.8263,6.7378,6.6551,6.5897,6.5897,6.5897,6.5897,6.5897,6.5974,6.6128,6.6346,6.6486,6.6629,6.6834,6.6892,6.6893,6.6894,6.6894,6.6894,6.6894,6.6894,6.6894,6.6894,6.6722,6.6538,6.6434,6.6211,6.6051,6.5917,6.5897,6.5897,6.5897,6.5897,6.5897,6.5897,6.499,6.4389,6.4389,6.3408,6.2805,6.2805,6.2805,6.2787,6.275,6.0367,5.842,5.6914,5.6099,5.4922,5.3501,5.3501,5.3501,6.3049,6.3257,6.3444,6.4288,6.4968,6.5462,6.5462,6.5842,6.6028,6.5136,6.4513,6.39,6.3314,6.2796,6.2381,6.2381,6.2381,6.2381,6.2381,6.2381,6.2381,6.2381,6.2381,6.252,6.2855,6.2598,6.3066,6.4513,6.4884,6.5554,6.6776,6.7433,6.7687,6.7687,6.7687,6.7687,6.7687,6.7687,6.7687,6.7687,6.7687,6.7687,6.7687,6.7687,6.8097,6.875,6.8953,6.9106,6.9393,7.0247,7.0603,7.0622,7.0824,7.0898,7.0898,7.0898,7.0898,7.086,7.0571,6.9571,6.8359,6.8052,6.7013,6.5897,6.5897,6.5897,6.5897,6.5897,6.5994,6.615,6.6341,6.649,6.6647,6.6848,6.6894,6.6894,6.6894,6.6894,6.6894,6.6894,6.6894,6.6894,6.6894,6.6654,6.6458,6.6396,6.6147,6.5936,6.5897,6.5897,6.5897,6.5897,6.5897,6.5897,6.5897,6.499,6.4389,6.4389,6.3408,6.2805,6.2805,6.2805,6.2805,6.2805,6.1443,5.9992,5.8438,5.6171,5.4753,5.4194,5.3721,5.3501,6.3518,6.39,6.4357,6.5232,6.5698,6.6046,6.6325,6.6623,6.6623,6.6028,6.5408,6.4799,6.4218,6.3444,6.2855,6.2855,6.2581,6.252,6.2796,6.2581,6.252,6.2796,6.2598,6.2659,6.324,6.2973,6.3182,6.4096,6.4951,0.0,6.6404,6.723,6.7687,6.7687,6.7687,6.7687,6.7687,6.7687,6.7687,6.7687,6.7687,6.7687,6.7687,6.7687,6.8179,6.9021,6.9231,6.9511,6.9902,7.0622,7.0898,7.0898,7.0898,7.0898,7.0898,7.0898,7.0898,7.0898,7.0898,6.9802,6.8398,6.8398,6.7263,6.5897,6.5897,6.5897,6.5897,6.5936,6.607,6.6251,6.6418,6.6583,6.6722,6.6865,6.6894,6.6894,6.6894,6.6894,6.6894,6.6894,6.6894,6.6894,6.6894,6.6622,6.6396,6.6406,6.6109,6.5897,6.5897,6.5897,6.5897,6.5897,6.5897,6.5897,6.5897,6.499,6.4389,6.4389,6.3408,6.2805,6.2805,6.2805,6.2805,6.2805,6.1715,6.0688,5.9696,5.7023,5.5366,5.4583,5.4093,5.3737,0.0,0.0,0.0,6.6125,6.5698,6.5214,6.6125,6.5617,6.4999,6.5065,6.4999,6.4999,6.5065,6.4357,6.3719,6.3791,6.3066,6.2719,6.3647,6.299,6.2719,6.3591,6.2914,6.3107,6.4732,6.4166,6.4025,6.4933,6.5842,6.6386,6.6464,6.723,6.7687,6.7687,6.7687,6.7687,6.7687,6.7687,6.7687,6.7687,6.7687,6.7687,6.7687,6.7687,6.8014,6.8539,6.9064,6.9902,7.0898,7.0898,7.0898,7.0898,7.0898,7.0898,7.0898,7.0898,7.0898,7.0898,7.0898,6.9821,6.8436,6.8417,6.7282,6.5936,6.5897,6.5897,6.5917,6.6051,6.6269,6.6442,6.6569,6.675,6.6894,6.6894,6.6894,6.6894,6.6894,6.6894,6.6894,6.6894,6.6894,6.6894,6.6894,6.6622,6.6396,6.6406,6.6109,6.5897,6.5897,6.5897,6.5897,6.5897,6.5897,6.5897,6.5897,6.499,6.4389,6.4389,6.3408,6.2805,6.2805,6.2805,6.2805,6.2805,6.1189,6.0414,6.0414,5.8759,5.683,5.4651,5.4617,5.4194,6.4478,0.0,0.0,0.0,0.0,0.0,6.5344,6.5214,6.5196,6.5904,6.5472,6.5214,6.5904,6.5297,6.4884,6.5526,6.4323,6.3629,6.4546,6.39,6.3444,6.3647,6.3518,6.3314,6.3107,6.3444,6.4025,0.0,6.5214,6.5948,6.7286,6.7561,6.7687,6.7687,6.7687,6.7687,6.7687,6.7687,6.7687,6.7687,6.7687,6.7687,6.7687,6.7687,6.821,6.9106,6.9231,6.9902,7.0898,7.0898,7.0898,7.0898,7.0898,7.0898,7.0898,7.0898,7.0898,7.0898,7.0898,7.0225,6.9244,6.8609,6.7667,6.6647,6.607,6.5955,6.6051,6.609,6.6327,6.6598,6.677,6.6856,6.6894,6.6894,6.6894,6.6894,6.6894,6.6894,6.6894,6.6894,6.6894,6.6894,6.6894,6.6622,6.6396,6.6406,6.6109,6.5897,6.5897,6.5897,6.5897,6.5897,6.5897,6.5897,6.5897,6.499,6.4389,6.4389,6.3408,6.2805,6.2805,6.2805,6.2805,6.2805,6.1189,6.0414,6.0414,5.8218,5.6828,5.6173,5.5091,5.4194,0.0,0.0,0.0,0.0,0.0,0.0,6.593,6.5536,6.5344,6.67,6.6487,6.6271,6.6834,6.6168,6.5886,6.6776,6.5779,6.4986,6.549,6.4817,6.4375,6.4785,6.4495,6.4166,6.406,6.453,6.4902,6.4999,6.5726,6.6605,6.7615,6.7687,6.7687,6.7687,6.7687,6.7687,6.7687,6.7687,6.7687,6.7687,6.7687,6.7687,6.7687,6.7687,6.8308,6.9313,6.9313,6.9902,7.0898,7.0898,7.0898,7.0898,7.0898,7.0898,7.0898,7.0898,7.0898,7.0898,7.0898,7.0379,6.9571,6.8686,6.7802,6.6955,6.6205,6.6032,6.6128,6.6288,6.6515,6.675,6.6865,6.6894,6.6894,6.6894,6.6894,6.6894,6.6894,6.6894,6.6894,6.6894,6.6894,6.6867,6.68,6.656,6.6377,6.6309,6.6051,6.5897,6.5897,6.5897,6.5897,6.5897,6.5897,6.5897,6.5897,6.499,6.4389,6.4389,6.3408,6.2805,6.2805,6.2805,6.2805,6.2805,6.1189,6.0041,5.9328,5.7961,5.7103,5.6765,5.5277,5.4363,0.0,0.0,0.0,0.0,0.0,0.0,6.7212,6.6211,6.5472,6.7212,6.7561,6.7561,6.7687,6.7043,6.6776,6.7433,6.6985,6.6523,6.6523,6.5617,6.5279,6.6125,6.549,6.5279,6.6064,6.6186,6.5904,6.5214,6.674,6.7687,6.7687,6.7687,6.7687,6.7687,6.7687,6.7687,6.7687,6.7687,6.7687,6.7687,6.7687,6.7687,6.7687,6.7687,6.8308,6.9313,6.9313,6.9902,7.0898,7.0898,7.0898,7.0898,7.0898,7.0898,7.0898,7.0898,7.0898,7.0898,7.0898,7.0379,6.9571,6.8686,6.7802,6.6955,6.6282,6.6101,6.6194,6.6537,6.6754,6.6894,6.6894,6.6894,6.6894,6.6894,6.6894,6.6894,6.6894,6.6894,6.6894,6.6894,6.6894,6.6848,6.6637,6.6496,6.6329,6.6131,6.5974,6.5897,6.5897,6.5897,6.5897,6.5897,6.5897,6.5897,6.5827,6.4938,6.4389,6.4313,6.3363,6.2805,6.2805,6.2805,6.2805,6.2805,6.1189,5.9591,5.801,5.7954,5.7509,5.6765,5.5463,5.4752,0.0,0.0,0.0,0.0,0.0,0.0,6.6582,6.5824,6.5344,6.6445,6.6659,6.6852,6.7561,6.7561,6.7286,6.6718,6.7099,6.7433,6.7433,6.601,6.5065,6.5279,6.5131,6.4817,6.4253,6.4884,6.549,6.6107,6.7099,6.7687,6.7687,6.7687,6.7687,6.7687,6.7687,6.7687,6.7687,6.7687,6.7687,6.7687,6.7687,6.7687,6.7687,6.7687,6.8308,6.9313,6.9313,6.9902,7.0898,7.0898,7.0898,7.0898,7.0898,7.0898,7.0898,7.0898,7.0898,7.0898,7.0898,7.0379,6.9571,6.8686,6.7802,6.6955,6.6282,6.6204,6.6406,6.6739,6.6865,6.6894,6.6894,6.6894,6.6894,6.6894,6.6894,6.6894,6.6894,6.6894,6.6894,6.6894,6.6894,6.6848,6.6637,6.6483,6.6314,6.6134,6.5974,6.5897,6.5897,6.5897,6.5897,6.5897,6.5897,6.5736,6.5291,6.475,6.4236,6.3766,6.3168,6.2805,6.2805,6.2805,6.2805,6.2805,6.1189,5.9896,5.8857,5.8192,5.7509,5.6799,5.6511,5.5733,0.0,0.0,0.0,6.7469,0.0,0.0,0.0,6.6368,6.5966,6.6834,6.7043,6.7174,6.7615,6.7687,6.7415,6.6523,6.7099,6.7396,6.6469,6.5966,6.5886,6.6271,6.5536,6.5017,6.5052,6.5017,6.5408,6.6325,6.723,6.7687,6.7687,6.7687,6.7687,6.7687,6.7687,6.7687,6.7687,6.7687,6.7687,6.7687,6.7687,6.7687,6.7687,6.7687,6.8308,6.9313,6.9313,6.9902,7.0898,7.0898,7.0898,7.0898,7.0898,7.0898,7.0898,7.0898,7.0898,7.0898,7.0898,7.0379,6.9571,6.8686,6.7878,6.7109,6.6436,6.6445,6.6673,6.6853,6.6894,6.6894,6.6894,6.6894,6.6894,6.6894,6.6894,6.6894,6.6894,6.6894,6.6894,6.6894,6.6824,6.6703,6.6533,6.6441,6.6327,6.6032,6.5936,6.5897,6.5897,6.5897,6.5897,6.5897,6.5897,6.569,6.513,6.4661,6.4157,6.3656,6.3091,6.2805,6.2805,6.2805,6.2636,6.22,6.1015,5.996,5.9111,5.8317,5.7695,5.734,5.6968,5.641,0.0,0.0,0.0,0.0,0.0,6.6659,0.0,0.0,0.0,0.0,0.0,0.0,0.0,0.0,0.0,6.6109,0.0,0.0,0.0,6.5337,0.0,6.6834,6.5806,6.5214,6.5797,6.5361,6.5344,6.6046,6.6967,6.7488,6.7687,6.7687,6.7687,6.7687,6.7687,6.7687,6.7687,6.7687,6.7687,6.7687,6.7687,6.7687,6.7687,6.7687,6.8308,6.9313,6.9313,6.9902,7.0898,7.0898,7.0898,7.0898,7.0898,7.0898,7.0898,7.0898,7.0898,7.0898,7.0898,7.0264,6.934,6.8629,6.7834,6.7041,6.6526,6.6581,6.6836,6.6836,6.6875,6.6894,6.6894,6.6894,6.6894,6.6894,6.6894,6.6894,6.6894,6.6894,6.6894,6.6894,6.6736,6.6557,6.6417,6.6361,6.625,6.5936,6.5897,6.5897,6.5897,6.5897,6.5897,6.5897,6.5897,6.5663,6.5035,6.4645,6.4118,6.3498,6.3062,6.2805,6.2805,6.2805,6.2446,6.1604,6.082,5.996,5.9111,5.8317,5.7881,5.7881,5.7289,5.6934,0.0,0.0,0.0,0.0,6.7043,0.0,0.0,0.0,0.0,6.7687,0.0,0.0,0.0,0.0,0.0,0.0,0.0,0.0,6.3258,6.3554,6.4042,6.4113,6.4682,6.475,6.4042,6.4614,6.5065,6.5131,6.6028,6.691,6.7687,6.7687,6.7687,6.7687,6.7687,6.7687,6.7687,6.7687,6.7687,6.7687,6.7687,6.7687,6.7687,6.7687,6.8308,6.9313,6.9313,6.9902,7.0898,7.0898,7.0898,7.0898,7.0898,7.0898,7.0898,7.0898,7.0898,7.0898,7.0898,6.9879,6.8532,6.8436,6.7409,6.6241,6.6163,6.6361,6.6621,6.6621,6.6758,6.6894,6.6894,6.6894,6.6894,6.6894,6.6894,6.6894,6.6894,6.6894,6.6894,6.6894,6.6736,6.6557,6.6417,6.6245,6.607,6.5917,6.5897,6.5897,6.5897,6.5897,6.5897,6.5897,6.5897,6.5513,6.4573,6.4426,6.3956,6.2965,6.2855,6.2805,6.2805,6.2805,6.2446,6.1604,6.082,5.996,5.9111,5.8317,5.7881,5.7881,5.7797,5.7408,0.0,0.0,0.0,0.0,0.0,0.0,0.0,0.0,6.7687,0.0,0.0,0.0,0.0,0.0,0.0,0.0,6.513,0.0,0.0,0.0,6.4478,0.0,0.0,0.0,6.299,6.3702,6.4495,6.4933,6.5842,6.6776,6.7669,6.7687,6.7687,6.7687,6.7687,6.7687,6.7687,6.7687,6.7687,6.7687,6.7687,6.7687,6.7687,6.7687,6.8148,6.8866,6.9148,6.9738,7.0463,7.0777,7.0898,7.0898,7.0898,7.0898,7.0898,7.0898,7.0898,7.0821,7.0379,6.9417,6.8263,6.7359,6.6618,6.6138,6.6333,6.6495,6.662,6.6745,6.6836,6.6894,6.6894,6.6894,6.6894,6.6894,6.6894,6.6894,6.6894,6.6894,6.6894,6.6894,6.6663,6.6476,6.6419,6.6225,6.6051,6.5917,6.5897,6.5897,6.5897,6.5897,6.5897,6.5897,6.5897,6.5485,6.45,6.4389,6.3956,6.2855,6.2805,6.2805,6.2805,6.2805,6.2446,6.1604,6.082,5.996,5.9111,5.8317,5.7881,5.7881,5.7881,5.7729,6.3444,0.0,0.0,0.0,0.0,0.0,0.0,0.0,0.0,0.0,0.0,0.0,0.0,0.0,0.0,0.0,0.0,6.4008,0.0,6.338,0.0,0.0,0.0,0.0,0.0,6.299,6.3757,6.4933,6.5635,6.6505,6.7615,6.7687,6.7687,6.7687,6.7687,6.7687,6.7687,6.7687,6.7687,6.7687,6.7687,6.7687,6.7687,6.7687,6.7963,6.8539,6.9064,6.9607,7.0129,7.07,7.0898,7.0898,7.0898,7.0898,7.0898,7.0898,7.0764,7.0494,6.9898,6.8975,6.7821,6.6474,6.6051,6.609,6.6384,6.6506,6.6574,6.6761,6.6856,6.6894,6.6894,6.6894,6.6894,6.6894,6.6894,6.6894,6.6894,6.6894,6.6872,6.6837,6.6595,6.6392,6.6328,6.6167,6.6013,6.5897,6.5897,6.5897,6.5897,6.5897,6.5897,6.5897,6.5781,6.531,6.4463,6.4274,6.3808,6.2855,6.2805,6.2805,6.2805,6.2805,6.2324,6.1304,6.0718,5.9832,5.8737,5.8192,5.7881,5.7881,5.7881,5.7881,0.0,0.0,0.0,6.5734,0.0,0.0,0.0,0.0,6.6659,0.0,0.0,0.0,0.0,0.0,0.0,0.0,0.0,0.0,0.0,0.0,0.0,0.0,0.0,0.0,0.0,6.2459,6.3182,0.0,6.4999,6.5806,6.7615,6.7687,6.7687,6.7687,6.7687,6.7687,6.7687,6.7687,6.7687,6.7687,6.7687,6.7687,6.7687,6.7687,6.7963,6.8539,6.9064,6.9607,7.0129,7.07,7.0898,7.0898,7.0898,7.0898,7.0898,7.0898,7.0417,6.9725,6.9706,6.8571,6.7013,6.6186,6.5897,6.5917,6.607,6.6245,6.6441,6.656,6.6757,6.6894,6.6894,6.6894,6.6894,6.6894,6.6894,6.6894,6.6894,6.6894,6.6839,6.6645,6.6494,6.6353,6.6136,6.5994,6.5897,6.5897,6.5897,6.5897,6.5897,6.5897,6.5897,6.5897,6.5446,6.4919,6.4463,6.3915,6.3363,6.2855,6.2805,6.2805,6.2805,6.2805,6.2041,6.0476,6.0414,5.9591,5.7954,5.7881,5.7881,5.7881,5.7881,5.7881,0.0,0.0,6.2719,6.4253,0.0,0.0,0.0,0.0,0.0,0.0,0.0,0.0,0.0,0.0,0.0,0.0,0.0,0.0,0.0,0.0,0.0,0.0,0.0,0.0,0.0,0.0,0.0,0.0,6.5554,0.0,6.7633,6.7687,6.7687,6.7687,6.7687,6.7687,6.7687,6.7687,6.7687,6.7687,6.7687,6.7687,6.7687,6.7687,6.781,6.8014,6.891,6.9374,6.9626,7.0543,7.0898,7.0898,7.0898,7.0571,7.011,7.011,6.9937,6.9533,6.8379,6.7244,6.6282,6.609,6.6032,6.607,6.6365,6.6472,6.6555,6.6749,6.6844,6.6894,6.6894,6.6894,6.6894,6.6894,6.6894,6.6894,6.6894,6.6894,6.6834,6.664,6.6495,6.6331,6.614,6.5974,6.5897,6.5897,6.5897,6.5897,6.5897,6.5897,6.5762,6.5417,6.5211,6.4765,6.3956,6.3363,6.3014,6.2805,6.2805,6.2805,6.2805,6.2271,6.1492,6.0414,5.9832,5.9011,5.7881,5.7881,5.7881,5.7881,5.7881,5.7881,6.2381,6.2381,0.0,6.3444,6.3444,0.0,6.5508,0.0,0.0,0.0,0.0,0.0,0.0,0.0,0.0,0.0,0.0,0.0,0.0,6.2381,0.0,0.0,0.0,0.0,0.0,0.0,0.0,0.0,0.0,0.0,0.0,6.7561,6.7687,6.7687,6.7687,6.7687,6.7687,6.7687,6.7687,6.7687,6.7687,6.7687,6.7687,6.7687,6.7687,6.7722,6.8614,6.9106,6.9393,7.0247,7.0575,7.0475,7.0475,6.9975,6.9283,6.959,6.9302,6.8571,6.7148,6.632,6.5917,6.6051,6.609,6.6147,6.65,6.6596,6.6585,6.6468,6.666,6.6836,6.6523,6.668,6.6894,6.6894,6.6894,6.6894,6.6894,6.6894,6.6828,6.6572,6.6453,6.6327,6.607,6.5955,6.5897,6.5897,6.5897,6.5897,6.5897,6.5736,6.5494,6.513,6.4799,6.4237,6.3363,6.3014,6.2805,6.2805,6.2805,6.2805,6.2805,6.2023,6.1229,6.0414,5.9556,5.8686,5.7881,5.7881,5.7881,5.7881,5.7881,5.7881]},{"header":{"parameterUnit":"m.s-1","parameterCategory":1,"la1":30.6,"la2":29.2853,"lo1":-89.7004,"lo2":-87.6739,"dy":0.0162,"dx":0.0183,"nx":112,"ny":82,"refTime":"2024-04-16T12:00:00:Z","depth":0,"parameterNumber":3,"parameterNumberName":"V-component_of_WINDS"},"data":[0.0,0.0,0.0,0.0,0.0,0.0,0.0,0.0,0.0,0.0,0.0,0.0,0.0,0.0,0.0,0.0,0.0,0.0,0.0,0.0,0.0,0.0,0.0,0.0,0.0,0.0,0.0,0.0,0.0,0.0,0.0,0.0,0.0,0.0,0.0,0.0,0.0,0.0,0.0,0.0,0.0,0.0,0.0,0.0,0.0,0.0,0.0,0.0,0.0,0.0,0.0,0.0,0.0,0.0,0.0,0.0,0.0,0.0,0.0,0.0,0.0,0.0,0.0,0.0,0.0,0.0,0.0,0.0,0.0,0.0,0.0,0.0,0.0,0.0,0.0,0.0,0.0,0.0,0.0,0.0,0.0,0.0,0.0,0.0,0.0,0.0,0.0,0.0,0.0,0.0,0.0,1.0348,1.0327,1.0314,1.0314,1.0175,1.0086,1.0086,0.0,0.0,0.0,0.0,0.0,0.0,0.0,0.0,0.0,0.0,0.0,0.0,0.0,0.0,0.0,0.0,0.0,0.0,0.0,0.0,0.0,0.0,0.0,0.0,0.0,0.0,0.0,0.0,0.0,0.0,0.0,0.0,0.0,0.0,0.0,0.0,0.0,0.0,0.0,0.0,0.0,0.0,0.0,0.0,0.0,0.0,0.0,0.0,0.0,0.0,0.0,0.0,0.0,0.0,0.0,0.0,0.0,0.0,0.0,0.0,0.0,0.0,0.0,0.0,0.0,0.0,0.0,0.0,0.0,0.0,0.0,0.0,0.0,0.0,0.0,0.0,0.0,0.0,0.0,0.0,0.0,0.0,0.0,0.0,0.0,0.0,0.0,0.0,0.0,0.0,0.0,0.0,0.0,0.0,0.0,0.0,0.0,0.0,0.0,0.0,0.0,0.0,0.0,0.0,1.0653,1.0653,1.0538,1.046,1.046,1.0327,1.0246,1.0246,0.0,0.0,0.0,0.0,0.0,0.0,0.0,0.0,0.0,0.0,0.0,0.0,0.0,0.0,0.0,0.0,0.0,0.0,0.0,0.0,0.0,0.0,0.0,0.0,0.0,0.0,0.0,0.0,0.0,0.0,0.0,0.0,0.0,0.0,0.0,0.0,0.0,0.0,0.0,0.0,0.0,0.0,0.0,0.0,0.0,0.0,0.0,0.0,0.0,0.0,0.0,0.0,0.0,0.0,0.0,0.0,0.0,0.0,0.0,0.0,0.0,0.0,0.0,0.0,0.0,0.0,0.0,0.0,0.0,0.0,0.0,0.0,0.0,0.0,0.0,0.0,0.0,0.0,0.0,0.0,0.0,0.0,0.0,0.0,0.0,0.0,0.0,0.0,0.0,0.0,0.0,0.0,0.0,0.0,0.0,0.0,0.0,0.0,0.0,0.0,0.0,0.0,0.0,1.0677,1.0721,1.0721,1.0656,1.0616,1.0616,1.048,1.0395,1.0395,1.011,0.0,0.0,0.0,0.0,0.0,0.0,0.0,0.0,0.0,0.0,0.0,0.0,0.0,0.0,0.0,0.0,0.0,0.0,0.0,0.0,0.0,0.0,0.0,0.0,0.0,0.0,0.0,0.0,0.0,0.0,0.0,0.0,0.0,0.0,0.0,0.0,0.0,0.0,0.0,0.0,0.0,0.0,0.0,0.0,0.0,0.0,0.0,0.0,0.0,0.0,0.0,0.0,0.0,0.0,0.0,0.0,0.0,0.0,0.0,0.0,0.0,0.0,0.0,0.0,0.0,0.0,0.0,0.0,0.0,0.0,0.0,0.0,0.0,0.0,0.0,0.0,0.0,0.0,0.0,0.0,0.0,0.0,0.0,0.0,0.0,0.0,0.0,0.0,0.0,0.0,0.0,0.0,0.0,0.0,0.0,0.0,0.0,0.0,0.0,0.0,0.0,0.0,1.0721,1.0721,1.0721,1.0721,1.0721,1.0721,1.0612,1.0548,1.0548,1.03,0.0,0.0,0.0,0.0,0.0,0.0,0.0,0.0,0.0,0.0,0.0,0.0,0.0,0.0,0.0,0.0,0.0,0.0,0.0,0.0,0.0,0.0,0.0,0.0,0.0,0.0,0.0,0.0,0.0,0.0,0.0,0.0,0.0,0.0,0.0,0.0,0.0,0.0,0.0,0.0,0.0,0.0,0.0,0.0,0.0,0.0,0.0,0.0,0.0,0.0,0.0,0.0,0.0,0.0,0.0,0.0,0.0,0.0,0.0,0.0,0.0,0.0,0.0,0.0,0.0,0.0,0.0,0.0,0.0,0.0,0.0,0.0,0.0,0.0,0.0,0.0,0.0,0.0,0.0,0.0,0.0,0.0,0.0,0.0,0.0,0.0,0.0,0.0,0.0,0.0,0.0,0.0,0.0,0.0,0.0,0.0,0.0,0.0,0.0,0.0,0.0,0.0,1.0721,1.0721,1.0721,1.0721,1.0721,1.0721,1.0711,1.0704,1.0704,1.0551,0.0,0.0,0.0,0.0,0.0,0.0,0.0,0.0,0.0,0.0,0.0,0.0,0.0,0.0,0.0,0.0,0.0,0.0,0.0,0.0,0.0,0.0,0.0,0.0,0.0,0.0,0.0,0.0,0.0,0.0,0.0,0.0,0.0,0.0,0.0,0.0,0.0,0.0,0.0,0.0,0.0,0.0,0.0,0.0,0.0,0.0,0.0,0.0,0.0,0.0,0.0,0.0,0.0,0.0,0.0,0.0,0.0,0.0,0.0,0.0,0.0,0.0,0.0,0.0,0.0,0.0,0.0,0.0,0.0,0.0,0.0,0.0,0.0,0.0,0.0,0.0,0.0,0.0,0.0,0.0,0.0,0.0,0.0,0.0,0.0,0.0,0.0,0.0,0.0,0.0,0.0,0.0,0.0,0.0,0.0,0.0,0.0,0.0,0.0,0.0,0.0,0.0,1.0721,1.0721,0.0,1.0721,1.0721,1.0721,1.0721,1.0721,1.0721,0.0,0.0,0.0,0.0,0.0,0.0,0.0,0.0,0.0,0.0,0.0,0.0,0.0,0.0,0.0,0.0,0.0,0.0,0.0,0.0,0.0,0.0,0.0,0.0,0.0,0.0,0.0,0.0,0.0,0.0,0.0,0.0,0.0,0.0,0.0,0.0,0.0,0.0,0.0,0.0,0.0,0.0,0.0,0.0,0.0,0.0,0.0,0.0,0.0,0.0,0.0,0.0,0.0,0.0,0.0,0.0,0.0,0.0,0.0,0.0,0.0,0.0,0.0,0.0,0.0,0.0,0.0,0.0,0.0,0.0,0.0,0.0,0.0,0.0,0.0,0.0,0.0,0.0,0.0,0.0,0.0,0.0,0.0,0.0,0.0,0.0,0.0,0.0,0.0,0.0,0.0,0.0,0.0,0.0,0.0,0.0,0.0,0.0,0.0,0.0,0.0,0.0,1.0721,1.0721,1.0721,0.0,1.0721,1.0721,1.0721,1.0721,1.0721,1.0721,0.0,0.0,0.0,0.0,0.0,0.0,0.0,0.0,0.0,0.0,0.0,0.0,0.0,0.0,0.0,0.0,0.0,0.0,0.0,0.0,0.0,0.0,0.0,0.0,0.0,0.0,0.0,0.0,0.0,0.0,0.0,0.0,0.0,0.0,0.0,0.0,0.0,0.0,0.0,0.0,0.0,0.0,0.0,0.0,0.0,0.0,0.0,0.0,0.0,0.0,0.0,0.0,0.0,0.0,0.0,0.0,0.0,0.0,0.0,0.0,0.0,0.0,0.0,0.0,0.0,0.0,0.0,0.0,0.0,0.0,0.0,0.0,0.0,0.0,0.0,0.0,0.0,0.0,0.0,0.0,0.0,0.0,0.0,0.0,0.0,0.0,0.0,0.0,0.0,0.0,0.0,0.0,0.0,0.0,0.0,0.0,0.0,0.0,0.0,0.0,0.0,0.0,1.0721,1.0721,1.0721,1.0721,1.0721,1.0721,1.0721,1.0721,1.0721,0.0,0.0,0.0,0.0,0.0,0.0,0.0,0.0,0.0,0.0,0.0,0.0,0.0,0.0,0.0,0.0,0.0,0.0,0.0,0.0,0.0,0.0,0.0,0.0,0.0,0.0,0.0,0.0,0.0,0.0,0.0,0.0,0.0,0.0,0.0,0.0,0.0,0.0,0.0,0.0,0.0,0.0,0.0,0.0,0.0,0.0,0.0,0.0,0.0,0.0,0.0,0.0,0.0,0.0,0.0,0.0,0.0,0.0,0.0,0.0,0.0,0.0,0.0,0.0,0.0,0.0,0.0,0.0,0.0,0.0,0.0,0.0,0.0,0.0,0.0,0.0,0.0,0.0,0.0,0.0,0.0,0.0,0.0,0.0,0.0,0.0,0.0,0.0,0.0,0.0,0.0,0.0,0.0,0.0,0.0,0.0,0.0,0.0,0.0,0.0,0.0,0.0,0.0,1.0721,1.0721,1.0721,1.0721,1.0721,1.0721,1.0721,1.0721,1.0721,1.0721,0.0,0.0,0.0,0.0,0.0,0.0,0.0,0.0,0.0,0.0,0.0,0.0,0.0,0.0,0.0,0.0,0.0,0.0,0.0,0.0,0.0,0.0,0.0,0.0,0.0,0.0,0.0,0.0,0.0,0.0,0.0,0.0,0.0,0.0,0.0,0.0,0.0,0.0,0.0,0.0,0.0,0.0,0.0,0.0,0.0,0.0,0.0,0.0,0.0,0.0,0.0,0.0,0.0,0.0,0.0,0.0,0.0,0.0,0.0,0.0,0.0,0.0,0.0,0.0,0.0,0.0,0.0,0.0,0.0,0.0,0.0,0.0,0.0,0.0,0.0,0.0,0.0,0.0,0.0,0.0,0.0,0.0,0.0,0.0,0.0,0.0,0.0,0.0,0.0,0.0,0.0,0.0,0.0,0.0,0.0,0.0,0.0,0.0,0.0,0.0,0.0,0.0,1.0721,1.0721,1.0721,1.0721,1.0721,1.0721,1.0721,1.0721,1.0721,1.0721,0.0,0.0,0.0,0.0,0.0,0.0,0.0,0.0,0.0,0.0,0.0,0.0,0.0,0.0,0.0,0.0,0.0,0.0,0.0,0.0,0.0,0.0,0.0,0.0,0.0,0.0,0.0,0.0,0.0,0.0,0.0,0.0,0.0,0.0,0.0,0.0,0.0,0.0,0.0,0.0,0.0,0.0,0.0,0.0,0.0,0.0,0.0,0.0,0.0,0.0,0.0,0.0,0.0,0.0,0.0,0.0,0.0,0.0,0.0,0.0,0.0,0.0,0.0,0.0,0.0,0.0,0.0,0.0,0.0,0.0,0.0,0.0,0.0,0.0,0.0,0.0,0.0,0.0,0.0,0.0,0.0,0.0,0.0,0.0,0.0,0.0,0.0,0.0,0.0,0.0,0.0,0.0,0.0,0.0,0.0,0.0,0.0,0.0,0.0,0.0,0.0,0.0,1.0721,1.0721,1.0721,1.0721,1.0721,1.0721,1.0721,1.0721,1.0721,1.0721,0.0,0.0,0.0,0.0,0.0,0.0,0.0,0.0,0.0,0.0,0.0,0.0,0.0,0.0,0.0,0.0,0.0,0.0,0.0,0.0,0.0,0.0,0.0,0.0,0.0,0.0,0.0,0.0,0.0,0.0,0.0,0.0,0.0,0.0,0.0,0.0,0.0,0.0,0.0,0.0,0.0,0.0,0.0,0.0,0.0,0.0,0.0,0.0,0.0,0.0,0.0,0.0,0.0,0.0,0.0,0.0,0.0,0.0,0.0,0.0,1.4232,0.0,0.0,0.0,0.0,0.0,0.0,0.0,0.0,0.0,0.0,0.0,0.0,0.0,0.0,0.0,0.0,0.0,0.0,0.0,0.0,0.0,0.0,0.0,0.0,0.0,0.0,0.0,0.0,0.0,0.0,0.0,0.0,0.0,0.0,0.0,0.0,0.0,0.0,0.0,0.0,0.0,1.0721,1.0721,1.0721,1.0721,1.0721,1.0721,1.0721,1.0721,1.0721,1.0721,1.0738,0.0,0.0,0.0,0.0,0.0,0.0,0.0,0.0,0.0,0.0,0.0,0.0,0.0,0.0,0.0,0.0,0.0,0.0,0.0,0.0,0.0,0.0,0.0,0.0,0.0,0.0,0.0,0.0,0.0,0.0,0.0,0.0,0.0,0.0,0.0,0.0,0.0,0.0,0.0,0.0,0.0,0.0,0.0,0.0,0.0,0.0,0.0,0.0,0.0,0.0,0.0,0.0,0.0,0.0,0.0,0.0,0.0,0.0,0.0,0.0,1.5139,0.0,0.0,0.0,0.0,0.0,0.0,0.0,0.0,0.0,0.0,0.0,0.0,0.0,0.0,0.0,0.0,0.0,0.0,0.0,0.0,0.0,0.0,0.0,0.0,0.0,0.0,0.0,0.0,0.0,0.0,0.0,0.0,0.0,0.0,0.0,0.0,0.0,0.0,0.0,0.0,1.0931,1.0931,1.0931,1.0931,1.0931,1.0904,1.0836,1.0829,1.0802,1.0741,1.0748,0.0,0.0,0.0,0.0,0.0,0.0,0.0,0.0,0.0,0.0,0.0,0.0,0.0,0.0,0.0,0.0,0.0,0.0,0.0,0.0,0.0,0.0,0.0,0.0,0.0,0.0,0.0,0.0,0.0,0.0,0.0,0.0,0.0,0.0,0.0,0.0,0.0,0.0,0.0,0.0,0.0,0.0,0.0,0.0,0.0,0.0,0.0,0.0,0.0,0.0,0.0,0.0,0.0,1.4805,1.5714,1.6104,1.7535,1.8291,1.8378,1.5399,1.5139,1.6953,0.0,0.0,0.0,0.0,0.0,0.0,0.0,0.0,0.0,0.0,0.0,0.0,0.0,0.0,0.0,0.0,0.0,0.0,0.0,0.0,0.0,0.0,0.0,0.0,0.0,2.1109,2.1109,0.0,0.0,0.0,0.0,0.0,0.0,0.0,0.0,0.0,0.0,0.0,0.0,1.1162,1.1162,1.1162,1.1162,1.1162,1.1114,1.0995,1.0985,1.0931,1.0802,1.0114,0.8475,0.0,0.0,0.0,0.0,0.0,0.0,0.0,0.0,0.0,0.0,0.0,0.0,0.0,0.0,0.0,0.0,0.0,0.0,0.0,0.0,0.0,0.0,0.0,0.0,0.0,0.0,0.0,0.0,0.0,0.0,0.0,0.0,2.0575,2.0615,0.0,0.0,0.0,0.0,0.0,0.0,0.0,0.0,0.0,0.0,0.0,0.0,0.0,1.3193,1.2931,1.3193,1.3405,1.3695,1.3961,1.4888,1.6338,1.6602,1.7277,1.8506,1.7988,0.0,2.0456,2.0716,0.0,0.0,0.0,0.0,0.0,0.0,0.0,0.0,0.0,0.0,0.0,0.0,0.0,0.0,0.0,0.0,0.0,0.0,0.0,0.0,0.0,0.0,2.1109,2.1109,2.1109,2.1109,0.0,2.0976,2.0195,1.8506,1.6859,0.0,0.0,0.0,0.0,0.0,0.0,0.0,1.1162,1.1162,1.1162,1.1162,1.1162,1.1155,1.1134,1.1134,1.1084,1.0962,0.7917,0.5834,0.5366,0.282,0.0,0.0,0.0,0.0,0.0,0.0,0.0,0.0,0.0,0.0,0.0,0.0,0.0,0.0,0.0,0.0,0.0,0.0,0.0,0.0,0.0,0.0,0.0,0.0,0.0,0.0,0.0,0.0,0.0,2.0655,2.0915,2.0915,2.1036,2.0849,0.0,0.0,0.0,0.0,0.0,0.0,0.0,0.0,0.0,1.5054,1.609,1.6287,1.5224,1.6287,1.6737,1.6969,1.7906,1.8841,1.9514,1.9514,1.9848,2.0532,2.0532,2.0935,2.1577,2.1243,2.1109,2.1109,0.0,0.0,0.0,0.0,2.1109,2.1109,2.1109,2.1109,0.0,2.1109,0.0,0.0,0.0,0.0,0.0,0.0,0.0,0.0,0.0,0.0,2.1109,2.1109,2.1236,2.1356,2.1356,2.149,2.0754,0.0,1.5889,1.4297,1.255,0.0,0.0,0.0,0.0,1.1419,1.1419,1.1419,1.1419,1.1419,1.1419,1.1385,1.1297,1.129,1.1246,1.1141,0.7563,0.4503,0.2446,0.081,0.148,0.0,0.0,0.0,0.0,0.0,0.0,0.0,0.0,0.0,0.0,0.0,0.0,0.0,0.0,0.0,0.0,0.0,0.0,0.0,0.0,0.0,0.0,0.0,0.0,0.0,0.0,0.0,0.0,2.0969,2.1109,2.1109,2.1109,2.1109,0.0,0.0,0.0,0.0,0.0,0.0,1.87,1.9019,1.8324,1.6599,1.7967,1.8061,1.6845,1.8061,1.9038,1.951,2.087,2.1687,2.2098,2.2098,2.2051,2.1984,2.1984,2.1984,2.1951,2.1516,2.1289,2.1223,2.1223,2.1176,2.1109,2.1109,2.1109,2.1109,2.1109,2.1109,2.1109,2.1109,0.0,2.1109,2.1109,0.0,0.0,0.0,0.0,2.1129,2.1203,2.1223,2.1243,2.1316,2.1503,2.1663,2.1663,2.1891,2.1059,0.0,1.5707,1.4087,1.2313,0.0,0.0,0.0,0.0,1.1619,1.1619,1.1619,1.1619,1.1619,1.1619,1.1572,1.146,1.145,1.1409,1.1314,0.7659,0.3861,0.0137,0.0,0.0,0.0,0.0,0.0,0.0,0.0,0.0,0.0,0.0,0.0,0.0,0.0,0.0,0.0,0.0,0.0,0.0,0.0,0.0,0.0,0.0,0.0,0.0,0.0,0.0,0.0,0.0,0.0,0.0,0.0,0.0,2.1109,2.1109,0.0,0.0,0.0,0.0,2.151,2.153,2.0844,1.9489,1.9385,1.8579,1.6825,1.684,1.6845,1.6845,1.6845,1.7901,1.9776,1.9911,2.0736,2.2398,2.2398,2.2245,2.1984,2.1984,2.1984,2.1984,2.1951,2.1777,2.153,2.153,2.1356,2.1109,2.1109,2.1109,2.1109,2.1109,2.1109,2.1109,2.1109,2.1109,2.1109,2.1109,2.1109,0.0,0.0,2.1109,2.1176,2.1456,2.153,2.1597,2.1877,2.1951,2.1964,2.1964,2.2191,2.1763,0.0,1.7825,1.6058,1.441,0.0,1.1606,1.1606,1.1613,1.1619,1.1619,1.1619,1.1619,1.1619,1.1619,1.1616,1.1609,1.1606,1.1569,1.1619,0.7979,0.4079,0.0138,0.0,0.0,0.0,0.0,0.0,0.0,0.0,0.0,0.0,0.0,0.0,0.0,0.0,0.0,0.0,0.0,0.0,0.0,0.0,0.0,0.0,0.0,0.0,0.0,0.0,0.0,0.0,0.0,0.0,0.0,0.0,0.0,2.1109,2.1109,0.0,2.1376,2.1396,2.1516,2.181,2.183,2.1608,2.1166,2.1206,2.1028,2.0478,2.0644,2.0743,2.0743,2.0743,2.1065,2.1725,2.1725,2.2141,2.2706,2.2706,2.2652,2.2545,2.2545,2.2545,2.2545,2.2545,2.2265,2.183,2.183,2.177,2.167,2.167,2.167,2.167,2.167,2.167,2.167,2.167,2.167,2.167,2.167,2.167,2.167,2.167,2.167,2.1697,2.1804,2.183,2.1857,2.1964,2.2131,2.2265,2.2265,2.2492,2.2536,2.1732,1.9152,1.6428,1.4608,1.2847,1.1619,1.1619,1.1619,1.1619,1.1619,1.1619,1.1619,1.1619,1.1619,1.1619,1.1619,1.1619,1.1619,1.1626,0.7888,0.41,0.0139,0.0,0.0,0.0,0.0,0.0,0.0,0.0,0.0,0.0,0.0,0.0,0.0,0.0,0.0,0.0,0.0,0.0,0.0,0.0,0.0,0.0,0.0,0.0,0.0,0.0,0.0,0.0,0.0,0.0,0.0,0.0,2.1149,2.1249,2.1256,2.1376,2.167,2.1697,2.1817,2.2111,2.2131,2.2171,2.2278,2.2465,2.2565,2.2565,2.2759,2.2859,2.2859,2.2859,2.2859,2.2859,2.2859,2.2859,2.2859,2.2859,2.2859,2.2859,2.2859,2.2859,2.2859,2.2859,2.2632,2.2271,2.2171,2.2071,2.1984,2.1984,2.1984,2.1984,2.1984,2.1984,2.1984,2.1984,2.1984,2.1984,2.1984,2.1984,2.1984,2.1984,2.1984,2.2004,2.2104,2.2131,2.2158,2.2258,2.2432,2.2565,2.2565,2.2719,2.2859,2.2859,1.9773,1.6831,1.5561,1.3313,1.1636,1.1684,1.165,1.1636,1.1684,1.165,1.1619,1.1619,1.1619,1.1619,1.1619,1.1619,1.1643,1.1556,0.7942,0.3994,0.0141,0.0,0.0,0.0,0.0,0.0,0.0,0.0,0.0,0.0,0.0,0.0,0.0,0.0,0.0,0.0,0.0,0.0,0.0,0.0,0.0,0.0,0.0,0.0,0.0,0.0,0.0,0.0,0.0,0.0,2.1122,2.1122,2.1236,2.153,2.157,2.1677,2.1971,2.1997,2.2118,2.2412,2.2432,2.2559,2.2846,2.2859,2.2859,2.2859,2.2859,2.2859,2.2859,2.2859,2.2859,2.2859,2.2859,2.2859,2.2859,2.2859,2.2859,2.2859,2.2859,2.2859,2.2859,2.2859,2.2859,2.2832,2.2545,2.2258,2.2011,2.2011,2.2011,2.2011,2.2011,2.2011,2.2143,2.2011,2.2011,2.2143,2.2011,2.2011,2.2011,2.2011,2.2011,2.2078,2.2358,2.2432,2.2505,2.2792,2.2859,2.2859,2.2859,2.2859,2.2859,2.2859,1.9773,1.7253,1.7253,1.416,1.1664,1.1803,1.1708,0.0,1.1806,1.1704,1.1619,1.1626,1.1626,1.1626,1.1626,1.1626,1.165,1.1556,0.8005,0.4047,0.0143,0.0,0.0,0.0,0.0,0.0,0.0,0.0,0.0,0.0,0.0,0.0,0.0,0.0,0.0,0.0,0.0,0.0,0.0,0.0,0.0,0.0,0.0,0.0,0.0,0.0,0.0,0.0,0.0,2.143,2.143,2.143,2.1543,2.183,2.1864,2.1984,2.2271,2.2298,2.2418,2.2719,2.2739,2.2779,2.2859,2.2859,2.2859,2.2859,2.2859,2.2859,2.2859,2.2859,2.2859,2.2859,2.2859,2.2859,2.2859,2.2859,2.2859,2.2859,2.2859,2.2859,2.2859,2.2859,2.2859,2.2853,2.2772,2.2692,2.2619,2.2619,2.2619,2.2619,2.2619,2.3544,2.4329,2.3011,2.3544,2.4329,2.3018,2.2619,2.2619,2.2619,2.2619,2.2639,2.2719,2.2739,2.2766,2.2846,2.2859,2.2859,2.2859,2.2859,2.2859,2.2859,1.9773,1.7253,1.7253,1.416,1.1633,1.1674,1.1643,0.0,1.1674,1.1643,1.1657,1.1762,1.1772,1.1772,1.1772,1.1772,1.1752,1.1563,0.8005,0.4047,0.0143,0.0,0.0,0.0,0.0,0.0,0.0,0.0,0.0,0.0,0.0,0.0,0.0,0.0,0.0,0.0,0.0,0.0,0.0,0.0,0.0,0.0,0.0,0.0,0.0,0.0,0.0,0.0,2.1737,2.1777,2.1897,2.181,2.1844,2.2131,2.2164,2.2285,2.2572,2.2605,2.2679,2.2846,2.2859,2.2859,2.2859,2.2986,2.3053,2.3053,2.318,2.3247,2.3247,2.3247,2.3247,2.3247,2.3247,2.3247,2.3247,2.3247,2.3247,0.0,2.3113,2.3053,2.3046,2.2919,2.3393,0.0,0.0,0.0,0.0,0.0,2.3924,2.406,2.4858,2.5786,2.6439,2.5383,2.5256,2.5248,2.4324,2.3529,2.2859,2.2859,2.2859,2.2859,2.2859,2.2859,2.2859,2.2859,2.2859,2.2859,2.2859,2.2859,2.2859,2.2859,1.9854,0.0,1.7384,1.4125,1.1731,1.1796,1.1806,1.1826,1.1891,1.1843,1.1813,1.183,1.183,1.1806,1.1748,1.1742,0.0,0.0,0.0,0.4056,0.0144,0.0,0.0,0.0,0.0,0.0,0.0,0.0,0.0,0.0,-0.8786,-1.0645,0.0,0.0,0.0,0.0,0.0,0.0,0.0,0.0,0.0,0.0,0.0,0.0,0.0,0.0,0.0,0.0,2.2038,2.2138,2.2425,2.2245,2.2184,2.2438,2.2472,2.2572,2.2839,2.2859,2.2879,2.2913,2.2919,2.2933,2.2966,0.0,0.0,0.0,0.0,2.3774,2.3774,2.3774,2.3774,2.3774,2.3774,2.3774,2.3774,2.3774,2.3774,2.3754,2.3494,2.338,2.3354,2.3349,2.4273,2.5697,2.4074,2.3529,2.3659,2.5248,2.5778,2.6046,2.7643,0.0,0.0,2.804,2.698,2.5778,2.5383,2.4188,2.2859,2.2859,2.2859,2.2859,2.2859,2.2859,2.2859,2.2859,2.2859,2.2859,2.2859,2.2893,2.2913,2.2631,1.9876,1.7463,1.7181,1.4164,1.1904,1.204,1.206,1.2111,1.2247,1.2145,1.2016,1.1898,0.0,0.0,1.1681,1.1653,1.166,1.1556,0.757,0.3635,0.0146,0.0,0.0,0.0,0.0,0.0,-0.0,-0.0807,-0.4308,-1.0149,-1.0561,-1.0675,0.0,0.0,0.0,0.0,0.0,0.0,0.0,0.0,0.0,0.0,0.0,0.0,0.0,0.0,0.0,2.2291,2.2338,2.2438,2.2732,2.2726,2.2712,2.2772,2.2779,2.2799,2.2853,2.2859,2.2966,2.322,2.324,2.334,2.3581,2.3654,0.0,2.3688,2.3741,2.3774,2.3774,2.3774,2.3774,2.3774,0.0,0.0,2.3774,2.3774,2.3774,2.3768,2.3714,2.3688,2.3816,2.5247,2.6824,2.8166,2.7483,2.7105,2.7246,2.7511,2.7635,2.7776,2.804,2.9083,2.9856,2.6964,2.6706,2.7105,2.4324,2.3126,0.0,2.2859,2.2859,2.2859,2.2859,2.2859,2.2859,2.2859,2.2859,2.2859,2.2859,2.306,2.2808,2.109,1.9129,1.7258,1.5656,1.3473,1.203,1.2057,1.206,1.2074,1.2101,1.2081,1.2098,1.2193,1.2091,1.2006,1.1979,1.186,1.1765,1.1563,0.4953,0.0729,0.0,0.0,0.0,0.0,0.0,0.0,-0.0,-0.5794,-0.7821,-0.6447,-0.9306,-1.0658,0.0,0.0,0.0,0.0,0.0,0.0,0.0,0.0,0.0,0.0,0.0,2.2031,2.2178,0.0,2.2298,2.2592,2.2639,2.2692,2.2839,2.2859,2.2859,2.2859,2.2859,2.2926,2.308,2.3093,2.322,2.3527,2.3547,2.3614,2.3761,2.3908,2.3988,2.3988,2.4128,2.4202,2.4202,2.4202,2.4202,2.4202,2.4202,2.4202,2.4202,2.4202,2.4202,2.4195,2.5013,2.5364,2.5626,2.8217,2.9817,3.058,3.1193,3.0083,2.8303,2.9213,2.9474,2.9605,3.0531,3.1313,3.1835,2.9995,2.8943,2.7908,2.6054,2.4324,2.2859,2.2859,2.2859,2.2859,2.2859,2.2859,2.2859,2.2859,2.2979,2.3093,2.3093,2.3333,2.3258,2.2241,1.9821,1.763,1.6744,1.4164,1.2257,1.2186,1.2237,1.2281,1.2281,1.2281,1.2284,1.2291,1.2223,1.2115,1.1959,1.1837,1.161,1.158,0.4375,0.0,0.0,0.0,0.0,0.0,0.0,0.0,-0.0,-0.7152,-0.9731,-0.8071,-0.9831,-1.0765,0.0,0.0,0.0,0.0,0.0,0.0,0.0,0.0,2.2071,2.2071,2.2118,2.2225,2.2458,2.2505,2.2585,2.2819,2.2859,2.2886,2.2946,2.2953,2.2973,2.3033,2.2986,2.3073,2.338,2.3414,2.3534,2.3834,2.3855,2.3881,2.3935,2.4162,2.4289,2.4289,2.4516,2.4636,2.4636,2.4636,2.4636,2.4636,2.4636,2.4636,2.4636,2.4636,2.4636,2.4616,2.6351,2.7491,2.8452,3.1234,3.2447,3.2929,3.4287,3.2598,2.9559,3.0924,3.1423,3.1672,3.2921,3.3418,3.3292,3.3019,3.0789,2.8172,2.7776,2.539,2.2859,2.2859,2.2859,2.2879,2.2939,2.2953,2.2966,2.3026,2.3227,2.3414,2.3414,2.3647,2.3705,2.3412,2.0523,1.8006,1.7703,1.4686,1.2464,1.2349,1.2427,1.2501,1.2501,1.2501,1.2457,1.2342,1.2305,1.2169,1.1867,1.1011,1.0822,1.159,0.4232,0.0,0.0,0.0,0.0,0.0,0.0,-0.0675,-0.2153,-0.7148,-0.9999,-1.0662,-1.0761,-1.0738,2.6967,2.5699,2.4433,2.4349,2.3109,2.1984,0.0,0.0,2.2372,2.2372,2.2579,2.2772,2.2806,2.2812,2.2826,2.2859,2.2859,2.2959,2.324,2.3273,2.3374,2.3641,2.3434,2.3394,2.3694,2.3721,2.3841,2.4135,2.4155,2.4269,2.4523,2.4569,2.4589,2.4589,2.4616,2.4636,2.4636,2.4636,2.4636,2.4636,2.4636,2.4636,2.4636,2.4636,2.4636,2.4784,2.6605,2.9424,3.2533,3.2914,3.3824,3.5036,3.5312,3.4725,3.396,3.3733,3.3727,3.3669,3.3428,3.3418,3.3155,3.1561,2.9735,2.7908,2.6314,2.4452,2.2859,2.2859,2.2859,2.2926,2.32,2.3273,2.334,2.3607,2.3694,2.3721,2.3721,2.3948,2.3562,2.177,1.9883,1.7928,1.6111,1.4011,1.2494,1.2481,1.2491,1.2501,1.2501,1.2501,1.2494,1.2481,1.2366,1.2179,1.1901,0.8496,0.7867,1.1441,0.4232,0.0,0.0,0.0,0.0,0.0,0.0,-0.3134,-0.9469,-0.713,-0.7653,-1.0758,-1.0734,-1.0721,2.7723,2.6087,2.4691,0.0,2.2887,2.2498,2.2498,2.2592,2.2679,2.2679,2.2779,2.2859,2.2859,2.2859,2.2859,0.0,2.3013,2.318,2.3307,2.3474,2.3694,2.3988,2.3915,2.3888,2.4015,2.4022,2.4142,2.4436,2.4456,2.4509,2.4629,2.4636,2.4636,2.4636,2.4636,2.4636,2.4636,2.4636,2.4636,2.4636,2.4636,2.4636,2.4636,2.5786,2.749,2.9615,3.0476,3.2316,3.4874,3.4874,3.5208,3.5762,3.5762,3.5635,3.5381,3.4687,3.4434,3.4414,3.4228,3.417,3.3992,3.3068,3.0871,2.8344,2.7541,2.5408,2.3166,2.334,2.3387,2.342,2.3547,2.3587,2.3614,2.3741,2.3901,2.4022,2.4022,2.4249,2.4149,2.3395,2.0768,1.827,1.7512,1.4629,1.2501,1.2501,1.2501,1.2501,1.2501,1.2501,1.2501,1.2501,1.2376,1.222,1.205,0.8145,0.5569,0.4818,0.1751,0.0,0.0,0.0,0.0,0.0,-0.4153,-0.7667,-1.0705,-0.9154,-0.9265,-1.0755,-1.0731,-1.124,2.9564,2.7827,0.0,2.5018,2.4549,2.4196,2.3795,2.3659,2.3529,2.2996,2.2859,2.2859,2.2859,2.2933,2.2993,2.2993,2.3247,2.348,2.3561,2.3754,2.3995,2.4289,2.4322,2.4322,2.4322,2.4322,2.4409,2.4623,2.4636,2.4636,2.4636,2.4636,2.4636,2.4636,2.4636,2.4636,2.4636,2.4636,2.4636,2.4636,2.4636,2.4924,2.5499,2.7353,3.005,3.317,3.317,3.4305,3.6016,3.6016,3.6016,3.6016,3.6016,3.6016,3.5937,3.5303,3.499,3.4873,3.4746,3.4697,3.4648,3.4346,3.1811,2.8849,2.8849,2.629,2.3494,2.3714,2.3774,2.3788,2.3868,2.3888,2.3915,2.3988,2.4168,2.4322,2.4322,2.4489,2.4636,2.4636,2.1297,1.8572,1.8572,1.5238,1.2501,1.2501,1.2501,1.2501,1.2501,1.2501,1.2501,1.2501,1.2379,1.2257,1.2159,0.9274,0.531,0.0292,0.0,0.0,0.0,0.0,0.0,0.0,-0.71,-1.0753,-1.0695,-1.0645,-1.0751,-1.0744,-1.1251,-1.2153,3.3253,3.1935,3.0624,3.0624,2.9327,2.7643,2.5778,2.5383,2.4986,2.3263,2.2859,2.2859,2.2859,2.3106,2.3313,2.3313,2.3567,2.3855,2.4142,2.4182,2.4295,2.4589,2.4623,2.4623,0.0,2.4623,2.4623,2.4636,2.4636,2.4636,2.4636,2.4636,2.4636,2.4636,2.4636,2.4636,2.4636,2.4636,2.4636,2.4636,2.4636,2.5646,2.7505,2.9329,3.1307,3.317,3.317,3.4305,3.6016,3.6016,3.6016,3.6016,3.6016,3.6016,3.6016,3.5986,3.5723,3.5303,3.4853,3.4697,3.4697,3.4687,3.2211,2.9212,2.9212,2.6628,2.3761,2.3768,2.3774,2.3834,2.4115,2.4189,2.4262,2.4543,2.4616,2.4623,2.4623,2.4629,2.4636,2.4636,2.1297,1.8572,1.8572,1.5238,1.2501,1.2501,1.2501,1.2501,1.2501,1.2501,1.2501,1.2501,1.2393,1.2277,1.247,1.1884,0.8152,0.0438,0.0,0.0,0.0,0.0,0.0,0.0,-0.7025,-1.0708,-1.0675,-1.0638,-1.0741,-1.0721,-1.2413,-1.3193,3.1963,3.1295,3.0513,2.9344,2.8689,2.804,2.737,2.6314,2.5383,2.4723,2.3832,2.3173,2.3173,2.342,2.3621,2.3621,2.3868,2.4095,2.4189,2.4369,2.4529,2.4623,2.4636,0.0,0.0,0.0,0.0,2.4636,2.4636,2.4636,2.4636,2.4636,2.4636,2.4636,2.4636,2.5212,2.6502,2.6502,2.7208,2.8326,2.8326,2.9472,3.1324,3.1887,3.33,3.5021,3.5021,3.5451,3.6016,3.6016,3.6016,3.6016,3.6016,3.6016,3.6016,3.6016,3.5928,3.5791,3.5635,3.5576,3.5527,3.5254,3.2648,2.9591,2.9591,2.6966,2.4102,2.4289,2.4342,2.4369,2.4469,2.4489,2.4516,2.4616,2.4636,2.4636,2.4636,2.4636,2.4636,2.4636,2.1297,1.8572,1.8572,1.5238,1.2501,1.2501,1.2501,1.2501,1.2501,1.2501,1.2501,1.2501,1.2484,1.1287,0.8627,1.0745,0.8681,0.0584,0.0,0.0,0.0,0.0,-0.2306,-0.7032,-0.715,-0.8293,-1.0638,-1.0744,-1.0727,-1.0721,-1.2545,-1.397,3.2091,3.1698,3.1442,3.0401,3.0012,2.9874,2.9213,2.8287,2.7262,2.6729,2.5868,2.5244,2.5499,2.5228,2.4887,2.4887,2.4589,2.4356,2.4356,2.4516,2.4636,2.4636,2.4636,2.4636,0.0,0.0,0.0,2.4636,2.4636,2.4636,2.4636,2.4636,2.4924,2.5639,2.5639,2.6495,2.8485,2.8485,2.9051,3.031,3.1017,3.2018,3.317,3.3882,3.4874,3.6016,3.6016,3.6016,3.6016,3.6016,3.6016,3.6016,3.6016,3.6016,3.6016,3.6016,3.6016,3.6016,3.6016,3.6016,3.5976,3.5703,3.3066,2.9971,2.9971,2.7312,2.4396,2.4583,2.4636,2.4636,2.4636,2.4636,2.4636,2.4636,2.4636,2.4636,2.4636,2.4636,2.4636,2.4636,2.1297,1.8572,1.8572,1.5238,1.2501,1.2501,1.2501,1.2501,1.2501,1.2501,1.2501,1.2501,1.2498,1.0824,0.6646,0.739,0.5675,0.0292,0.0,0.0,0.0,-0.2625,-0.6204,-1.0591,-0.855,-0.8549,-1.0755,-1.0731,-1.0721,-1.0717,-1.3193,-1.4879,3.3418,3.3418,3.3418,3.3418,3.3418,3.3019,3.1295,3.0918,3.0517,2.916,2.8859,2.8992,0.0,0.0,2.6997,2.6997,2.5721,2.4636,2.4636,2.4636,2.4636,0.0,0.0,0.0,0.0,0.0,0.0,2.4636,0.0,2.4636,2.4784,2.4777,2.5639,2.7643,2.7643,2.8485,3.0451,3.0593,3.0593,3.0593,3.2455,3.3309,3.3448,3.5167,3.6016,3.6016,3.6016,3.6016,3.6016,3.6016,3.6016,3.6016,3.6016,3.6016,3.6016,3.6016,3.6016,3.6016,3.6016,3.6016,3.6016,3.5879,3.3309,3.031,3.0168,2.762,2.4636,2.4636,2.4636,2.4636,2.4636,2.4636,2.4636,2.4636,2.4636,2.4636,2.4636,2.4636,2.4636,2.4488,2.1147,1.8421,1.827,1.5089,1.2501,1.2501,1.2501,1.2501,1.2501,1.2501,1.2501,1.2501,1.243,1.0753,0.6642,0.2391,0.0,0.0,0.0,0.0,0.0,-0.7454,-1.1309,-1.0731,-1.0955,-1.092,-1.0751,-1.0731,-1.0721,-1.085,-1.4362,-1.5918,3.3418,3.3418,3.3418,3.3418,3.3418,3.3292,3.2892,3.1939,3.1127,3.083,3.0088,2.9663,0.0,0.0,0.0,2.7371,2.5876,0.0,2.4636,2.4636,0.0,2.4636,0.0,2.4636,2.4636,2.4636,0.0,0.0,2.4636,2.5212,2.6641,2.6787,2.7635,2.9472,2.9607,3.046,3.2455,3.3872,3.459,3.459,3.5021,3.5304,3.5304,3.5733,3.6016,3.6016,3.6016,3.6016,3.6016,3.6016,3.6016,3.6016,3.6016,3.6016,3.6016,3.6016,3.6016,3.6016,3.6016,3.6016,3.5733,3.4314,3.2307,3.0026,2.8629,2.6495,2.4636,2.4636,2.4636,2.4636,2.4636,2.4636,2.4636,2.4636,2.4636,2.4636,2.4636,2.4636,2.4179,2.2664,1.902,1.5841,1.4326,1.3263,1.2501,1.2501,1.2501,1.2501,1.2501,1.2501,1.2501,1.2501,1.243,1.0753,0.6642,0.2391,0.0,0.0,0.0,0.0,0.0,-0.7454,-1.1442,-1.1124,-1.1084,-1.0913,-1.0727,-1.0724,-1.1372,-1.2672,-1.4879,-1.656,3.3418,3.3418,3.3418,3.3418,3.3564,3.3711,3.3711,3.323,3.2918,3.3114,3.2691,3.2346,3.2516,3.0468,2.8772,0.0,0.0,0.0,2.4636,2.4636,2.4636,0.0,2.4636,0.0,2.4636,2.4636,2.4636,0.0,2.4636,2.5499,2.736,2.7505,2.8772,3.1456,3.1597,3.2447,3.4452,3.5451,3.6016,3.6016,3.6016,3.6016,3.6016,3.6016,3.6016,3.6016,0.0,3.6016,3.6016,3.6016,3.6016,3.6016,3.6016,3.6016,3.6016,3.6016,3.6016,3.6016,3.6016,3.6016,3.5733,3.3882,3.1878,2.9892,2.8068,2.6071,2.4636,2.4636,2.4636,2.4636,2.4636,2.4636,2.4636,2.4636,2.4636,2.4636,2.4636,2.4636,2.3722,2.0841,1.7659,1.4931,1.2807,1.2501,1.2501,1.2501,1.2501,1.2501,1.2501,1.2501,1.2484,1.243,1.2495,1.1598,0.9174,0.3413,0.0,0.0,0.0,-0.1459,-0.4962,-0.7588,-0.9664,-1.1097,-1.1064,-1.0896,-1.0721,-1.0721,-1.1633,-1.3325,-1.5139,-1.6824,3.3418,3.3418,3.3428,3.3496,3.3799,3.4092,3.4141,3.4482,3.4912,3.5312,3.5439,3.5586,3.5957,3.3161,3.0593,3.031,0.0,2.5205,2.5065,2.5205,2.5345,2.5345,2.5212,2.5065,2.5345,2.5058,2.5065,2.5345,2.5345,2.6064,2.778,2.8068,2.9916,3.3457,3.3596,3.4305,3.6016,3.6016,3.6016,3.6016,3.6016,3.6016,3.6016,3.6016,3.6016,3.6016,3.6016,0.0,3.6016,3.6016,3.6016,3.6016,3.6016,3.6016,3.6016,3.6016,3.6016,3.6016,3.6016,3.6016,3.5597,3.3448,3.1729,2.9892,2.778,2.5925,2.4636,2.4636,2.4636,2.4636,2.4636,2.4636,2.4636,2.4636,2.4636,2.4636,2.4636,2.4179,2.2812,1.9327,1.6751,1.4475,1.2807,1.2501,1.2501,1.2501,1.2501,1.2501,1.2501,1.2501,1.2457,1.2495,1.2062,1.1945,1.2441,0.4853,0.0,0.0,0.0,-0.3501,-1.1296,-0.8295,-0.7886,-1.0935,-1.1162,-1.0999,-1.0721,-1.0982,-1.1894,-1.3713,-1.5399,-1.7211,3.3418,3.3418,3.3506,3.3867,3.4023,3.416,3.4512,3.4941,3.5293,3.5371,3.5664,3.5937,3.6006,3.4167,3.2167,3.0593,2.9741,2.8757,2.7215,2.8334,2.9321,0.0,2.7917,2.7635,2.9179,2.7917,0.0,0.0,0.0,2.9464,2.9749,3.1316,3.317,3.5451,3.5451,3.5733,3.6016,3.6016,3.6016,3.6016,3.6016,3.6016,3.6016,3.6016,3.6016,3.6016,3.6016,0.0,3.6016,3.6016,3.6016,3.6016,3.6016,3.6016,3.6016,3.6016,3.6016,3.6016,3.6016,3.6016,3.5451,3.1878,3.0593,2.9599,2.6203,2.4924,2.4636,2.4636,2.4636,2.4636,2.4636,2.4636,2.4636,2.4636,2.4636,2.4636,2.4636,2.2055,1.9478,1.8723,1.554,1.2958,1.2501,1.2501,1.2501,1.2501,1.2501,1.2501,1.2501,1.2501,1.2457,1.2495,0.9432,0.873,1.2137,0.4853,0.0,0.0,0.0,-0.3501,-1.1296,-1.0715,-1.0549,-1.0935,-1.0926,-1.0897,-1.0721,-1.2153,-1.3713,-1.5524,-1.7211,-1.9024,3.3418,3.3584,3.3809,3.4023,3.4414,3.4814,3.501,3.54,3.5723,3.5723,3.5879,3.6016,3.6016,3.4452,3.2883,3.2027,3.1017,3.0034,2.9043,2.9749,3.031,3.031,2.9472,2.9329,0.0,2.9472,0.0,0.0,0.0,3.1878,3.1878,3.3596,3.5021,3.6016,3.6016,3.6016,3.6016,3.6016,3.6016,3.6016,3.6016,3.6016,3.6016,3.6016,3.6016,3.6016,3.6016,0.0,3.6016,3.6016,3.6016,3.6016,3.6016,3.6016,3.6016,3.6016,3.6016,3.5879,3.4874,3.459,3.3882,3.0042,2.9464,2.9599,2.5772,2.4636,2.4636,2.4636,2.4636,2.4636,2.4636,2.4636,2.4636,2.4636,2.4636,2.4334,2.3271,2.0692,1.8265,1.7208,1.4633,1.2501,1.2501,1.2501,1.2501,1.2501,1.2501,1.2481,1.2574,1.2567,1.2522,1.2557,1.0739,0.8515,0.6196,0.2343,0.0,0.0,-0.3794,-0.6859,-0.8462,-1.023,-1.1221,-1.105,-1.1029,-1.0873,-1.0721,-1.2413,-1.4232,-1.5913,-1.7731,-1.9909,3.3418,3.374,3.4092,3.4189,3.4805,3.542,3.5508,3.5781,3.6016,3.6016,3.6016,3.6016,3.6016,3.4737,3.3734,3.3309,3.2307,3.1448,3.1025,3.1307,3.1589,3.1589,3.1166,0.0,3.1448,3.1166,0.0,0.0,0.0,0.0,3.3734,3.5167,3.6016,3.6016,3.6016,3.6016,3.6016,3.6016,3.6016,3.6016,3.6016,3.6016,3.6016,3.6016,3.6016,3.6016,3.6016,0.0,0.0,3.6016,3.6016,3.6016,3.6016,3.6016,3.6016,3.6016,3.5733,3.5167,3.3734,3.2883,3.2027,2.8637,2.8485,2.9043,2.5632,2.4636,2.4636,2.4636,2.4636,2.4636,2.4636,2.4636,2.4636,2.4636,2.4334,2.3568,2.19,1.9629,1.7512,1.5841,1.3868,1.2501,1.2501,1.2501,1.2501,1.2501,1.2474,1.2427,1.2495,1.165,1.1582,1.2428,1.249,0.9055,0.0731,0.0,0.0,0.0,-0.7306,-1.0242,-0.7127,-0.9743,-1.1168,-1.1165,-1.0989,-1.097,-1.124,-1.3062,-1.4749,-1.6565,-1.825,-2.067,3.3418,3.374,3.416,3.4541,3.5019,3.5498,3.5879,3.5986,3.6016,3.6016,3.6016,3.6016,3.6016,3.5879,3.5167,3.3457,3.4452,3.4874,3.317,3.4443,3.5451,3.5451,0.0,0.0,3.5304,3.3872,0.0,0.0,0.0,0.0,3.5733,3.5879,3.6016,3.6016,3.6016,3.6016,3.6016,3.6016,3.6016,3.6016,3.6016,3.6016,3.6016,3.6016,3.6016,3.6016,3.6016,0.0,0.0,3.6016,3.6016,3.6016,3.6016,3.6016,3.6016,3.6016,3.4874,3.3448,3.3309,3.2027,3.0176,2.8205,2.7643,2.7353,2.5205,2.4636,2.4636,2.4636,2.4636,2.4636,2.4636,2.4636,2.4636,2.4636,2.3264,2.19,2.1601,1.8567,1.5688,1.554,1.3868,1.2501,1.2501,1.2501,1.2501,1.2501,1.2393,1.2315,1.2481,0.9195,0.8331,1.2137,1.2441,0.9055,0.0731,0.0,0.0,0.0,-0.7306,-1.1434,-1.1112,-1.111,-1.1067,-1.1165,-1.0884,-1.1519,-1.3062,-1.4749,-1.656,-1.825,-2.0068,-2.1839,3.3418,3.3926,3.4492,3.4658,3.5234,3.581,3.5976,3.6016,3.6016,3.6016,3.6016,3.6016,3.6016,3.6016,3.5733,3.5021,3.5451,3.5733,3.5021,3.5587,3.6016,3.6016,3.5304,0.0,0.0,0.0,0.0,0.0,0.0,0.0,3.6016,3.6016,3.6016,3.6016,3.6016,3.6016,3.6016,3.6016,3.6016,3.6016,3.6016,3.6016,3.6016,3.6016,3.6016,3.6016,3.6016,0.0,0.0,3.6016,3.6016,3.6016,3.6016,3.5304,3.4305,3.4305,3.3161,3.1307,3.0192,2.9194,2.8341,2.6349,2.5786,2.5639,2.4777,2.4636,2.4636,2.4636,2.4636,2.4636,2.4636,2.4636,2.4636,2.4636,2.3116,2.1297,2.0085,1.7507,1.5085,1.3868,1.3112,1.2474,1.2389,1.2376,1.2342,1.225,1.2203,1.2302,1.2244,1.0937,1.0715,1.2328,0.7966,0.3668,0.0292,0.0,-0.2042,-0.672,-0.7731,-0.9184,-1.1529,-1.1358,-1.1175,-1.1162,-1.087,-1.1501,-1.3325,-1.5009,-1.6824,-1.8506,-2.0329,-2.2584,3.3418,3.4053,3.4697,3.4697,3.5371,3.6016,3.6016,3.6016,3.6016,3.6016,3.6016,3.6016,3.6016,3.6016,3.6016,3.6016,3.6016,3.6016,3.6016,3.6016,3.6016,3.6016,0.0,3.6016,0.0,0.0,0.0,0.0,0.0,0.0,3.6016,3.6016,3.6016,3.6016,3.6016,3.6016,3.6016,3.6016,3.6016,3.6016,3.6016,3.6016,3.6016,3.6016,3.6016,3.6016,3.6016,0.0,0.0,3.6016,3.5733,3.5158,3.5158,3.402,3.2307,3.2307,3.1175,2.9329,2.7924,2.707,2.6342,2.4963,2.4509,2.4489,2.4409,2.4442,2.4509,2.4509,2.4442,2.4382,2.4382,2.4382,2.4229,2.3618,2.1969,2.0021,1.7926,1.5979,1.4026,1.2675,1.2372,1.2338,1.224,1.2223,1.2189,1.2088,1.2054,1.2162,1.2247,1.2223,1.142,0.911,0.3506,0.0,0.0,-0.2042,-0.5839,-1.1296,-0.9039,-0.8721,-1.1509,-1.1338,-1.1162,-1.1162,-1.14,-1.2281,-1.4101,-1.5784,-1.7597,-1.9291,-2.0583,-2.2812,3.3418,3.4053,3.4697,3.4697,3.5371,3.6016,3.6016,3.6016,3.6016,3.6016,3.6016,3.6016,3.6016,3.6016,3.6016,3.6016,3.6016,3.6016,3.6016,3.6016,3.6016,0.0,0.0,3.6016,3.6016,3.6016,0.0,0.0,0.0,0.0,3.6016,3.6016,3.6016,3.6016,3.6016,3.6016,3.6016,3.6016,3.6016,3.6016,3.6016,3.6016,3.6016,3.6016,3.6016,0.0,0.0,0.0,0.0,3.6016,3.4883,3.317,3.317,3.2027,3.031,3.031,2.9186,2.7505,2.7505,2.621,2.4589,2.4302,2.4209,2.4155,2.3868,2.3981,2.4209,2.4209,2.4001,2.3781,2.3781,2.3781,2.3333,2.1414,1.9364,1.7467,1.558,1.3534,1.2067,1.2067,1.2067,1.2064,1.2064,1.2064,1.2074,1.2244,1.1979,1.2058,1.2423,1.199,0.8632,0.1022,0.0,0.0,0.0,-0.7013,-1.1444,-1.1593,-1.1539,-1.1509,-1.1653,-1.1338,-1.1162,-1.1162,-1.259,-1.4101,-1.5918,-1.7602,-1.9419,-2.1109,-2.1109,-2.2812,3.3418,3.4053,3.4697,3.4697,3.5371,3.6016,3.6016,3.6016,3.6016,3.6016,3.6016,3.6016,3.6016,3.6016,3.6016,3.6016,3.6016,3.6016,3.6016,3.6016,3.6016,3.6016,3.6016,3.6016,0.0,0.0,0.0,0.0,0.0,0.0,3.6016,3.6016,3.6016,3.6016,3.6016,3.6016,3.6016,3.6016,3.6016,3.6016,3.6016,3.6016,3.6016,3.6016,3.6016,0.0,0.0,0.0,0.0,3.459,3.3734,3.3022,3.1738,3.0042,2.8349,2.8349,2.7208,2.5499,2.5499,2.4936,2.4329,2.4235,2.4068,2.3888,2.3801,2.3834,2.3908,2.3908,2.3841,2.3774,2.3774,2.2879,2.1701,2.1108,1.8342,1.5865,1.5285,1.3531,1.206,1.206,1.206,1.203,1.1921,1.1925,1.1908,1.1809,1.1789,1.1792,1.1816,0.7031,0.2772,0.0292,0.0,0.0,0.0,-0.716,-1.1586,-1.1573,-1.1533,-1.1647,-1.163,-1.1328,-1.1706,-1.2929,-1.3249,-1.4749,-1.7731,-1.8244,-1.9419,-2.1102,-2.3427,-2.5008,3.3418,3.4053,3.4697,3.4697,3.5371,3.6016,3.6016,3.6016,3.6016,3.6016,3.6016,3.6016,3.6016,3.6016,3.6016,3.6016,3.6016,3.6016,3.6016,3.6016,0.0,3.6016,0.0,0.0,0.0,0.0,0.0,0.0,0.0,0.0,3.6016,3.6016,3.6016,3.6016,3.6016,3.6016,3.6016,3.6016,3.6016,3.6016,3.6016,3.6016,3.6016,3.6016,3.6016,0.0,0.0,0.0,0.0,3.2874,3.1746,3.0901,2.9757,2.8061,2.6357,2.6357,2.5639,2.4623,2.4509,2.4356,2.4168,2.3941,2.3667,2.3427,2.3427,2.3514,2.3581,2.346,2.2992,2.2422,2.2422,2.097,1.9382,1.8656,1.6649,1.4637,1.3917,1.2765,1.1894,1.1894,1.1894,1.1864,1.1769,1.1775,1.1319,0.961,1.0671,1.0553,0.7599,0.3064,0.0,0.0,-0.2625,-0.4378,-0.4378,-0.7445,-1.0079,-1.1539,-1.1657,-1.1609,-1.1538,-1.1294,-1.1949,-1.3637,-1.4135,-1.5654,-1.8506,-1.9158,-2.0068,-2.1229,-2.4525,-2.5976,0.0,3.4023,3.4658,3.4687,3.5342,3.5986,3.6016,3.6016,0.0,3.6016,3.6016,3.6016,3.6016,3.6016,3.6016,3.6016,3.6016,3.6016,0.0,3.6016,0.0,0.0,3.6016,0.0,0.0,0.0,0.0,0.0,0.0,0.0,3.6016,3.6016,3.6016,3.6016,3.6016,3.6016,3.6016,3.6016,3.6016,3.6016,3.6016,3.6016,3.6016,3.6016,3.5879,0.0,0.0,0.0,0.0,3.0884,2.9043,2.7505,2.736,2.6218,2.4636,2.4636,2.4623,2.4569,2.4295,2.4175,2.4048,2.348,2.31,2.2859,2.2859,2.3066,2.3233,2.2946,2.1596,2.0334,2.0196,1.8653,1.669,1.4853,1.429,1.3729,1.2043,1.1619,1.1619,1.1619,1.1619,1.1619,1.1619,1.1643,1.0335,0.6684,0.876,0.8188,0.0876,0.0,0.0,0.0,-0.7013,-1.1593,-1.1593,-0.8307,-0.7702,-1.1362,-1.163,-1.1548,-1.1537,-1.1518,-1.2175,-1.3875,-1.5507,-1.7082,-1.864,-2.0329,-2.1109,-2.1355,-2.4525,-2.6098,3.3418,0.0,3.4297,3.4619,3.5127,3.5625,0.0,3.6016,3.6016,3.6016,3.6016,3.6016,3.6016,3.6016,3.6016,0.0,0.0,3.6016,3.6016,3.6016,0.0,3.6016,3.6016,0.0,0.0,0.0,0.0,0.0,0.0,3.6016,3.6016,3.6016,3.6016,3.6016,3.6016,3.6016,3.6016,3.6016,3.6016,3.6016,3.6016,3.6016,3.6016,3.6016,3.5167,0.0,0.0,0.0,3.0884,2.8908,2.7924,2.736,2.5925,2.5065,2.4636,2.4636,2.4496,2.4295,2.4229,2.3908,2.3467,2.3093,2.2926,2.2859,2.2859,2.2913,2.2953,2.2886,2.2578,2.1878,2.0473,1.8653,1.669,1.4853,1.3309,1.2183,1.176,1.1619,1.1619,1.1619,1.1619,1.1623,1.1643,1.1529,1.1257,1.0387,0.5983,0.2042,0.0292,0.0,0.0,0.0,-0.7013,-1.1586,-1.1569,-1.0794,-1.0624,-1.1509,-1.163,-1.2112,-1.3336,-1.3295,-1.4598,-1.7451,-1.9034,-2.0068,-2.0456,-2.0849,-2.1727,-2.3076,-2.5016,-2.6712,3.3418,3.374,3.418,3.46,3.5049,3.5508,3.5928,3.6016,3.6016,3.6016,3.6016,3.6016,3.6016,3.6016,3.6016,0.0,3.6016,0.0,0.0,0.0,3.6016,3.6016,3.6016,3.6016,0.0,0.0,0.0,0.0,0.0,3.6016,3.6016,3.6016,3.6016,3.6016,3.6016,3.6016,3.6016,3.6016,3.6016,3.6016,3.6016,3.6016,3.6016,3.6016,3.5021,0.0,0.0,0.0,2.8908,2.6925,2.6218,2.6071,2.5072,2.4636,2.4623,2.4489,2.4335,2.4162,2.3895,2.35,2.3086,2.2919,2.2859,2.2722,2.1878,2.1596,2.1596,2.1596,2.0328,1.8782,1.7804,1.6127,1.4441,1.3309,1.2323,1.1619,1.1619,1.1619,1.1619,1.1619,1.1619,1.1626,1.165,1.0052,0.9488,1.1292,0.4962,0.0,0.0,0.0,-0.1313,-0.4962,-0.7443,-0.9635,-1.1391,-1.1657,-1.164,-1.164,-1.1626,-1.2361,-1.3905,-1.3792,-1.5352,-1.86,-2.0278,-2.1109,-2.1109,-2.1109,-2.1971,-2.3698,-2.5253,-2.6832,3.3418,3.374,3.418,3.46,3.499,3.542,3.5908,3.6016,3.6016,3.6016,3.6016,3.6016,3.6016,3.6016,0.0,0.0,0.0,0.0,3.6016,3.6016,3.6016,3.6016,3.6016,0.0,0.0,0.0,0.0,0.0,0.0,3.6016,3.6016,3.6016,3.6016,3.6016,3.6016,3.6016,3.6016,3.6016,3.6016,3.6016,3.6016,3.6016,3.6016,3.5733,3.459,3.2595,0.0,0.0,2.6932,2.5212,2.4636,2.4636,2.4636,2.4636,2.4603,2.4309,2.4175,2.4055,2.346,2.3086,2.2859,2.2585,2.2441,2.216,2.0196,1.9495,1.9211,1.9211,1.7102,1.4712,1.4428,1.3167,1.19,1.1619,1.1619,1.1619,1.1619,1.1619,1.1619,1.1619,1.1623,1.1633,1.1657,0.8876,0.7428,0.9512,0.4231,0.0,0.0,0.0,-0.2918,-1.0702,-0.8604,-0.7996,-1.1362,-1.1633,-1.1619,-1.1619,-1.1619,-1.2321,-1.416,-1.4625,-1.6165,-1.878,-2.0329,-2.1109,-2.1109,-2.1109,-2.2097,-2.4054,-2.5375,-2.6953,3.3418,3.374,3.418,3.46,3.4746,3.5019,3.584,3.6016,3.6016,3.6016,3.6016,3.6016,3.6016,3.6016,3.6016,0.0,0.0,3.6016,0.0,0.0,3.6016,3.6016,0.0,0.0,0.0,0.0,0.0,0.0,0.0,3.6016,3.6016,3.6016,3.6016,3.6016,3.6016,3.6016,3.6016,3.6016,3.6016,3.6016,3.6016,3.6016,3.5879,3.4305,3.2595,3.0593,0.0,2.6779,2.5065,2.4777,2.4636,2.4636,2.4636,2.4636,2.4603,2.4309,2.4048,2.3754,2.3146,2.2899,2.2578,2.1038,2.0479,2.0196,1.8234,1.6545,1.5274,1.5274,1.5981,1.6404,1.4853,1.4148,1.3591,1.2043,1.1619,1.1619,1.1619,1.1619,1.1619,1.1619,1.1633,1.166,1.1546,1.1121,0.8624,0.2625,0.0729,0.0,0.0,0.0,-0.2918,-1.0702,-1.1125,-1.0951,-1.1513,-1.1633,-1.1619,-1.1619,-1.1619,-1.2879,-1.5919,-1.8592,-2.0157,-2.0722,-2.0976,-2.1109,-2.1109,-2.1109,-2.2695,-2.5619,-2.5855,-2.7572,3.3418,3.374,3.418,3.46,3.4892,3.5244,3.5879,3.6016,3.6016,3.6016,3.6016,3.6016,3.6016,3.6016,3.6016,3.6016,0.0,3.6016,3.6016,3.6016,3.6016,0.0,0.0,0.0,0.0,0.0,0.0,0.0,0.0,0.0,3.6016,3.6016,3.6016,3.6016,3.6016,3.6016,3.6016,3.6016,3.6016,3.6016,3.6016,3.6016,3.5879,3.402,3.2167,3.0168,0.0,2.6357,2.4636,2.4636,2.4636,2.4636,2.4636,2.4636,2.4583,2.4135,2.3674,2.324,2.2959,2.2297,2.1176,2.034,1.9356,1.8234,1.6263,1.5137,1.4148,1.3167,1.3452,1.4018,1.317,1.2885,1.2602,1.176,1.1619,1.1619,1.1619,1.1619,1.1619,1.1619,1.164,1.0922,0.8884,1.0236,0.8925,0.1167,0.0,0.0,0.0,-0.3648,-0.6859,-0.8314,-1.036,-1.1667,-1.164,-1.1626,-1.2043,-1.3028,-1.3829,-1.5289,-1.7803,-1.9967,-2.1109,-2.1109,-2.1109,-2.1109,-2.1109,-2.1109,-2.282,-2.5976,-2.5976,-2.7811,3.3418,3.3809,3.4297,3.4619,3.5049,3.5508,3.5928,3.6016,3.6016,3.6016,3.6016,3.6016,3.6016,3.6016,0.0,3.6016,3.6016,3.6016,3.6016,0.0,0.0,0.0,0.0,0.0,0.0,0.0,0.0,0.0,0.0,0.0,3.6016,3.6016,3.6016,3.6016,3.6016,3.6016,3.6016,3.6016,3.6016,3.6016,3.6016,3.6016,3.5879,3.3586,3.1738,3.0168,2.7772,2.5925,2.4636,2.4636,2.4636,2.4636,2.4636,2.4556,2.4382,2.3935,2.3387,2.2859,2.2441,2.1321,1.9918,1.9072,1.7809,1.6122,1.4294,1.3729,1.3448,1.2043,1.1619,1.1619,1.1619,1.1619,1.1619,1.1619,1.1619,1.1619,1.1619,1.1619,1.1619,1.1626,1.165,1.064,0.7713,0.8174,0.6865,0.0876,0.0,0.0,0.0,-0.672,-1.0393,-0.7421,-0.9896,-1.1647,-1.1619,-1.1619,-1.2591,-1.4788,-1.5834,-1.7255,-1.9154,-2.0367,-2.1109,-2.1109,-2.1109,-2.1109,-2.1109,-2.1481,-2.3186,-2.5976,-2.634,-2.8179,3.3418,3.4023,3.4658,3.4687,3.5049,3.5508,3.5928,3.6016,3.6016,3.6016,3.6016,3.6016,0.0,3.6016,3.6016,3.6016,3.6016,3.6016,3.6016,0.0,0.0,0.0,0.0,0.0,0.0,0.0,0.0,0.0,0.0,0.0,3.6016,3.6016,3.6016,3.6016,3.6016,3.6016,3.6016,3.6016,3.6016,3.6016,3.6016,3.6016,3.5879,3.2158,3.0451,3.0026,2.6342,2.4777,2.4636,2.4636,2.4636,2.4636,2.4636,2.4309,2.3828,2.3788,2.3387,2.2578,2.09,2.0196,1.9495,1.5976,1.4712,1.4294,1.2323,1.176,1.176,1.1619,1.1619,1.1619,1.1619,1.1619,1.1619,1.1619,1.1619,1.1619,1.1619,1.1619,1.1626,1.1647,1.1533,1.1559,1.1286,0.54,0.0584,0.0146,0.0,0.0,0.0,-0.672,-1.1438,-1.126,-1.1381,-1.1647,-1.1619,-1.1619,-1.3101,-1.6387,-1.643,-1.7255,-1.9154,-2.0367,-2.1109,-2.1109,-2.1109,-2.1109,-2.1109,-2.2709,-2.4294,-2.6098,-2.7563,-2.9166,3.375,3.4258,3.4766,3.5059,3.5459,3.583,3.5986,3.6016,3.6016,3.6016,3.6016,0.0,0.0,0.0,3.6016,3.6016,3.6016,3.6016,3.6016,3.6016,0.0,0.0,0.0,0.0,0.0,0.0,0.0,0.0,0.0,0.0,3.6016,3.6016,3.6016,3.6016,3.6016,3.6016,3.6016,3.6016,3.6016,3.6016,3.6016,3.5441,3.4167,3.1448,2.9607,2.8341,2.5779,2.4636,2.4636,2.4636,2.4636,2.4636,2.4636,2.4282,2.3774,2.3774,2.3387,2.2585,2.0756,1.9356,1.7809,1.5274,1.3591,1.2463,1.176,1.1619,1.1619,1.1619,1.1619,1.1619,1.1619,1.1619,1.1619,1.1619,1.1619,1.1619,1.1619,1.163,1.1643,1.1653,1.1549,1.1583,1.1593,0.5109,0.0,0.0,0.0,-0.0876,-0.3359,-0.6125,-0.8897,-1.1408,-1.1664,-1.163,-1.1619,-1.1619,-1.3143,-1.6847,-1.6636,-1.7727,-2.0522,-2.0932,-2.1109,-2.1109,-2.1109,-2.1109,-2.1109,-2.2834,-2.4417,-2.6098,-2.7683,-2.9285,3.3994,3.4482,3.499,3.5312,3.5703,3.6016,3.6016,3.6016,3.6016,3.6016,3.6016,3.6016,3.6016,0.0,0.0,0.0,3.6016,3.6016,3.6016,3.6016,0.0,0.0,0.0,0.0,0.0,0.0,0.0,0.0,0.0,0.0,0.0,3.6016,3.6016,3.6016,3.6016,3.6016,3.6016,3.6016,3.6016,3.6016,3.5451,3.4452,3.317,3.1166,2.9329,2.736,2.5499,2.4636,2.4636,2.4636,2.4636,2.4636,2.4636,2.4335,2.3895,2.3801,2.3153,2.1855,1.9802,1.7949,1.5985,1.4152,1.2606,1.1619,1.1619,1.1619,1.1619,1.1619,1.1619,1.1619,1.1619,1.1619,1.1619,1.1619,1.1619,1.1619,1.1626,1.1643,1.166,1.1533,1.1566,1.085,0.8336,0.3501,0.0,0.0,-0.2044,-0.4676,-0.7317,-0.6557,-0.7268,-1.1234,-1.1643,-1.1619,-1.1619,-1.1619,-1.3147,-1.6867,-1.6646,-1.7984,-2.156,-2.1316,-2.1109,-2.1109,-2.1109,-2.1109,-2.1109,-2.3318,-2.4901,-2.6098,-2.8179,-2.9776,3.4082,3.4726,3.5391,3.54,3.5713,3.6016,3.6016,3.6016,3.6016,3.6016,3.6016,3.6016,3.6016,3.6016,0.0,3.6016,3.6016,3.6016,3.6016,3.6016,3.6016,0.0,0.0,0.0,0.0,0.0,0.0,0.0,0.0,0.0,0.0,3.6016,3.6016,3.6016,3.6016,3.6016,3.6016,3.6016,3.6016,3.6016,3.4029,3.317,3.317,3.1166,2.9186,2.736,2.5499,2.4636,2.4636,2.4636,2.4636,2.4636,2.4636,2.4462,2.4168,2.3875,2.2408,2.0115,1.7892,1.5981,1.4152,1.2183,1.1619,1.1619,1.1619,1.1619,1.1619,1.1619,1.1619,1.1619,1.1619,1.1619,1.1619,1.1619,1.1619,1.1626,1.165,1.1509,1.1526,1.1583,1.1593,0.9073,0.1313,0.0,0.0,0.0,-0.6589,-1.1633,-1.1596,-0.8309,-0.7404,-1.1181,-1.1619,-1.1619,-1.1619,-1.1619,-1.3097,-1.6644,-1.6561,-1.8061,-2.1846,-2.1423,-2.1109,-2.1109,-2.1109,-2.1109,-2.1109,-2.4401,-2.5976,-2.6098,-2.9412,-3.0889,3.4834,3.5195,3.5459,3.5762,3.5928,3.6016,3.6016,3.6016,3.6016,3.6016,3.6016,3.6016,3.6016,0.0,0.0,0.0,0.0,0.0,3.6016,3.6016,3.6016,3.6016,0.0,0.0,0.0,0.0,0.0,0.0,0.0,0.0,0.0,3.6016,3.6016,3.6016,3.6016,3.6016,3.6016,3.4737,3.402,3.402,3.2027,3.1166,3.1166,2.9194,2.7353,2.5499,2.4777,2.4636,2.4636,2.4636,2.4636,2.4636,2.4636,2.4462,2.4017,2.2388,2.1239,1.9974,1.6476,1.4853,1.4152,1.2183,1.1619,1.1619,1.1619,1.1619,1.1619,1.1619,1.1619,1.1619,1.1619,1.1619,1.1619,1.1619,1.1619,1.1626,1.165,0.9452,0.8297,1.1137,0.7158,0.2772,0.0438,0.0,0.0,0.0,-0.6589,-1.1626,-1.1576,-1.0649,-1.0323,-1.1476,-1.1619,-1.1619,-1.1619,-1.1619,-1.3151,-1.6872,-1.6651,-1.7984,-2.1553,-2.1309,-2.1109,-2.1109,-2.1109,-2.1109,-2.1109,-2.4401,-2.5976,-2.6098,-2.9412,-3.0889,3.5254,3.5517,3.5703,3.5957,3.6016,3.6016,3.6016,3.6016,3.6016,3.6016,3.6016,3.6016,3.6016,3.6016,0.0,0.0,0.0,0.0,0.0,3.6016,3.6016,3.6016,0.0,0.0,0.0,0.0,0.0,0.0,0.0,0.0,0.0,3.6016,3.6016,3.6016,3.5304,3.4883,3.4883,3.3022,3.2027,3.2027,3.0042,2.9186,2.9186,2.8068,2.6502,2.4636,2.4636,2.4636,2.4636,2.4636,2.4636,2.4488,2.3722,2.3317,2.284,2.0629,1.9208,1.7965,1.5467,1.3932,1.317,1.19,1.1619,1.1619,1.1619,1.1619,1.1619,1.1619,1.1619,1.1619,1.1619,1.1619,1.1619,1.1619,1.1626,1.164,1.1667,0.9769,0.7874,0.7156,0.3209,0.0,0.0,0.0,0.0,0.0,-0.5256,-0.9812,-1.1415,-1.1667,-1.1633,-1.1619,-1.1619,-1.1619,-1.1619,-1.1619,-1.3174,-1.6972,-1.6771,-1.8094,-2.16,-2.1329,-2.1109,-2.1109,-2.1109,-2.1481,-2.2097,-2.477,-2.634,-2.7073,-2.9658,-3.0889,3.5439,3.5732,3.6016,3.6016,3.6016,3.6016,3.6016,3.6016,3.6016,3.6016,0.0,3.6016,3.6016,3.6016,3.6016,3.6016,0.0,0.0,0.0,0.0,3.6016,3.6016,0.0,0.0,0.0,0.0,0.0,0.0,0.0,0.0,0.0,3.5879,3.587,3.6016,3.402,3.3022,3.317,3.1166,3.0026,3.0026,2.8205,2.7215,2.7215,2.7215,2.621,2.4636,2.4636,2.4636,2.4636,2.4636,2.4636,2.4334,2.236,2.1596,2.1262,1.8767,1.6624,1.5112,1.4637,1.3172,1.1619,1.1619,1.1619,1.1619,1.1619,1.1619,1.1619,1.1619,1.1619,1.1619,1.1619,1.1619,1.1619,1.1623,1.164,1.1664,1.1556,1.158,0.9367,0.1459,0.0,0.0,0.0,0.0,0.0,0.0,-0.3345,-0.7272,-1.1112,-1.1657,-1.1619,-1.1619,-1.1619,-1.1619,-1.1619,-1.1619,-1.3174,-1.6972,-1.6892,-1.8319,-2.1899,-2.1456,-2.1136,-2.1109,-2.1109,-2.1971,-2.3574,-2.5261,-2.6832,-2.8417,-3.0147,-3.0889,3.5801,3.5947,3.6016,3.6016,3.6016,3.6016,3.6016,3.6016,3.6016,3.6016,3.6016,3.6016,3.6016,3.6016,3.6016,3.6016,3.6016,3.6016,0.0,0.0,0.0,3.6016,0.0,0.0,0.0,0.0,0.0,0.0,0.0,0.0,3.6016,3.459,3.4452,3.6016,3.2735,3.1597,3.317,2.9766,2.8061,0.0,2.621,2.5212,2.5212,2.5212,2.5065,2.4636,2.4636,2.4636,2.4636,2.4636,2.4636,2.4334,2.236,2.1596,2.1112,1.7269,1.5589,1.4822,1.3044,1.2025,1.1619,1.1619,1.1619,1.1619,1.1619,1.1619,1.1619,1.1619,1.1619,1.1619,1.1619,1.1619,1.1623,1.1643,1.165,1.1667,1.1576,1.159,0.9367,0.1459,0.0,0.0,0.0,0.0,0.0,0.0,-0.3345,-0.7272,-1.1112,-1.1657,-1.1619,-1.1619,-1.1619,-1.1619,-1.1619,-1.1619,-1.3174,-1.6972,-1.6892,-1.8528,-2.2191,-2.177,-2.1349,-2.1116,-2.1109,-2.1971,-2.3574,-2.5261,-2.6832,-2.8417,-3.0147,-3.0889,3.5957,3.6016,3.6016,3.6016,3.6016,3.6016,3.6016,3.6016,3.6016,3.6016,3.6016,3.6016,3.6016,3.6016,3.6016,3.6016,3.6016,3.6016,3.6016,3.6016,0.0,3.6016,3.6016,0.0,0.0,0.0,0.0,0.0,0.0,3.5021,3.6016,3.3309,3.2735,3.459,3.0892,2.948,3.0476,2.7635,2.6071,2.6071,2.5065,2.4636,2.4636,2.4636,2.4636,2.4636,2.4636,2.4636,2.4636,2.4636,2.4025,2.2961,2.0991,1.9629,1.825,1.5126,1.3941,1.363,1.2434,1.1843,1.1708,1.1643,1.1619,1.1619,1.1619,1.1619,1.1619,1.1619,1.1619,1.1619,1.1619,1.1626,1.1643,1.167,1.0194,0.9321,1.1137,0.8632,0.4816,0.0729,0.0,0.0,0.0,0.0,-0.1313,-0.4962,-0.5677,-0.7268,-1.1089,-1.1647,-1.1619,-1.1619,-1.1619,-1.1619,-1.1619,-1.2463,-1.4156,-1.6972,-1.7972,-1.965,-2.2284,-2.2124,-2.1764,-2.1329,-2.1922,-2.3069,-2.4778,-2.6349,-2.7931,-2.9648,-3.0518,-3.0889,3.6016,3.6016,3.6016,3.6016,3.6016,3.6016,3.6016,3.6016,3.6016,3.6016,3.6016,3.6016,3.6016,3.6016,3.6016,3.6016,3.6016,3.6016,3.6016,3.6016,3.6016,3.6016,3.6016,0.0,0.0,0.0,0.0,0.0,0.0,3.3734,3.5011,3.1738,3.0743,3.2595,2.9059,2.7215,2.7505,2.5639,2.4636,2.4636,2.4636,2.4636,2.4636,2.4636,2.4636,2.4636,2.4636,2.4636,2.4636,2.4179,2.3116,2.1297,1.9025,1.7056,1.5234,1.3263,1.2413,1.2271,1.2115,1.1962,1.1809,1.1664,1.1619,1.1619,1.1619,1.1619,1.1619,1.1619,1.1619,1.1619,1.1623,1.164,1.1664,1.1556,0.9187,0.728,0.9214,0.4523,0.0,0.0,0.0,0.0,0.0,0.0,-0.2625,-1.0405,-0.8899,-0.7996,-1.1214,-1.1633,-1.1619,-1.1619,-1.1619,-1.1619,-1.1619,-1.3309,-1.5137,-1.7112,-1.9077,-2.0796,-2.237,-2.2445,-2.2191,-2.171,-2.2983,-2.4471,-2.5976,-2.7563,-2.9285,-3.0889,-3.0889,-3.0889,3.6016,3.6016,3.6016,3.6016,3.6016,3.6016,3.6016,3.6016,3.6016,3.6016,3.6016,3.6016,3.6016,3.6016,3.6016,3.6016,3.6016,3.6016,3.6016,3.6016,3.6016,3.6016,3.6016,3.6016,0.0,0.0,0.0,0.0,3.3309,3.2595,3.1166,2.9051,2.8772,3.0601,2.691,2.5786,2.7505,2.5639,2.4636,2.4636,2.4636,2.4636,2.4636,2.4636,2.4636,2.4636,2.4636,2.4636,2.4482,2.2664,2.19,2.1297,1.7355,1.5688,1.5234,1.3263,1.2413,1.2271,1.2115,1.1962,1.1809,1.1664,1.1619,1.1619,1.1619,1.1619,1.1619,1.1619,1.1619,1.1623,1.1643,1.1653,1.1667,1.1576,1.1141,0.9068,0.2917,0.0729,0.0,0.0,0.0,0.0,0.0,0.0,-0.2625,-1.0405,-1.1128,-1.0954,-1.1513,-1.1633,-1.1619,-1.1619,-1.1619,-1.1619,-1.1619,-1.3309,-1.5137,-1.7112,-1.9077,-2.0882,-2.2806,-2.2552,-2.2385,-2.2305,-2.3415,-2.4579,-2.5976,-2.7563,-2.9285,-3.0889,-3.0889,-3.0889,3.4737,3.4452,3.4167,3.3013,3.2874,3.2874,3.2874,3.2874,3.3161,3.4167,3.4452,3.4737,3.5879,3.6016,3.6016,3.6016,3.6016,3.6016,3.6016,3.6016,3.6016,3.6016,3.6016,3.6016,3.6016,0.0,0.0,0.0,3.2735,3.1738,3.1878,2.8061,2.6779,2.8621,2.6064,2.5072,2.5925,2.5065,2.4636,2.4636,2.4636,2.4636,2.4636,2.4636,2.4636,2.4488,2.3419,2.2961,2.2812,2.0692,1.9176,1.7962,1.6146,1.4778,1.3718,1.2807,1.2464,1.2386,1.224,1.2091,1.1935,1.1786,1.1684,1.1619,1.1619,1.1619,1.1619,1.1619,1.1619,1.1623,1.165,1.0038,0.8879,1.1134,1.161,0.9534,0.1751,0.0,0.0,0.0,0.0,0.0,0.0,-0.3648,-0.6861,-0.8167,-1.0212,-1.1667,-1.164,-1.1626,-1.1619,-1.1619,-1.1619,-1.1619,-1.1619,-1.4298,-1.6263,-1.7112,-2.0051,-2.2022,-2.2859,-2.2739,-2.2585,-2.2418,-2.4374,-2.5577,-2.6273,-2.8654,-3.0147,-3.0889,-3.0889,-3.0889,3.4305,3.3882,3.3448,3.1448,3.1025,3.1025,3.1025,3.1025,3.1589,3.3448,3.3882,3.4305,3.5733,3.6016,3.6016,3.6016,3.6016,3.6016,3.6016,3.6016,3.6016,3.6016,3.6016,3.5879,3.5304,3.5733,0.0,0.0,3.1597,3.046,3.1034,2.6917,2.5205,2.6787,2.5352,2.4636,2.4636,2.4636,2.4636,2.4636,2.4636,2.4636,2.4636,2.4636,2.4636,2.4488,2.2509,2.1297,2.0686,1.8718,1.6904,1.5387,1.4931,1.3872,1.2501,1.2501,1.2501,1.2481,1.2338,1.2189,1.2037,1.1881,1.1735,1.1619,1.1619,1.1619,1.1619,1.1619,1.1623,1.1633,1.166,0.9465,0.7575,0.8477,0.8644,0.7031,0.1314,0.0,0.0,0.0,0.0,0.0,0.0,-0.6425,-1.0686,-0.7715,-0.9749,-1.1647,-1.1623,-1.1619,-1.1619,-1.1619,-1.1619,-1.1619,-1.1619,-1.5004,-1.7253,-1.7253,-2.0756,-2.2859,-2.2859,-2.2859,-2.2759,-2.2539,-2.5206,-2.6577,-2.6389,-2.9094,-3.0625,-3.0889,-3.0889,-3.0889,3.5879,3.5879,3.5451,3.3457,3.3022,3.3022,3.3022,3.3022,3.3596,3.5451,3.5879,3.5879,3.6016,3.6016,3.6016,3.6016,3.6016,3.6016,3.6016,3.6016,3.6016,3.6016,3.6016,3.5304,3.3457,3.5021,3.3743,2.8357,2.9472,2.8749,2.5205,2.4777,2.4636,2.4777,2.4636,2.4636,2.4636,2.4636,2.4636,2.4636,2.4636,2.4636,2.4636,2.4636,2.4636,2.4488,2.2509,2.0536,1.8572,1.6447,1.5535,1.5234,1.3414,1.2656,1.2501,1.2501,1.2501,1.2481,1.2338,1.2189,1.2037,1.1881,1.1735,1.1619,1.1619,1.1619,1.1619,1.1619,1.1633,1.166,1.1549,1.1424,0.9512,0.2334,0.0584,0.0438,0.0146,0.0,0.0,0.0,0.0,0.0,0.0,-0.6425,-1.1583,-1.1266,-1.1526,-1.1647,-1.1623,-1.1619,-1.1619,-1.1619,-1.1619,-1.1619,-1.1619,-1.5004,-1.7253,-1.7253,-2.0756,-2.2859,-2.2859,-2.2859,-2.2853,-2.2839,-2.5936,-2.7087,-2.6389,-2.8123,-2.9665,-3.0889,-3.0889,-3.0889,3.459,3.4167,3.3734,3.1878,3.0468,2.9488,2.9488,2.8629,2.8197,3.0201,3.1465,3.2735,3.402,3.5167,3.6016,3.6016,3.6016,3.6016,3.6016,3.6016,3.6016,3.6016,3.6016,3.5733,3.5021,3.5597,3.4599,3.1465,3.0601,2.9186,2.6641,2.5212,2.4636,2.4636,2.4636,2.4636,2.4636,2.4636,2.4636,2.4636,2.4636,2.4636,2.4636,2.4636,2.3116,2.0692,1.9935,1.9327,1.827,1.4931,1.3564,1.3568,1.2807,1.2501,1.2501,1.2501,1.2501,1.2494,1.2444,1.2267,1.2054,1.1999,1.1816,1.1619,1.1619,1.1619,1.1619,1.1619,1.1636,1.107,0.8587,0.9789,0.9663,0.1896,0.0,0.0,0.0,0.0,0.0,0.0,0.0,0.0,0.0,-0.4369,-0.8749,-1.126,-1.1664,-1.1626,-1.1619,-1.1619,-1.1619,-1.1619,-1.1619,-1.1619,-1.1619,-1.5004,-1.7253,-1.7253,-2.0756,-2.2859,-2.2859,-2.2859,-2.2859,-2.2859,-2.5137,-2.6553,-2.7095,-2.9397,-3.0821,-3.1289,-3.1016,-3.0889,3.3596,3.2735,3.1738,2.99,2.8908,2.8205,2.7643,2.6917,2.6917,2.8197,2.9464,3.0734,3.2018,3.3734,3.5021,3.5021,3.5587,3.5733,3.5167,3.5587,3.5733,3.5167,3.5597,3.5451,3.4158,3.4727,3.4305,3.2307,3.046,0.0,2.7505,2.5639,2.4636,2.4636,2.4636,2.4636,2.4636,2.4636,2.4636,2.4636,2.4636,2.4636,2.4636,2.4636,2.2812,1.9629,1.8874,1.7815,1.6299,1.3568,1.2501,1.2501,1.2501,1.2501,1.2501,1.2501,1.2501,1.2501,1.2501,1.2308,1.206,1.206,1.186,1.1619,1.1619,1.1619,1.1619,1.1626,1.165,1.0938,0.8449,0.7733,0.6425,0.1167,0.0,0.0,0.0,0.0,0.0,0.0,0.0,0.0,0.0,-0.32,-0.7125,-1.0964,-1.1657,-1.1619,-1.1619,-1.1619,-1.1619,-1.1619,-1.1619,-1.1619,-1.1619,-1.5004,-1.7253,-1.7253,-2.0756,-2.2859,-2.2859,-2.2859,-2.2859,-2.2859,-2.5248,-2.6862,-2.7678,-3.0001,-3.1165,-3.1514,-3.123,-3.1025,0.0,0.0,0.0,2.8068,2.8908,2.9892,2.8068,2.9043,3.031,3.0168,3.031,3.031,3.0168,3.1738,3.317,3.3031,3.4599,3.5304,3.3309,3.4737,3.5304,3.3457,3.4874,3.4443,3.0876,3.2167,3.2447,3.0451,2.8629,2.7498,2.736,2.5639,2.4636,2.4636,2.4636,2.4636,2.4636,2.4636,2.4636,2.4636,2.4636,2.4636,2.4636,2.4636,2.3419,2.1446,1.9478,1.6299,1.2501,1.2501,1.2501,1.2501,1.2501,1.2501,1.2501,1.2501,1.2501,1.2501,1.2501,1.2311,1.2067,1.2064,1.1864,1.1626,1.1619,1.1619,1.1623,1.1647,1.1536,1.1566,1.1289,0.5693,0.0,0.0,0.0,0.0,0.0,0.0,0.0,0.0,0.0,0.0,0.0,-0.32,-0.7125,-1.0964,-1.1657,-1.1619,-1.1619,-1.1619,-1.1619,-1.1619,-1.1619,-1.1619,-1.1619,-1.5004,-1.7253,-1.7253,-2.0756,-2.2859,-2.2859,-2.2859,-2.2859,-2.2859,-2.6447,-2.8172,-2.8172,-2.9617,-3.0696,-3.1553,-3.1533,-3.1289,3.1448,0.0,0.0,0.0,0.0,0.0,2.9607,2.9892,2.9884,2.8485,2.9321,2.9892,2.8485,2.9757,3.0601,2.9345,3.1895,3.33,3.1307,3.2735,3.3734,3.3309,3.3596,3.402,3.4443,3.3734,3.2447,0.0,2.9892,2.8334,2.5492,2.4924,2.4636,2.4636,2.4636,2.4636,2.4636,2.4636,2.4636,2.4636,2.4636,2.4636,2.4636,2.4636,2.2657,1.9327,1.8874,1.6299,1.2501,1.2501,1.2501,1.2501,1.2501,1.2501,1.2501,1.2501,1.2501,1.2501,1.2501,1.2383,1.221,1.2098,1.1932,1.1752,1.165,1.163,1.1647,1.1653,1.1546,1.025,0.4669,0.1605,0.0,0.0,0.0,0.0,0.0,0.0,0.0,0.0,0.0,0.0,0.0,-0.32,-0.7125,-1.0964,-1.1657,-1.1619,-1.1619,-1.1619,-1.1619,-1.1619,-1.1619,-1.1619,-1.1619,-1.5004,-1.7253,-1.7253,-2.0756,-2.2859,-2.2859,-2.2859,-2.2859,-2.2859,-2.6447,-2.8172,-2.8172,-3.0792,-3.2152,-3.2432,-3.1807,-3.1289,0.0,0.0,0.0,0.0,0.0,0.0,2.8326,2.9179,2.9607,2.6779,2.7201,2.762,2.6495,2.7917,2.8477,2.6641,2.8772,3.0476,2.9329,3.0743,3.1746,3.0901,3.1456,3.2167,3.2464,3.1474,3.061,3.031,2.8749,2.691,2.4777,2.4636,2.4636,2.4636,2.4636,2.4636,2.4636,2.4636,2.4636,2.4636,2.4636,2.4636,2.4636,2.4636,2.236,1.8572,1.8572,1.6299,1.2501,1.2501,1.2501,1.2501,1.2501,1.2501,1.2501,1.2501,1.2501,1.2501,1.2501,1.241,1.2267,1.2111,1.1955,1.1806,1.1674,1.1643,1.166,1.1539,0.92,0.5693,0.1167,0.0,0.0,0.0,0.0,0.0,0.0,0.0,0.0,0.0,0.0,-0.1021,-0.4232,-0.5385,-0.7123,-1.0948,-1.1647,-1.1619,-1.1619,-1.1619,-1.1619,-1.1619,-1.1619,-1.1619,-1.1619,-1.5004,-1.7253,-1.7253,-2.0756,-2.2859,-2.2859,-2.2859,-2.2859,-2.2859,-2.6447,-2.896,-3.0393,-3.2128,-3.2969,-3.2773,-3.1914,-3.1387,0.0,0.0,0.0,0.0,0.0,0.0,2.5632,2.7765,2.9321,2.5632,2.4924,2.4924,2.4636,2.6071,2.6641,2.5212,2.6218,2.7215,2.7215,2.9043,2.9749,2.8068,2.9329,2.9749,2.8213,2.7924,2.8485,2.9892,2.6627,2.4636,2.4636,2.4636,2.4636,2.4636,2.4636,2.4636,2.4636,2.4636,2.4636,2.4636,2.4636,2.4636,2.4636,2.4636,2.236,1.8572,1.8572,1.6299,1.2501,1.2501,1.2501,1.2501,1.2501,1.2501,1.2501,1.2501,1.2501,1.2501,1.2501,1.241,1.2267,1.2111,1.1955,1.1806,1.1687,1.1358,1.0929,1.039,0.54,0.0,0.0,0.0,0.0,0.0,0.0,0.0,0.0,0.0,0.0,0.0,0.0,-0.248,-1.0256,-0.8754,-0.7557,-1.1067,-1.1633,-1.1619,-1.1619,-1.1619,-1.1619,-1.1619,-1.1619,-1.1619,-1.1903,-1.5141,-1.7253,-1.7534,-2.0894,-2.2859,-2.2859,-2.2859,-2.2859,-2.2859,-2.6447,-2.9874,-3.3155,-3.3292,-3.3203,-3.2773,-3.2021,-3.1611,0.0,0.0,0.0,0.0,0.0,0.0,2.707,2.8621,2.9607,2.7353,2.6932,2.6502,2.4924,2.4924,2.5492,2.6787,2.5925,2.5212,2.5212,2.819,3.0168,2.9749,3.0026,3.0743,3.2036,3.0601,2.9329,2.8061,2.5925,2.4636,2.4636,2.4636,2.4636,2.4636,2.4636,2.4636,2.4636,2.4636,2.4636,2.4636,2.4636,2.4636,2.4636,2.4636,2.236,1.8572,1.8572,1.6299,1.2501,1.2501,1.2501,1.2501,1.2501,1.2501,1.2501,1.2501,1.2501,1.2501,1.2501,1.241,1.2267,1.2111,1.1955,1.1806,1.1687,0.9452,0.6248,0.3206,0.1167,0.0,0.0,0.0,0.0,0.0,0.0,0.0,0.0,0.0,0.0,0.0,0.0,-0.248,-1.0256,-1.0976,-1.08,-1.1513,-1.1633,-1.1619,-1.1619,-1.1619,-1.1619,-1.1619,-1.1619,-1.2183,-1.3729,-1.5844,-1.7814,-1.9495,-2.1596,-2.2859,-2.2859,-2.2859,-2.2859,-2.2859,-2.6447,-2.9213,-3.1295,-3.2756,-3.3203,-3.2793,-3.2627,-3.2178,0.0,0.0,0.0,2.5058,0.0,0.0,0.0,2.749,2.8341,2.6495,2.6071,2.5786,2.4777,2.4636,2.5205,2.7215,2.5925,2.5198,2.7193,2.8341,2.8477,2.762,2.9179,3.0318,3.0334,3.0318,2.9464,2.7643,2.5639,2.4636,2.4636,2.4636,2.4636,2.4636,2.4636,2.4636,2.4636,2.4636,2.4636,2.4636,2.4636,2.4636,2.4636,2.4636,2.236,1.8572,1.8572,1.6299,1.2501,1.2501,1.2501,1.2501,1.2501,1.2501,1.2501,1.2501,1.2501,1.2501,1.2501,1.241,1.2267,1.2111,1.1969,1.1833,1.1714,0.757,0.2474,0.0583,0.0,0.0,0.0,0.0,0.0,0.0,0.0,0.0,0.0,0.0,0.0,0.0,-0.3064,-0.6423,-0.8317,-1.0375,-1.1546,-1.1643,-1.1626,-1.1619,-1.1619,-1.1619,-1.1619,-1.1619,-1.1619,-1.2323,-1.429,-1.6122,-1.8094,-1.9918,-2.1878,-2.2859,-2.2859,-2.2859,-2.3263,-2.4188,-2.6847,-2.9083,-3.0771,-3.2492,-3.331,-3.3105,-3.2891,-3.2568,0.0,0.0,0.0,0.0,0.0,2.6932,0.0,0.0,0.0,0.0,0.0,0.0,0.0,0.0,0.0,2.7552,0.0,0.0,0.0,2.9432,0.0,2.6495,2.8613,2.9892,2.878,2.9615,2.9607,2.8205,2.621,2.5065,2.4636,2.4636,2.4636,2.4636,2.4636,2.4636,2.4636,2.4636,2.4636,2.4636,2.4636,2.4636,2.4636,2.4636,2.236,1.8572,1.8572,1.6299,1.2501,1.2501,1.2501,1.2501,1.2501,1.2501,1.2501,1.2501,1.2501,1.2501,1.2501,1.2389,1.2227,1.2101,1.1656,1.1069,1.0834,0.5825,0.0,0.0,0.0,0.0,0.0,0.0,0.0,0.0,0.0,0.0,0.0,0.0,0.0,0.0,-0.6279,-1.0393,-0.6541,-0.9031,-1.1533,-1.1626,-1.1619,-1.1619,-1.1619,-1.1619,-1.1619,-1.1619,-1.1619,-1.2466,-1.4716,-1.6268,-1.8234,-2.0479,-2.2022,-2.2859,-2.2859,-2.2859,-2.3659,-2.5517,-2.7238,-2.9083,-3.0771,-3.2492,-3.3418,-3.3418,-3.3076,-3.2871,0.0,0.0,0.0,0.0,2.6071,0.0,0.0,0.0,0.0,2.4636,0.0,0.0,0.0,0.0,0.0,0.0,0.0,0.0,3.1712,3.2382,3.2455,3.2316,3.1025,3.0884,3.2455,3.1166,3.0168,3.0026,2.8197,2.6357,2.4636,2.4636,2.4636,2.4636,2.4636,2.4636,2.4636,2.4636,2.4636,2.4636,2.4636,2.4636,2.4636,2.4636,2.236,1.8572,1.8572,1.6299,1.2501,1.2501,1.2501,1.2501,1.2501,1.2501,1.2501,1.2501,1.2501,1.2501,1.2501,1.2322,1.2084,1.2067,1.0375,0.8133,0.8124,0.435,0.0,0.0,0.0,0.0,0.0,0.0,0.0,0.0,0.0,0.0,0.0,0.0,0.0,0.0,-0.6279,-1.0393,-0.6541,-0.9016,-1.165,-1.1623,-1.1619,-1.1619,-1.1619,-1.1619,-1.1619,-1.1619,-1.1619,-1.3031,-1.6549,-1.7112,-1.8793,-2.2297,-2.2722,-2.2859,-2.2859,-2.2859,-2.3659,-2.5517,-2.7238,-2.9083,-3.0771,-3.2492,-3.3418,-3.3418,-3.3369,-3.3144,0.0,0.0,0.0,0.0,0.0,0.0,0.0,0.0,2.4636,0.0,0.0,0.0,0.0,0.0,0.0,0.0,2.951,0.0,0.0,0.0,3.1448,0.0,0.0,0.0,3.4737,3.3161,3.1456,3.0451,2.8629,2.6641,2.4629,2.4636,2.4636,2.4636,2.4636,2.4636,2.4636,2.4636,2.4636,2.4636,2.4636,2.4636,2.4636,2.4636,2.2967,2.0236,1.9176,1.6904,1.4176,1.2958,1.2501,1.2501,1.2501,1.2501,1.2501,1.2501,1.2501,1.2488,1.241,1.224,1.2037,1.1877,1.0999,1.0032,0.9914,0.8459,0.5829,0.1311,0.0,0.0,0.0,0.0,0.0,0.0,0.0,0.0,0.0,0.0,0.0,0.0,-0.4515,-0.8457,-0.9039,-1.0489,-1.1647,-1.1623,-1.1619,-1.1619,-1.1619,-1.1619,-1.1619,-1.1619,-1.1619,-1.3174,-1.6831,-1.7253,-1.8793,-2.2722,-2.2859,-2.2859,-2.2859,-2.2859,-2.3659,-2.5517,-2.7238,-2.9083,-3.0771,-3.2492,-3.3418,-3.3418,-3.3418,-3.333,3.3734,0.0,0.0,0.0,0.0,0.0,0.0,0.0,0.0,0.0,0.0,0.0,0.0,0.0,0.0,0.0,0.0,3.2263,0.0,3.3522,0.0,0.0,0.0,0.0,0.0,3.4737,3.3013,3.0451,2.9051,2.7208,2.4777,2.4636,2.4636,2.4636,2.4636,2.4636,2.4636,2.4636,2.4636,2.4636,2.4636,2.4636,2.4636,2.4636,2.3568,2.1446,1.9478,1.7355,1.5387,1.3263,1.2501,1.2501,1.2501,1.2501,1.2501,1.2501,1.2478,1.243,1.2325,1.2162,1.1959,1.1721,1.1647,1.1653,1.1556,1.0831,0.906,0.4522,0.1605,0.0,0.0,0.0,0.0,0.0,0.0,0.0,0.0,0.0,-0.0584,-0.2772,-0.4657,-0.6978,-1.0951,-1.1667,-1.164,-1.1619,-1.1619,-1.1619,-1.1619,-1.1619,-1.1619,-1.1619,-1.2043,-1.3733,-1.6972,-1.7674,-1.9356,-2.2722,-2.2859,-2.2859,-2.2859,-2.2859,-2.3924,-2.618,-2.7511,-2.9344,-3.1561,-3.2756,-3.3418,-3.3418,-3.3418,-3.3418,0.0,0.0,0.0,2.8924,0.0,0.0,0.0,0.0,2.6932,0.0,0.0,0.0,0.0,0.0,0.0,0.0,0.0,0.0,0.0,0.0,0.0,0.0,0.0,0.0,0.0,3.5879,3.4305,0.0,3.031,2.8613,2.4777,2.4636,2.4636,2.4636,2.4636,2.4636,2.4636,2.4636,2.4636,2.4636,2.4636,2.4636,2.4636,2.4636,2.3568,2.1446,1.9478,1.7355,1.5387,1.3263,1.2501,1.2501,1.2501,1.2501,1.2501,1.2501,1.2416,1.2294,1.2291,1.2091,1.1816,1.167,1.1619,1.1623,1.165,0.9016,0.669,1.0245,0.584,0.0,0.0,0.0,0.0,0.0,0.0,0.0,0.0,0.0,-0.2188,-0.9812,-0.8312,-0.6974,-1.0919,-1.1636,-1.1619,-1.1619,-1.1619,-1.1619,-1.1619,-1.1619,-1.1619,-1.1619,-1.3167,-1.5137,-1.6972,-1.8932,-2.0894,-2.2722,-2.2859,-2.2859,-2.2859,-2.2859,-2.4595,-2.804,-2.8172,-2.9874,-3.3292,-3.3418,-3.3418,-3.3418,-3.3418,-3.3418,0.0,0.0,3.5304,3.2036,0.0,0.0,0.0,0.0,0.0,0.0,0.0,0.0,0.0,0.0,0.0,0.0,0.0,0.0,0.0,0.0,0.0,0.0,0.0,0.0,0.0,0.0,0.0,0.0,2.9186,0.0,2.4784,2.4636,2.4636,2.4636,2.4636,2.4636,2.4636,2.4636,2.4636,2.4636,2.4636,2.4636,2.4636,2.4636,2.4179,2.3419,2.0085,1.8265,1.736,1.3872,1.2501,1.2501,1.2501,1.2444,1.2362,1.2362,1.2332,1.226,1.2057,1.1857,1.1687,1.1653,1.1643,1.165,1.1553,1.0677,0.891,0.496,0.2042,0.0,0.0,0.0,0.0,0.0,0.0,0.0,0.0,0.0,-0.2334,-1.0108,-1.0532,-1.0061,-1.1365,-1.1633,-1.1619,-1.1619,-1.1619,-1.1619,-1.1619,-1.1619,-1.204,-1.3309,-1.401,-1.5698,-1.8793,-2.0894,-2.216,-2.2859,-2.2859,-2.2859,-2.2859,-2.406,-2.5786,-2.8172,-2.9344,-3.1047,-3.3418,-3.3418,-3.3418,-3.3418,-3.3418,-3.3418,3.6016,3.6016,0.0,3.3734,3.3734,0.0,2.9337,0.0,0.0,0.0,0.0,0.0,0.0,0.0,0.0,0.0,0.0,0.0,0.0,3.6016,0.0,0.0,0.0,0.0,0.0,0.0,0.0,0.0,0.0,0.0,0.0,2.4924,2.4636,2.4636,2.4636,2.4636,2.4636,2.4636,2.4636,2.4636,2.4636,2.4636,2.4636,2.4636,2.4636,2.4482,2.1141,1.9327,1.827,1.4931,1.308,1.2427,1.2427,1.2338,1.2216,1.2271,1.222,1.2091,1.184,1.1694,1.1623,1.1647,1.1653,1.1664,1.1576,1.1593,0.9951,0.2176,0.0,0.0,0.0,0.0,0.0,0.0,0.0,0.0,0.0,0.0,-0.1896,-0.8321,-1.0674,-1.1546,-1.165,-1.163,-1.1619,-1.1619,-1.1619,-1.1619,-1.1619,-1.2183,-1.3028,-1.429,-1.5557,-1.7664,-2.0894,-2.216,-2.2859,-2.2859,-2.2859,-2.2859,-2.2859,-2.4588,-2.6306,-2.8172,-2.9856,-3.1698,-3.3418,-3.3418,-3.3418,-3.3418,-3.3418,-3.3418]}]]